<?xml version="1.0" encoding="UTF-8" standalone="no" ?>
<gpx xmlns="http://www.topografix.com/GPX/1/1" xmlns:xsi="http://www.w3.org/2001/XMLSchema-instance" xsi:schemaLocation="http://www.topografix.com/GPX/1/1 http://www.topografix.com/GPX/1/1/gpx.xsd" version="1.1" creator="VisuGPX - https://www.visugpx.com">
  <metadata>
    <name>le tour du chateau de chadieu et bord de l allier jpm63</name>
    <desc><![CDATA[le tour du chateau de chadieu et bord de l allier]]></desc>
  </metadata>
  <trk>
    <name><![CDATA[t 110901 chadieu]]></name>
    <trkseg>
      <trkpt lat="45.68671" lon="3.16261">
        <ele>428.810486</ele>
        <time>2011-09-01T08:35:37Z</time>
      </trkpt>
      <trkpt lat="45.6867" lon="3.16282">
        <ele>427.092773</ele>
        <time>2011-09-01T08:35:57Z</time>
      </trkpt>
      <trkpt lat="45.68668" lon="3.163">
        <ele>426.251251</ele>
        <time>2011-09-01T08:36:09Z</time>
      </trkpt>
      <trkpt lat="45.68663" lon="3.16314">
        <ele>426.086243</ele>
        <time>2011-09-01T08:36:17Z</time>
      </trkpt>
      <trkpt lat="45.68653" lon="3.16318">
        <ele>427.038757</ele>
        <time>2011-09-01T08:36:24Z</time>
      </trkpt>
      <trkpt lat="45.68642" lon="3.16326">
        <ele>427.835052</ele>
        <time>2011-09-01T08:36:32Z</time>
      </trkpt>
      <trkpt lat="45.6863" lon="3.16332">
        <ele>429.048462</ele>
        <time>2011-09-01T08:36:42Z</time>
      </trkpt>
      <trkpt lat="45.6862" lon="3.16343">
        <ele>429.936768</ele>
        <time>2011-09-01T08:36:51Z</time>
      </trkpt>
      <trkpt lat="45.6861" lon="3.16349">
        <ele>431.060211</ele>
        <time>2011-09-01T08:36:59Z</time>
      </trkpt>
      <trkpt lat="45.68602" lon="3.16357">
        <ele>432.024994</ele>
        <time>2011-09-01T08:37:07Z</time>
      </trkpt>
      <trkpt lat="45.68591" lon="3.16364">
        <ele>433.149994</ele>
        <time>2011-09-01T08:37:15Z</time>
      </trkpt>
      <trkpt lat="45.68582" lon="3.16372">
        <ele>434.1875</ele>
        <time>2011-09-01T08:37:24Z</time>
      </trkpt>
      <trkpt lat="45.68573" lon="3.16383">
        <ele>435.237488</ele>
        <time>2011-09-01T08:37:34Z</time>
      </trkpt>
      <trkpt lat="45.68561" lon="3.16394">
        <ele>436.5</ele>
        <time>2011-09-01T08:37:45Z</time>
      </trkpt>
      <trkpt lat="45.68547" lon="3.16411">
        <ele>438.260742</ele>
        <time>2011-09-01T08:38:01Z</time>
      </trkpt>
      <trkpt lat="45.68535" lon="3.16423">
        <ele>439.728088</ele>
        <time>2011-09-01T08:38:15Z</time>
      </trkpt>
      <trkpt lat="45.68526" lon="3.16435">
        <ele>440.496429</ele>
        <time>2011-09-01T08:38:25Z</time>
      </trkpt>
      <trkpt lat="45.68517" lon="3.16443">
        <ele>441.401978</ele>
        <time>2011-09-01T08:38:35Z</time>
      </trkpt>
      <trkpt lat="45.68509" lon="3.16455">
        <ele>442.065002</ele>
        <time>2011-09-01T08:38:46Z</time>
      </trkpt>
      <trkpt lat="45.68499" lon="3.16465">
        <ele>443.267487</ele>
        <time>2011-09-01T08:38:56Z</time>
      </trkpt>
      <trkpt lat="45.6849" lon="3.16477">
        <ele>444.329987</ele>
        <time>2011-09-01T08:39:05Z</time>
      </trkpt>
      <trkpt lat="45.6848" lon="3.16486">
        <ele>445.548767</ele>
        <time>2011-09-01T08:39:14Z</time>
      </trkpt>
      <trkpt lat="45.6847" lon="3.16495">
        <ele>446.563751</ele>
        <time>2011-09-01T08:39:23Z</time>
      </trkpt>
      <trkpt lat="45.6846" lon="3.16497">
        <ele>447.827484</ele>
        <time>2011-09-01T08:39:32Z</time>
      </trkpt>
      <trkpt lat="45.68454" lon="3.16489">
        <ele>448.786255</ele>
        <time>2011-09-01T08:39:40Z</time>
      </trkpt>
      <trkpt lat="45.6846" lon="3.16476">
        <ele>448.73999</ele>
        <time>2011-09-01T08:39:45Z</time>
      </trkpt>
      <trkpt lat="45.68466" lon="3.1646">
        <ele>448.630005</ele>
        <time>2011-09-01T08:39:49Z</time>
      </trkpt>
      <trkpt lat="45.68474" lon="3.16446">
        <ele>447.889984</ele>
        <time>2011-09-01T08:39:53Z</time>
      </trkpt>
      <trkpt lat="45.68479" lon="3.16431">
        <ele>447.475006</ele>
        <time>2011-09-01T08:39:57Z</time>
      </trkpt>
      <trkpt lat="45.68483" lon="3.16412">
        <ele>447.487488</ele>
        <time>2011-09-01T08:40:02Z</time>
      </trkpt>
      <trkpt lat="45.68486" lon="3.16392">
        <ele>447.709991</ele>
        <time>2011-09-01T08:40:06Z</time>
      </trkpt>
      <trkpt lat="45.68491" lon="3.16372">
        <ele>447.537506</ele>
        <time>2011-09-01T08:40:10Z</time>
      </trkpt>
      <trkpt lat="45.68497" lon="3.1635">
        <ele>447.309204</ele>
        <time>2011-09-01T08:40:14Z</time>
      </trkpt>
      <trkpt lat="45.68504" lon="3.16331">
        <ele>447.086609</ele>
        <time>2011-09-01T08:40:18Z</time>
      </trkpt>
      <trkpt lat="45.6851" lon="3.16315">
        <ele>447.018097</ele>
        <time>2011-09-01T08:40:22Z</time>
      </trkpt>
      <trkpt lat="45.68514" lon="3.16299">
        <ele>447.044647</ele>
        <time>2011-09-01T08:40:26Z</time>
      </trkpt>
      <trkpt lat="45.68519" lon="3.16283">
        <ele>446.979218</ele>
        <time>2011-09-01T08:40:33Z</time>
      </trkpt>
      <trkpt lat="45.68525" lon="3.1627">
        <ele>446.771606</ele>
        <time>2011-09-01T08:40:40Z</time>
      </trkpt>
      <trkpt lat="45.68535" lon="3.16256">
        <ele>445.951324</ele>
        <time>2011-09-01T08:41:02Z</time>
      </trkpt>
      <trkpt lat="45.68544" lon="3.16247">
        <ele>445.140686</ele>
        <time>2011-09-01T08:41:11Z</time>
      </trkpt>
      <trkpt lat="45.68553" lon="3.16235">
        <ele>444.683044</ele>
        <time>2011-09-01T08:41:22Z</time>
      </trkpt>
      <trkpt lat="45.68559" lon="3.16224">
        <ele>444.730591</ele>
        <time>2011-09-01T08:41:29Z</time>
      </trkpt>
      <trkpt lat="45.6857" lon="3.16212">
        <ele>444.078766</ele>
        <time>2011-09-01T08:41:34Z</time>
      </trkpt>
      <trkpt lat="45.68578" lon="3.16196">
        <ele>444.022491</ele>
        <time>2011-09-01T08:41:39Z</time>
      </trkpt>
      <trkpt lat="45.68583" lon="3.16177">
        <ele>444.77124</ele>
        <time>2011-09-01T08:41:45Z</time>
      </trkpt>
      <trkpt lat="45.68589" lon="3.16155">
        <ele>445.455566</ele>
        <time>2011-09-01T08:41:50Z</time>
      </trkpt>
      <trkpt lat="45.68593" lon="3.16139">
        <ele>445.56723</ele>
        <time>2011-09-01T08:41:54Z</time>
      </trkpt>
      <trkpt lat="45.68596" lon="3.16121">
        <ele>445.872009</ele>
        <time>2011-09-01T08:41:58Z</time>
      </trkpt>
      <trkpt lat="45.68597" lon="3.16106">
        <ele>446.415497</ele>
        <time>2011-09-01T08:42:02Z</time>
      </trkpt>
      <trkpt lat="45.68597" lon="3.16091">
        <ele>446.940643</ele>
        <time>2011-09-01T08:42:06Z</time>
      </trkpt>
      <trkpt lat="45.68599" lon="3.16073">
        <ele>446.730682</ele>
        <time>2011-09-01T08:42:10Z</time>
      </trkpt>
      <trkpt lat="45.68601" lon="3.16058">
        <ele>446.411865</ele>
        <time>2011-09-01T08:42:14Z</time>
      </trkpt>
      <trkpt lat="45.68603" lon="3.1604">
        <ele>446.222992</ele>
        <time>2011-09-01T08:42:18Z</time>
      </trkpt>
      <trkpt lat="45.68605" lon="3.16023">
        <ele>446.170013</ele>
        <time>2011-09-01T08:42:22Z</time>
      </trkpt>
      <trkpt lat="45.68609" lon="3.16005">
        <ele>446.199982</ele>
        <time>2011-09-01T08:42:26Z</time>
      </trkpt>
      <trkpt lat="45.68614" lon="3.15988">
        <ele>445.86499</ele>
        <time>2011-09-01T08:42:30Z</time>
      </trkpt>
      <trkpt lat="45.68618" lon="3.15974">
        <ele>445.672485</ele>
        <time>2011-09-01T08:42:33Z</time>
      </trkpt>
      <trkpt lat="45.68621" lon="3.15957">
        <ele>445.992493</ele>
        <time>2011-09-01T08:42:37Z</time>
      </trkpt>
      <trkpt lat="45.68625" lon="3.1594">
        <ele>446.131256</ele>
        <time>2011-09-01T08:42:41Z</time>
      </trkpt>
      <trkpt lat="45.6863" lon="3.15922">
        <ele>446.191254</ele>
        <time>2011-09-01T08:42:45Z</time>
      </trkpt>
      <trkpt lat="45.68634" lon="3.15907">
        <ele>446.39624</ele>
        <time>2011-09-01T08:42:49Z</time>
      </trkpt>
      <trkpt lat="45.68634" lon="3.1589">
        <ele>447.345001</ele>
        <time>2011-09-01T08:42:53Z</time>
      </trkpt>
      <trkpt lat="45.68635" lon="3.15876">
        <ele>448.132507</ele>
        <time>2011-09-01T08:42:57Z</time>
      </trkpt>
      <trkpt lat="45.68634" lon="3.1586">
        <ele>449.222504</ele>
        <time>2011-09-01T08:43:01Z</time>
      </trkpt>
      <trkpt lat="45.68635" lon="3.15844">
        <ele>450.077484</ele>
        <time>2011-09-01T08:43:06Z</time>
      </trkpt>
      <trkpt lat="45.68635" lon="3.15829">
        <ele>450.972504</ele>
        <time>2011-09-01T08:43:11Z</time>
      </trkpt>
      <trkpt lat="45.68636" lon="3.1581">
        <ele>451.65625</ele>
        <time>2011-09-01T08:43:16Z</time>
      </trkpt>
      <trkpt lat="45.6864" lon="3.15793">
        <ele>451.957489</ele>
        <time>2011-09-01T08:43:21Z</time>
      </trkpt>
      <trkpt lat="45.68644" lon="3.15779">
        <ele>451.941254</ele>
        <time>2011-09-01T08:43:26Z</time>
      </trkpt>
      <trkpt lat="45.68645" lon="3.15757">
        <ele>452.315002</ele>
        <time>2011-09-01T08:43:32Z</time>
      </trkpt>
      <trkpt lat="45.68644" lon="3.1574">
        <ele>452.691254</ele>
        <time>2011-09-01T08:43:36Z</time>
      </trkpt>
      <trkpt lat="45.68643" lon="3.15719">
        <ele>453.137512</ele>
        <time>2011-09-01T08:43:42Z</time>
      </trkpt>
      <trkpt lat="45.68642" lon="3.15698">
        <ele>453.505005</ele>
        <time>2011-09-01T08:43:48Z</time>
      </trkpt>
      <trkpt lat="45.68643" lon="3.15679">
        <ele>453.452515</ele>
        <time>2011-09-01T08:43:52Z</time>
      </trkpt>
      <trkpt lat="45.68642" lon="3.15661">
        <ele>453.505005</ele>
        <time>2011-09-01T08:43:56Z</time>
      </trkpt>
      <trkpt lat="45.68638" lon="3.15642">
        <ele>454.207489</ele>
        <time>2011-09-01T08:44:00Z</time>
      </trkpt>
      <trkpt lat="45.68635" lon="3.15626">
        <ele>454.401245</ele>
        <time>2011-09-01T08:44:04Z</time>
      </trkpt>
      <trkpt lat="45.68631" lon="3.15608">
        <ele>454.747498</ele>
        <time>2011-09-01T08:44:08Z</time>
      </trkpt>
      <trkpt lat="45.68628" lon="3.15592">
        <ele>455.027496</ele>
        <time>2011-09-01T08:44:12Z</time>
      </trkpt>
      <trkpt lat="45.68625" lon="3.15576">
        <ele>455.223755</ele>
        <time>2011-09-01T08:44:16Z</time>
      </trkpt>
      <trkpt lat="45.68622" lon="3.15561">
        <ele>455.445007</ele>
        <time>2011-09-01T08:44:20Z</time>
      </trkpt>
      <trkpt lat="45.68619" lon="3.15545">
        <ele>455.622498</ele>
        <time>2011-09-01T08:44:24Z</time>
      </trkpt>
      <trkpt lat="45.68616" lon="3.15527">
        <ele>455.952484</ele>
        <time>2011-09-01T08:44:28Z</time>
      </trkpt>
      <trkpt lat="45.68612" lon="3.15513">
        <ele>456.252502</ele>
        <time>2011-09-01T08:44:31Z</time>
      </trkpt>
      <trkpt lat="45.68608" lon="3.15496">
        <ele>456.396606</ele>
        <time>2011-09-01T08:44:35Z</time>
      </trkpt>
      <trkpt lat="45.68604" lon="3.1548">
        <ele>456.54248</ele>
        <time>2011-09-01T08:44:39Z</time>
      </trkpt>
      <trkpt lat="45.68602" lon="3.15466">
        <ele>456.47464</ele>
        <time>2011-09-01T08:44:43Z</time>
      </trkpt>
      <trkpt lat="45.68594" lon="3.15456">
        <ele>457.259766</ele>
        <time>2011-09-01T08:44:47Z</time>
      </trkpt>
      <trkpt lat="45.68584" lon="3.15453">
        <ele>458.842499</ele>
        <time>2011-09-01T08:44:51Z</time>
      </trkpt>
      <trkpt lat="45.68573" lon="3.15455">
        <ele>460.543396</ele>
        <time>2011-09-01T08:44:55Z</time>
      </trkpt>
      <trkpt lat="45.68564" lon="3.1545">
        <ele>461.852509</ele>
        <time>2011-09-01T08:44:59Z</time>
      </trkpt>
      <trkpt lat="45.68561" lon="3.15438">
        <ele>462.285126</ele>
        <time>2011-09-01T08:45:03Z</time>
      </trkpt>
      <trkpt lat="45.68557" lon="3.15421">
        <ele>462.66684</ele>
        <time>2011-09-01T08:45:07Z</time>
      </trkpt>
      <trkpt lat="45.68556" lon="3.15408">
        <ele>462.585449</ele>
        <time>2011-09-01T08:45:10Z</time>
      </trkpt>
      <trkpt lat="45.68555" lon="3.15395">
        <ele>462.568726</ele>
        <time>2011-09-01T08:45:13Z</time>
      </trkpt>
      <trkpt lat="45.68551" lon="3.15378">
        <ele>462.755005</ele>
        <time>2011-09-01T08:45:17Z</time>
      </trkpt>
      <trkpt lat="45.68548" lon="3.15362">
        <ele>462.665009</ele>
        <time>2011-09-01T08:45:21Z</time>
      </trkpt>
      <trkpt lat="45.68547" lon="3.15345">
        <ele>462.3125</ele>
        <time>2011-09-01T08:45:25Z</time>
      </trkpt>
      <trkpt lat="45.68546" lon="3.1533">
        <ele>462.13501</ele>
        <time>2011-09-01T08:45:29Z</time>
      </trkpt>
      <trkpt lat="45.68542" lon="3.15312">
        <ele>462.292511</ele>
        <time>2011-09-01T08:45:33Z</time>
      </trkpt>
      <trkpt lat="45.68539" lon="3.15295">
        <ele>462.574982</ele>
        <time>2011-09-01T08:45:37Z</time>
      </trkpt>
      <trkpt lat="45.68535" lon="3.15279">
        <ele>462.959991</ele>
        <time>2011-09-01T08:45:41Z</time>
      </trkpt>
      <trkpt lat="45.68531" lon="3.15264">
        <ele>463.39624</ele>
        <time>2011-09-01T08:45:45Z</time>
      </trkpt>
      <trkpt lat="45.68522" lon="3.15258">
        <ele>464.683533</ele>
        <time>2011-09-01T08:45:48Z</time>
      </trkpt>
      <trkpt lat="45.68512" lon="3.15256">
        <ele>465.869537</ele>
        <time>2011-09-01T08:45:51Z</time>
      </trkpt>
      <trkpt lat="45.68502" lon="3.15256">
        <ele>467.250153</ele>
        <time>2011-09-01T08:45:55Z</time>
      </trkpt>
      <trkpt lat="45.68491" lon="3.15258">
        <ele>468.790497</ele>
        <time>2011-09-01T08:45:59Z</time>
      </trkpt>
      <trkpt lat="45.68482" lon="3.1526">
        <ele>470.070007</ele>
        <time>2011-09-01T08:46:03Z</time>
      </trkpt>
      <trkpt lat="45.68476" lon="3.15261">
        <ele>470.945007</ele>
        <time>2011-09-01T08:46:36Z</time>
      </trkpt>
      <trkpt lat="45.68465" lon="3.15263">
        <ele>472.393738</ele>
        <time>2011-09-01T08:46:41Z</time>
      </trkpt>
      <trkpt lat="45.68455" lon="3.15265">
        <ele>473.766235</ele>
        <time>2011-09-01T08:46:45Z</time>
      </trkpt>
      <trkpt lat="45.68444" lon="3.15267">
        <ele>475.255005</ele>
        <time>2011-09-01T08:46:50Z</time>
      </trkpt>
      <trkpt lat="45.68433" lon="3.15268">
        <ele>476.70874</ele>
        <time>2011-09-01T08:46:54Z</time>
      </trkpt>
      <trkpt lat="45.68423" lon="3.1527">
        <ele>477.853058</ele>
        <time>2011-09-01T08:46:58Z</time>
      </trkpt>
      <trkpt lat="45.68411" lon="3.15273">
        <ele>479.087463</ele>
        <time>2011-09-01T08:47:03Z</time>
      </trkpt>
      <trkpt lat="45.68402" lon="3.15275">
        <ele>480.096313</ele>
        <time>2011-09-01T08:47:07Z</time>
      </trkpt>
      <trkpt lat="45.68392" lon="3.15276">
        <ele>481.152618</ele>
        <time>2011-09-01T08:47:11Z</time>
      </trkpt>
      <trkpt lat="45.6838" lon="3.15273">
        <ele>482.134155</ele>
        <time>2011-09-01T08:47:15Z</time>
      </trkpt>
      <trkpt lat="45.68369" lon="3.15267">
        <ele>482.86084</ele>
        <time>2011-09-01T08:47:20Z</time>
      </trkpt>
      <trkpt lat="45.68355" lon="3.15259">
        <ele>483.741577</ele>
        <time>2011-09-01T08:47:25Z</time>
      </trkpt>
      <trkpt lat="45.68344" lon="3.15256">
        <ele>484.476257</ele>
        <time>2011-09-01T08:47:29Z</time>
      </trkpt>
      <trkpt lat="45.68332" lon="3.15253">
        <ele>485.149231</ele>
        <time>2011-09-01T08:47:33Z</time>
      </trkpt>
      <trkpt lat="45.6832" lon="3.1525">
        <ele>485.480927</ele>
        <time>2011-09-01T08:47:37Z</time>
      </trkpt>
      <trkpt lat="45.68307" lon="3.15247">
        <ele>486.062012</ele>
        <time>2011-09-01T08:47:41Z</time>
      </trkpt>
      <trkpt lat="45.68297" lon="3.15246">
        <ele>486.555267</ele>
        <time>2011-09-01T08:47:45Z</time>
      </trkpt>
      <trkpt lat="45.68284" lon="3.15243">
        <ele>487.279999</ele>
        <time>2011-09-01T08:47:50Z</time>
      </trkpt>
      <trkpt lat="45.68273" lon="3.15241">
        <ele>488.079987</ele>
        <time>2011-09-01T08:47:54Z</time>
      </trkpt>
      <trkpt lat="45.68261" lon="3.15239">
        <ele>488.950012</ele>
        <time>2011-09-01T08:47:58Z</time>
      </trkpt>
      <trkpt lat="45.68251" lon="3.15238">
        <ele>489.690002</ele>
        <time>2011-09-01T08:48:02Z</time>
      </trkpt>
      <trkpt lat="45.6824" lon="3.15236">
        <ele>490.721863</ele>
        <time>2011-09-01T08:48:06Z</time>
      </trkpt>
      <trkpt lat="45.68229" lon="3.15234">
        <ele>491.828369</ele>
        <time>2011-09-01T08:48:10Z</time>
      </trkpt>
      <trkpt lat="45.6822" lon="3.15223">
        <ele>491.680481</ele>
        <time>2011-09-01T08:48:14Z</time>
      </trkpt>
      <trkpt lat="45.68212" lon="3.15208">
        <ele>490.930298</ele>
        <time>2011-09-01T08:48:18Z</time>
      </trkpt>
      <trkpt lat="45.68208" lon="3.15195">
        <ele>490.022247</ele>
        <time>2011-09-01T08:48:22Z</time>
      </trkpt>
      <trkpt lat="45.68207" lon="3.1518">
        <ele>489.089233</ele>
        <time>2011-09-01T08:48:26Z</time>
      </trkpt>
      <trkpt lat="45.68205" lon="3.15166">
        <ele>488.537018</ele>
        <time>2011-09-01T08:48:30Z</time>
      </trkpt>
      <trkpt lat="45.68201" lon="3.1515">
        <ele>488.177002</ele>
        <time>2011-09-01T08:48:34Z</time>
      </trkpt>
      <trkpt lat="45.68197" lon="3.15133">
        <ele>487.594269</ele>
        <time>2011-09-01T08:48:38Z</time>
      </trkpt>
      <trkpt lat="45.68192" lon="3.15117">
        <ele>487.85498</ele>
        <time>2011-09-01T08:48:42Z</time>
      </trkpt>
      <trkpt lat="45.68187" lon="3.15103">
        <ele>488.419281</ele>
        <time>2011-09-01T08:48:46Z</time>
      </trkpt>
      <trkpt lat="45.68185" lon="3.15088">
        <ele>488.522156</ele>
        <time>2011-09-01T08:48:50Z</time>
      </trkpt>
      <trkpt lat="45.68189" lon="3.15074">
        <ele>488.057556</ele>
        <time>2011-09-01T08:48:54Z</time>
      </trkpt>
      <trkpt lat="45.68195" lon="3.15066">
        <ele>487.251099</ele>
        <time>2011-09-01T08:48:57Z</time>
      </trkpt>
      <trkpt lat="45.68204" lon="3.15055">
        <ele>486.552277</ele>
        <time>2011-09-01T08:49:01Z</time>
      </trkpt>
      <trkpt lat="45.68211" lon="3.15046">
        <ele>485.771912</ele>
        <time>2011-09-01T08:49:05Z</time>
      </trkpt>
      <trkpt lat="45.68218" lon="3.15035">
        <ele>485.04184</ele>
        <time>2011-09-01T08:49:08Z</time>
      </trkpt>
      <trkpt lat="45.68224" lon="3.15021">
        <ele>484.388031</ele>
        <time>2011-09-01T08:49:12Z</time>
      </trkpt>
      <trkpt lat="45.68226" lon="3.15006">
        <ele>484.495728</ele>
        <time>2011-09-01T08:49:16Z</time>
      </trkpt>
      <trkpt lat="45.68231" lon="3.14992">
        <ele>483.701447</ele>
        <time>2011-09-01T08:49:20Z</time>
      </trkpt>
      <trkpt lat="45.68237" lon="3.14978">
        <ele>482.479767</ele>
        <time>2011-09-01T08:49:24Z</time>
      </trkpt>
      <trkpt lat="45.68242" lon="3.14964">
        <ele>481.590454</ele>
        <time>2011-09-01T08:49:28Z</time>
      </trkpt>
      <trkpt lat="45.68241" lon="3.14949">
        <ele>481.676361</ele>
        <time>2011-09-01T08:49:32Z</time>
      </trkpt>
      <trkpt lat="45.68233" lon="3.14935">
        <ele>482.633759</ele>
        <time>2011-09-01T08:49:36Z</time>
      </trkpt>
      <trkpt lat="45.68225" lon="3.14926">
        <ele>483.379852</ele>
        <time>2011-09-01T08:49:40Z</time>
      </trkpt>
      <trkpt lat="45.68222" lon="3.14912">
        <ele>483.09967</ele>
        <time>2011-09-01T08:49:44Z</time>
      </trkpt>
      <trkpt lat="45.68224" lon="3.14898">
        <ele>482.432617</ele>
        <time>2011-09-01T08:49:48Z</time>
      </trkpt>
      <trkpt lat="45.68228" lon="3.14884">
        <ele>481.842957</ele>
        <time>2011-09-01T08:49:52Z</time>
      </trkpt>
      <trkpt lat="45.68229" lon="3.14869">
        <ele>481.238403</ele>
        <time>2011-09-01T08:49:59Z</time>
      </trkpt>
      <trkpt lat="45.68232" lon="3.14856">
        <ele>479.596954</ele>
        <time>2011-09-01T08:50:07Z</time>
      </trkpt>
      <trkpt lat="45.6823" lon="3.14841">
        <ele>477.600311</ele>
        <time>2011-09-01T08:50:20Z</time>
      </trkpt>
      <trkpt lat="45.68229" lon="3.14824">
        <ele>475.33905</ele>
        <time>2011-09-01T08:50:28Z</time>
      </trkpt>
      <trkpt lat="45.68231" lon="3.1481">
        <ele>473.457764</ele>
        <time>2011-09-01T08:50:35Z</time>
      </trkpt>
      <trkpt lat="45.68234" lon="3.14796">
        <ele>471.206604</ele>
        <time>2011-09-01T08:50:45Z</time>
      </trkpt>
      <trkpt lat="45.68244" lon="3.14785">
        <ele>469.53363</ele>
        <time>2011-09-01T08:50:53Z</time>
      </trkpt>
      <trkpt lat="45.6824" lon="3.14767">
        <ele>466.164093</ele>
        <time>2011-09-01T08:51:35Z</time>
      </trkpt>
      <trkpt lat="45.6823" lon="3.14763">
        <ele>465.165771</ele>
        <time>2011-09-01T08:51:44Z</time>
      </trkpt>
      <trkpt lat="45.68218" lon="3.14765">
        <ele>465.192932</ele>
        <time>2011-09-01T08:51:48Z</time>
      </trkpt>
      <trkpt lat="45.68208" lon="3.14766">
        <ele>465.085754</ele>
        <time>2011-09-01T08:51:52Z</time>
      </trkpt>
      <trkpt lat="45.68195" lon="3.14766">
        <ele>465.428284</ele>
        <time>2011-09-01T08:51:56Z</time>
      </trkpt>
      <trkpt lat="45.68184" lon="3.1477">
        <ele>466.129333</ele>
        <time>2011-09-01T08:52:00Z</time>
      </trkpt>
      <trkpt lat="45.68175" lon="3.14772">
        <ele>466.655884</ele>
        <time>2011-09-01T08:52:04Z</time>
      </trkpt>
      <trkpt lat="45.68163" lon="3.14775">
        <ele>467.329681</ele>
        <time>2011-09-01T08:52:08Z</time>
      </trkpt>
      <trkpt lat="45.68153" lon="3.14776">
        <ele>467.565735</ele>
        <time>2011-09-01T08:52:12Z</time>
      </trkpt>
      <trkpt lat="45.68143" lon="3.14776">
        <ele>467.698456</ele>
        <time>2011-09-01T08:52:16Z</time>
      </trkpt>
      <trkpt lat="45.68133" lon="3.14777">
        <ele>468.007263</ele>
        <time>2011-09-01T08:52:20Z</time>
      </trkpt>
      <trkpt lat="45.68124" lon="3.14777">
        <ele>468.046356</ele>
        <time>2011-09-01T08:52:23Z</time>
      </trkpt>
      <trkpt lat="45.68111" lon="3.14777">
        <ele>467.917877</ele>
        <time>2011-09-01T08:52:27Z</time>
      </trkpt>
      <trkpt lat="45.681" lon="3.14779">
        <ele>467.998962</ele>
        <time>2011-09-01T08:52:31Z</time>
      </trkpt>
      <trkpt lat="45.68091" lon="3.14785">
        <ele>468.37381</ele>
        <time>2011-09-01T08:52:35Z</time>
      </trkpt>
      <trkpt lat="45.68081" lon="3.1479">
        <ele>468.73703</ele>
        <time>2011-09-01T08:52:39Z</time>
      </trkpt>
      <trkpt lat="45.68072" lon="3.148">
        <ele>469.406464</ele>
        <time>2011-09-01T08:52:43Z</time>
      </trkpt>
      <trkpt lat="45.68064" lon="3.14813">
        <ele>470.170898</ele>
        <time>2011-09-01T08:52:47Z</time>
      </trkpt>
      <trkpt lat="45.68057" lon="3.14826">
        <ele>471.157593</ele>
        <time>2011-09-01T08:52:51Z</time>
      </trkpt>
      <trkpt lat="45.6805" lon="3.14834">
        <ele>471.508392</ele>
        <time>2011-09-01T08:52:55Z</time>
      </trkpt>
      <trkpt lat="45.68048" lon="3.14819">
        <ele>469.613342</ele>
        <time>2011-09-01T08:53:01Z</time>
      </trkpt>
      <trkpt lat="45.68046" lon="3.14804">
        <ele>467.584564</ele>
        <time>2011-09-01T08:53:07Z</time>
      </trkpt>
      <trkpt lat="45.68045" lon="3.14789">
        <ele>466.122711</ele>
        <time>2011-09-01T08:53:13Z</time>
      </trkpt>
      <trkpt lat="45.68043" lon="3.14773">
        <ele>464.622131</ele>
        <time>2011-09-01T08:53:19Z</time>
      </trkpt>
      <trkpt lat="45.68041" lon="3.14758">
        <ele>463.106049</ele>
        <time>2011-09-01T08:53:25Z</time>
      </trkpt>
      <trkpt lat="45.68038" lon="3.14742">
        <ele>461.605591</ele>
        <time>2011-09-01T08:53:31Z</time>
      </trkpt>
      <trkpt lat="45.68037" lon="3.14727">
        <ele>459.96048</ele>
        <time>2011-09-01T08:53:37Z</time>
      </trkpt>
      <trkpt lat="45.68037" lon="3.1471">
        <ele>458.003021</ele>
        <time>2011-09-01T08:53:41Z</time>
      </trkpt>
      <trkpt lat="45.68036" lon="3.14693">
        <ele>456.081909</ele>
        <time>2011-09-01T08:53:45Z</time>
      </trkpt>
      <trkpt lat="45.68036" lon="3.14678">
        <ele>454.327606</ele>
        <time>2011-09-01T08:53:49Z</time>
      </trkpt>
      <trkpt lat="45.68033" lon="3.1466">
        <ele>452.599884</ele>
        <time>2011-09-01T08:53:53Z</time>
      </trkpt>
      <trkpt lat="45.6803" lon="3.14643">
        <ele>450.987488</ele>
        <time>2011-09-01T08:53:57Z</time>
      </trkpt>
      <trkpt lat="45.68026" lon="3.14629">
        <ele>449.554291</ele>
        <time>2011-09-01T08:54:00Z</time>
      </trkpt>
      <trkpt lat="45.68024" lon="3.14615">
        <ele>448.133606</ele>
        <time>2011-09-01T08:54:03Z</time>
      </trkpt>
      <trkpt lat="45.68022" lon="3.14598">
        <ele>446.345428</ele>
        <time>2011-09-01T08:54:07Z</time>
      </trkpt>
      <trkpt lat="45.68019" lon="3.14582">
        <ele>444.569702</ele>
        <time>2011-09-01T08:54:11Z</time>
      </trkpt>
      <trkpt lat="45.68012" lon="3.14571">
        <ele>443.383087</ele>
        <time>2011-09-01T08:54:15Z</time>
      </trkpt>
      <trkpt lat="45.68001" lon="3.14571">
        <ele>443.216492</ele>
        <time>2011-09-01T08:54:18Z</time>
      </trkpt>
      <trkpt lat="45.67992" lon="3.14574">
        <ele>443.314362</ele>
        <time>2011-09-01T08:54:20Z</time>
      </trkpt>
      <trkpt lat="45.67982" lon="3.14581">
        <ele>443.344116</ele>
        <time>2011-09-01T08:54:22Z</time>
      </trkpt>
      <trkpt lat="45.67974" lon="3.14591">
        <ele>443.181824</ele>
        <time>2011-09-01T08:54:24Z</time>
      </trkpt>
      <trkpt lat="45.67965" lon="3.14601">
        <ele>443.044464</ele>
        <time>2011-09-01T08:54:26Z</time>
      </trkpt>
      <trkpt lat="45.67957" lon="3.14612">
        <ele>443.07251</ele>
        <time>2011-09-01T08:54:28Z</time>
      </trkpt>
      <trkpt lat="45.67947" lon="3.14623">
        <ele>443.200012</ele>
        <time>2011-09-01T08:54:30Z</time>
      </trkpt>
      <trkpt lat="45.67936" lon="3.14632">
        <ele>442.878204</ele>
        <time>2011-09-01T08:54:32Z</time>
      </trkpt>
      <trkpt lat="45.67924" lon="3.14642">
        <ele>441.947906</ele>
        <time>2011-09-01T08:54:34Z</time>
      </trkpt>
      <trkpt lat="45.67913" lon="3.14652">
        <ele>441.13266</ele>
        <time>2011-09-01T08:54:36Z</time>
      </trkpt>
      <trkpt lat="45.67902" lon="3.14665">
        <ele>440.670959</ele>
        <time>2011-09-01T08:54:38Z</time>
      </trkpt>
      <trkpt lat="45.67894" lon="3.14676">
        <ele>440.144623</ele>
        <time>2011-09-01T08:54:40Z</time>
      </trkpt>
      <trkpt lat="45.67884" lon="3.14686">
        <ele>439.294617</ele>
        <time>2011-09-01T08:54:42Z</time>
      </trkpt>
      <trkpt lat="45.67873" lon="3.14698">
        <ele>438.431519</ele>
        <time>2011-09-01T08:54:44Z</time>
      </trkpt>
      <trkpt lat="45.67863" lon="3.14707">
        <ele>437.332672</ele>
        <time>2011-09-01T08:54:46Z</time>
      </trkpt>
      <trkpt lat="45.67853" lon="3.14717">
        <ele>436.12616</ele>
        <time>2011-09-01T08:54:48Z</time>
      </trkpt>
      <trkpt lat="45.67843" lon="3.14727">
        <ele>435.418854</ele>
        <time>2011-09-01T08:54:50Z</time>
      </trkpt>
      <trkpt lat="45.67833" lon="3.14738">
        <ele>434.958313</ele>
        <time>2011-09-01T08:54:52Z</time>
      </trkpt>
      <trkpt lat="45.67822" lon="3.14749">
        <ele>434.288971</ele>
        <time>2011-09-01T08:54:54Z</time>
      </trkpt>
      <trkpt lat="45.67811" lon="3.14758">
        <ele>433.37439</ele>
        <time>2011-09-01T08:54:56Z</time>
      </trkpt>
      <trkpt lat="45.678" lon="3.14766">
        <ele>432.529999</ele>
        <time>2011-09-01T08:54:58Z</time>
      </trkpt>
      <trkpt lat="45.67791" lon="3.14777">
        <ele>432.125</ele>
        <time>2011-09-01T08:55:00Z</time>
      </trkpt>
      <trkpt lat="45.6778" lon="3.14788">
        <ele>431.657501</ele>
        <time>2011-09-01T08:55:02Z</time>
      </trkpt>
      <trkpt lat="45.6777" lon="3.14797">
        <ele>431.079987</ele>
        <time>2011-09-01T08:55:04Z</time>
      </trkpt>
      <trkpt lat="45.67759" lon="3.14805">
        <ele>430.383148</ele>
        <time>2011-09-01T08:55:06Z</time>
      </trkpt>
      <trkpt lat="45.67748" lon="3.14814">
        <ele>430.207489</ele>
        <time>2011-09-01T08:55:08Z</time>
      </trkpt>
      <trkpt lat="45.67737" lon="3.14824">
        <ele>430.077484</ele>
        <time>2011-09-01T08:55:10Z</time>
      </trkpt>
      <trkpt lat="45.67725" lon="3.14832">
        <ele>429.795013</ele>
        <time>2011-09-01T08:55:12Z</time>
      </trkpt>
      <trkpt lat="45.67713" lon="3.14836">
        <ele>429.332733</ele>
        <time>2011-09-01T08:55:14Z</time>
      </trkpt>
      <trkpt lat="45.677" lon="3.14836">
        <ele>429.191772</ele>
        <time>2011-09-01T08:55:16Z</time>
      </trkpt>
      <trkpt lat="45.67687" lon="3.14831">
        <ele>428.766907</ele>
        <time>2011-09-01T08:55:18Z</time>
      </trkpt>
      <trkpt lat="45.67675" lon="3.14829">
        <ele>428.452423</ele>
        <time>2011-09-01T08:55:20Z</time>
      </trkpt>
      <trkpt lat="45.67664" lon="3.14827">
        <ele>428.11496</ele>
        <time>2011-09-01T08:55:22Z</time>
      </trkpt>
      <trkpt lat="45.6765" lon="3.14824">
        <ele>427.531525</ele>
        <time>2011-09-01T08:55:24Z</time>
      </trkpt>
      <trkpt lat="45.67639" lon="3.14821">
        <ele>426.9552</ele>
        <time>2011-09-01T08:55:26Z</time>
      </trkpt>
      <trkpt lat="45.67627" lon="3.14818">
        <ele>426.336853</ele>
        <time>2011-09-01T08:55:28Z</time>
      </trkpt>
      <trkpt lat="45.67614" lon="3.14815">
        <ele>425.57251</ele>
        <time>2011-09-01T08:55:30Z</time>
      </trkpt>
      <trkpt lat="45.67602" lon="3.14813">
        <ele>424.744995</ele>
        <time>2011-09-01T08:55:32Z</time>
      </trkpt>
      <trkpt lat="45.67589" lon="3.14809">
        <ele>423.834991</ele>
        <time>2011-09-01T08:55:34Z</time>
      </trkpt>
      <trkpt lat="45.67575" lon="3.14805">
        <ele>422.782501</ele>
        <time>2011-09-01T08:55:36Z</time>
      </trkpt>
      <trkpt lat="45.67561" lon="3.14802">
        <ele>421.737488</ele>
        <time>2011-09-01T08:55:38Z</time>
      </trkpt>
      <trkpt lat="45.67547" lon="3.14798">
        <ele>420.816254</ele>
        <time>2011-09-01T08:55:40Z</time>
      </trkpt>
      <trkpt lat="45.67534" lon="3.14795">
        <ele>419.895325</ele>
        <time>2011-09-01T08:55:42Z</time>
      </trkpt>
      <trkpt lat="45.67523" lon="3.14792">
        <ele>419.588867</ele>
        <time>2011-09-01T08:55:44Z</time>
      </trkpt>
      <trkpt lat="45.6751" lon="3.14788">
        <ele>419.119415</ele>
        <time>2011-09-01T08:55:46Z</time>
      </trkpt>
      <trkpt lat="45.67498" lon="3.14785">
        <ele>418.647919</ele>
        <time>2011-09-01T08:55:48Z</time>
      </trkpt>
      <trkpt lat="45.67487" lon="3.14783">
        <ele>418.284302</ele>
        <time>2011-09-01T08:55:50Z</time>
      </trkpt>
      <trkpt lat="45.67478" lon="3.14782">
        <ele>418.022797</ele>
        <time>2011-09-01T08:55:52Z</time>
      </trkpt>
      <trkpt lat="45.67468" lon="3.14779">
        <ele>417.671722</ele>
        <time>2011-09-01T08:55:54Z</time>
      </trkpt>
      <trkpt lat="45.67459" lon="3.14778">
        <ele>417.466217</ele>
        <time>2011-09-01T08:55:57Z</time>
      </trkpt>
      <trkpt lat="45.67454" lon="3.14786">
        <ele>418.630798</ele>
        <time>2011-09-01T08:56:03Z</time>
      </trkpt>
      <trkpt lat="45.67453" lon="3.14804">
        <ele>421.307983</ele>
        <time>2011-09-01T08:56:12Z</time>
      </trkpt>
      <trkpt lat="45.67444" lon="3.14808">
        <ele>422.020508</ele>
        <time>2011-09-01T08:56:20Z</time>
      </trkpt>
      <trkpt lat="45.6743" lon="3.14794">
        <ele>420.79718</ele>
        <time>2011-09-01T08:56:25Z</time>
      </trkpt>
      <trkpt lat="45.67419" lon="3.14783">
        <ele>419.559143</ele>
        <time>2011-09-01T08:56:29Z</time>
      </trkpt>
      <trkpt lat="45.67412" lon="3.14773">
        <ele>418.197876</ele>
        <time>2011-09-01T08:56:33Z</time>
      </trkpt>
      <trkpt lat="45.67403" lon="3.14762">
        <ele>416.424866</ele>
        <time>2011-09-01T08:56:39Z</time>
      </trkpt>
      <trkpt lat="45.67392" lon="3.1475">
        <ele>414.35611</ele>
        <time>2011-09-01T08:56:44Z</time>
      </trkpt>
      <trkpt lat="45.67379" lon="3.14739">
        <ele>412.525238</ele>
        <time>2011-09-01T08:56:48Z</time>
      </trkpt>
      <trkpt lat="45.67371" lon="3.1473">
        <ele>410.686005</ele>
        <time>2011-09-01T08:56:51Z</time>
      </trkpt>
      <trkpt lat="45.67359" lon="3.14719">
        <ele>409.809204</ele>
        <time>2011-09-01T08:56:54Z</time>
      </trkpt>
      <trkpt lat="45.67353" lon="3.14713">
        <ele>409.292297</ele>
        <time>2011-09-01T08:56:57Z</time>
      </trkpt>
      <trkpt lat="45.67342" lon="3.14705">
        <ele>409.046143</ele>
        <time>2011-09-01T08:57:00Z</time>
      </trkpt>
      <trkpt lat="45.67334" lon="3.14702">
        <ele>409.083435</ele>
        <time>2011-09-01T08:57:03Z</time>
      </trkpt>
      <trkpt lat="45.67323" lon="3.14699">
        <ele>409.285126</ele>
        <time>2011-09-01T08:57:06Z</time>
      </trkpt>
      <trkpt lat="45.6731" lon="3.14699">
        <ele>409.89679</ele>
        <time>2011-09-01T08:57:10Z</time>
      </trkpt>
      <trkpt lat="45.67299" lon="3.14699">
        <ele>410.260315</ele>
        <time>2011-09-01T08:57:13Z</time>
      </trkpt>
      <trkpt lat="45.67287" lon="3.14698">
        <ele>410.3302</ele>
        <time>2011-09-01T08:57:16Z</time>
      </trkpt>
      <trkpt lat="45.67277" lon="3.14697">
        <ele>410.45755</ele>
        <time>2011-09-01T08:57:19Z</time>
      </trkpt>
      <trkpt lat="45.67269" lon="3.14697">
        <ele>410.697388</ele>
        <time>2011-09-01T08:57:21Z</time>
      </trkpt>
      <trkpt lat="45.67258" lon="3.14697">
        <ele>410.818756</ele>
        <time>2011-09-01T08:57:23Z</time>
      </trkpt>
      <trkpt lat="45.67247" lon="3.14698">
        <ele>410.987488</ele>
        <time>2011-09-01T08:57:25Z</time>
      </trkpt>
      <trkpt lat="45.67236" lon="3.14699">
        <ele>411.212494</ele>
        <time>2011-09-01T08:57:27Z</time>
      </trkpt>
      <trkpt lat="45.67225" lon="3.147">
        <ele>411.568756</ele>
        <time>2011-09-01T08:57:29Z</time>
      </trkpt>
      <trkpt lat="45.67214" lon="3.14701">
        <ele>411.773315</ele>
        <time>2011-09-01T08:57:31Z</time>
      </trkpt>
      <trkpt lat="45.67202" lon="3.14701">
        <ele>411.769012</ele>
        <time>2011-09-01T08:57:33Z</time>
      </trkpt>
      <trkpt lat="45.67191" lon="3.14701">
        <ele>411.607025</ele>
        <time>2011-09-01T08:57:35Z</time>
      </trkpt>
      <trkpt lat="45.67181" lon="3.14701">
        <ele>411.554688</ele>
        <time>2011-09-01T08:57:37Z</time>
      </trkpt>
      <trkpt lat="45.67169" lon="3.147">
        <ele>410.926971</ele>
        <time>2011-09-01T08:57:39Z</time>
      </trkpt>
      <trkpt lat="45.67155" lon="3.14698">
        <ele>409.696777</ele>
        <time>2011-09-01T08:57:41Z</time>
      </trkpt>
      <trkpt lat="45.67142" lon="3.14697">
        <ele>408.745972</ele>
        <time>2011-09-01T08:57:43Z</time>
      </trkpt>
      <trkpt lat="45.6713" lon="3.14697">
        <ele>407.953735</ele>
        <time>2011-09-01T08:57:45Z</time>
      </trkpt>
      <trkpt lat="45.67115" lon="3.14696">
        <ele>407.14624</ele>
        <time>2011-09-01T08:57:47Z</time>
      </trkpt>
      <trkpt lat="45.67102" lon="3.14696">
        <ele>406.364319</ele>
        <time>2011-09-01T08:57:49Z</time>
      </trkpt>
      <trkpt lat="45.67091" lon="3.14696">
        <ele>405.704895</ele>
        <time>2011-09-01T08:57:51Z</time>
      </trkpt>
      <trkpt lat="45.6708" lon="3.14694">
        <ele>404.880676</ele>
        <time>2011-09-01T08:57:53Z</time>
      </trkpt>
      <trkpt lat="45.67069" lon="3.14693">
        <ele>404.390564</ele>
        <time>2011-09-01T08:57:55Z</time>
      </trkpt>
      <trkpt lat="45.67055" lon="3.1469">
        <ele>403.65976</ele>
        <time>2011-09-01T08:57:57Z</time>
      </trkpt>
      <trkpt lat="45.67042" lon="3.14689">
        <ele>403.073151</ele>
        <time>2011-09-01T08:57:59Z</time>
      </trkpt>
      <trkpt lat="45.6703" lon="3.14688">
        <ele>402.947174</ele>
        <time>2011-09-01T08:58:01Z</time>
      </trkpt>
      <trkpt lat="45.67018" lon="3.14686">
        <ele>402.918457</ele>
        <time>2011-09-01T08:58:03Z</time>
      </trkpt>
      <trkpt lat="45.67006" lon="3.14684">
        <ele>402.88501</ele>
        <time>2011-09-01T08:58:05Z</time>
      </trkpt>
      <trkpt lat="45.66995" lon="3.14683">
        <ele>402.878387</ele>
        <time>2011-09-01T08:58:07Z</time>
      </trkpt>
      <trkpt lat="45.66983" lon="3.14682">
        <ele>403.635559</ele>
        <time>2011-09-01T08:58:09Z</time>
      </trkpt>
      <trkpt lat="45.66971" lon="3.14681">
        <ele>404.385925</ele>
        <time>2011-09-01T08:58:11Z</time>
      </trkpt>
      <trkpt lat="45.6696" lon="3.14679">
        <ele>405.014832</ele>
        <time>2011-09-01T08:58:13Z</time>
      </trkpt>
      <trkpt lat="45.66951" lon="3.14679">
        <ele>405.643463</ele>
        <time>2011-09-01T08:58:15Z</time>
      </trkpt>
      <trkpt lat="45.66942" lon="3.14679">
        <ele>405.650787</ele>
        <time>2011-09-01T08:58:18Z</time>
      </trkpt>
      <trkpt lat="45.66931" lon="3.14674">
        <ele>404.786407</ele>
        <time>2011-09-01T08:58:22Z</time>
      </trkpt>
      <trkpt lat="45.66921" lon="3.14673">
        <ele>404.545471</ele>
        <time>2011-09-01T08:58:26Z</time>
      </trkpt>
      <trkpt lat="45.66911" lon="3.14671">
        <ele>404.281006</ele>
        <time>2011-09-01T08:58:30Z</time>
      </trkpt>
      <trkpt lat="45.66899" lon="3.1467">
        <ele>403.116882</ele>
        <time>2011-09-01T08:58:34Z</time>
      </trkpt>
      <trkpt lat="45.66888" lon="3.14667">
        <ele>401.152985</ele>
        <time>2011-09-01T08:58:37Z</time>
      </trkpt>
      <trkpt lat="45.66877" lon="3.14666">
        <ele>399.327271</ele>
        <time>2011-09-01T08:58:40Z</time>
      </trkpt>
      <trkpt lat="45.66868" lon="3.14666">
        <ele>397.718048</ele>
        <time>2011-09-01T08:58:43Z</time>
      </trkpt>
      <trkpt lat="45.66855" lon="3.14664">
        <ele>395.593811</ele>
        <time>2011-09-01T08:58:47Z</time>
      </trkpt>
      <trkpt lat="45.66846" lon="3.14657">
        <ele>393.855011</ele>
        <time>2011-09-01T08:58:51Z</time>
      </trkpt>
      <trkpt lat="45.66848" lon="3.14636">
        <ele>393.440002</ele>
        <time>2011-09-01T08:58:54Z</time>
      </trkpt>
      <trkpt lat="45.66851" lon="3.14621">
        <ele>393.467499</ele>
        <time>2011-09-01T08:58:56Z</time>
      </trkpt>
      <trkpt lat="45.66854" lon="3.14604">
        <ele>393.265015</ele>
        <time>2011-09-01T08:58:58Z</time>
      </trkpt>
      <trkpt lat="45.66856" lon="3.14587">
        <ele>392.890503</ele>
        <time>2011-09-01T08:59:00Z</time>
      </trkpt>
      <trkpt lat="45.66858" lon="3.14572">
        <ele>392.282318</ele>
        <time>2011-09-01T08:59:02Z</time>
      </trkpt>
      <trkpt lat="45.66861" lon="3.14555">
        <ele>391.612488</ele>
        <time>2011-09-01T08:59:04Z</time>
      </trkpt>
      <trkpt lat="45.66863" lon="3.1454">
        <ele>390.69751</ele>
        <time>2011-09-01T08:59:06Z</time>
      </trkpt>
      <trkpt lat="45.66865" lon="3.14525">
        <ele>389.714996</ele>
        <time>2011-09-01T08:59:08Z</time>
      </trkpt>
      <trkpt lat="45.66866" lon="3.1451">
        <ele>388.588745</ele>
        <time>2011-09-01T08:59:10Z</time>
      </trkpt>
      <trkpt lat="45.66869" lon="3.14496">
        <ele>387.581238</ele>
        <time>2011-09-01T08:59:12Z</time>
      </trkpt>
      <trkpt lat="45.6687" lon="3.14478">
        <ele>386.206238</ele>
        <time>2011-09-01T08:59:15Z</time>
      </trkpt>
      <trkpt lat="45.66871" lon="3.14464">
        <ele>385.125092</ele>
        <time>2011-09-01T08:59:18Z</time>
      </trkpt>
      <trkpt lat="45.66872" lon="3.1445">
        <ele>384.289093</ele>
        <time>2011-09-01T08:59:22Z</time>
      </trkpt>
      <trkpt lat="45.66874" lon="3.14436">
        <ele>383.527222</ele>
        <time>2011-09-01T08:59:28Z</time>
      </trkpt>
      <trkpt lat="45.66872" lon="3.14422">
        <ele>382.64386</ele>
        <time>2011-09-01T08:59:35Z</time>
      </trkpt>
      <trkpt lat="45.66858" lon="3.14418">
        <ele>381.817963</ele>
        <time>2011-09-01T08:59:42Z</time>
      </trkpt>
      <trkpt lat="45.66846" lon="3.1442">
        <ele>381.291107</ele>
        <time>2011-09-01T08:59:48Z</time>
      </trkpt>
      <trkpt lat="45.66836" lon="3.14424">
        <ele>380.886383</ele>
        <time>2011-09-01T08:59:51Z</time>
      </trkpt>
      <trkpt lat="45.66827" lon="3.14434">
        <ele>380.714813</ele>
        <time>2011-09-01T08:59:54Z</time>
      </trkpt>
      <trkpt lat="45.66821" lon="3.14448">
        <ele>380.87149</ele>
        <time>2011-09-01T08:59:57Z</time>
      </trkpt>
      <trkpt lat="45.66817" lon="3.14464">
        <ele>381.074371</ele>
        <time>2011-09-01T09:00:00Z</time>
      </trkpt>
      <trkpt lat="45.66813" lon="3.14477">
        <ele>381.230713</ele>
        <time>2011-09-01T09:00:03Z</time>
      </trkpt>
      <trkpt lat="45.66808" lon="3.14492">
        <ele>381.28595</ele>
        <time>2011-09-01T09:00:06Z</time>
      </trkpt>
      <trkpt lat="45.66802" lon="3.14507">
        <ele>381.168427</ele>
        <time>2011-09-01T09:00:09Z</time>
      </trkpt>
      <trkpt lat="45.66795" lon="3.14522">
        <ele>380.605286</ele>
        <time>2011-09-01T09:00:12Z</time>
      </trkpt>
      <trkpt lat="45.66789" lon="3.14536">
        <ele>380.123596</ele>
        <time>2011-09-01T09:00:14Z</time>
      </trkpt>
      <trkpt lat="45.66783" lon="3.14551">
        <ele>379.681671</ele>
        <time>2011-09-01T09:00:16Z</time>
      </trkpt>
      <trkpt lat="45.66776" lon="3.14563">
        <ele>378.957672</ele>
        <time>2011-09-01T09:00:18Z</time>
      </trkpt>
      <trkpt lat="45.66769" lon="3.14577">
        <ele>378.403015</ele>
        <time>2011-09-01T09:00:20Z</time>
      </trkpt>
      <trkpt lat="45.66763" lon="3.14591">
        <ele>378.141571</ele>
        <time>2011-09-01T09:00:22Z</time>
      </trkpt>
      <trkpt lat="45.66757" lon="3.14605">
        <ele>377.778259</ele>
        <time>2011-09-01T09:00:24Z</time>
      </trkpt>
      <trkpt lat="45.66751" lon="3.14618">
        <ele>377.270935</ele>
        <time>2011-09-01T09:00:26Z</time>
      </trkpt>
      <trkpt lat="45.66745" lon="3.14632">
        <ele>376.7612</ele>
        <time>2011-09-01T09:00:28Z</time>
      </trkpt>
      <trkpt lat="45.6674" lon="3.14644">
        <ele>376.155548</ele>
        <time>2011-09-01T09:00:30Z</time>
      </trkpt>
      <trkpt lat="45.66735" lon="3.14656">
        <ele>375.540009</ele>
        <time>2011-09-01T09:00:32Z</time>
      </trkpt>
      <trkpt lat="45.6673" lon="3.14668">
        <ele>374.787506</ele>
        <time>2011-09-01T09:00:34Z</time>
      </trkpt>
      <trkpt lat="45.66723" lon="3.14681">
        <ele>373.880005</ele>
        <time>2011-09-01T09:00:37Z</time>
      </trkpt>
      <trkpt lat="45.66717" lon="3.1469">
        <ele>373.269989</ele>
        <time>2011-09-01T09:00:40Z</time>
      </trkpt>
      <trkpt lat="45.66709" lon="3.14697">
        <ele>372.589996</ele>
        <time>2011-09-01T09:00:46Z</time>
      </trkpt>
      <trkpt lat="45.66703" lon="3.14709">
        <ele>372.049988</ele>
        <time>2011-09-01T09:00:54Z</time>
      </trkpt>
      <trkpt lat="45.66702" lon="3.14727">
        <ele>371.970367</ele>
        <time>2011-09-01T09:01:01Z</time>
      </trkpt>
      <trkpt lat="45.66702" lon="3.14742">
        <ele>371.811707</ele>
        <time>2011-09-01T09:01:07Z</time>
      </trkpt>
      <trkpt lat="45.667" lon="3.14756">
        <ele>371.580109</ele>
        <time>2011-09-01T09:01:14Z</time>
      </trkpt>
      <trkpt lat="45.66689" lon="3.14756">
        <ele>370.755432</ele>
        <time>2011-09-01T09:01:22Z</time>
      </trkpt>
      <trkpt lat="45.66686" lon="3.1477">
        <ele>370.465088</ele>
        <time>2011-09-01T09:01:32Z</time>
      </trkpt>
      <trkpt lat="45.66688" lon="3.14785">
        <ele>370.595947</ele>
        <time>2011-09-01T09:01:40Z</time>
      </trkpt>
      <trkpt lat="45.66689" lon="3.14804">
        <ele>370.727936</ele>
        <time>2011-09-01T09:01:52Z</time>
      </trkpt>
      <trkpt lat="45.66688" lon="3.14827">
        <ele>370.772003</ele>
        <time>2011-09-01T09:02:04Z</time>
      </trkpt>
      <trkpt lat="45.66691" lon="3.14847">
        <ele>371.107239</ele>
        <time>2011-09-01T09:02:13Z</time>
      </trkpt>
      <trkpt lat="45.66692" lon="3.14866">
        <ele>371.190002</ele>
        <time>2011-09-01T09:02:20Z</time>
      </trkpt>
      <trkpt lat="45.66693" lon="3.14882">
        <ele>371.339996</ele>
        <time>2011-09-01T09:02:24Z</time>
      </trkpt>
      <trkpt lat="45.66694" lon="3.14902">
        <ele>371.440002</ele>
        <time>2011-09-01T09:02:28Z</time>
      </trkpt>
      <trkpt lat="45.66691" lon="3.1492">
        <ele>371.121765</ele>
        <time>2011-09-01T09:02:31Z</time>
      </trkpt>
      <trkpt lat="45.6669" lon="3.14938">
        <ele>370.847992</ele>
        <time>2011-09-01T09:02:33Z</time>
      </trkpt>
      <trkpt lat="45.66688" lon="3.14955">
        <ele>370.506195</ele>
        <time>2011-09-01T09:02:35Z</time>
      </trkpt>
      <trkpt lat="45.66686" lon="3.14972">
        <ele>370.190369</ele>
        <time>2011-09-01T09:02:37Z</time>
      </trkpt>
      <trkpt lat="45.66686" lon="3.14993">
        <ele>370.173279</ele>
        <time>2011-09-01T09:02:39Z</time>
      </trkpt>
      <trkpt lat="45.66686" lon="3.15009">
        <ele>370.318542</ele>
        <time>2011-09-01T09:02:41Z</time>
      </trkpt>
      <trkpt lat="45.66689" lon="3.15026">
        <ele>370.712585</ele>
        <time>2011-09-01T09:02:43Z</time>
      </trkpt>
      <trkpt lat="45.66688" lon="3.15043">
        <ele>370.779999</ele>
        <time>2011-09-01T09:02:45Z</time>
      </trkpt>
      <trkpt lat="45.66686" lon="3.15061">
        <ele>370.687408</ele>
        <time>2011-09-01T09:02:47Z</time>
      </trkpt>
      <trkpt lat="45.66685" lon="3.15081">
        <ele>370.775574</ele>
        <time>2011-09-01T09:02:49Z</time>
      </trkpt>
      <trkpt lat="45.66685" lon="3.151">
        <ele>370.995331</ele>
        <time>2011-09-01T09:02:51Z</time>
      </trkpt>
      <trkpt lat="45.66685" lon="3.15117">
        <ele>370.893738</ele>
        <time>2011-09-01T09:02:53Z</time>
      </trkpt>
      <trkpt lat="45.66685" lon="3.15137">
        <ele>370.578735</ele>
        <time>2011-09-01T09:02:55Z</time>
      </trkpt>
      <trkpt lat="45.66684" lon="3.15155">
        <ele>370.248749</ele>
        <time>2011-09-01T09:02:57Z</time>
      </trkpt>
      <trkpt lat="45.66685" lon="3.15172">
        <ele>370.102783</ele>
        <time>2011-09-01T09:02:59Z</time>
      </trkpt>
      <trkpt lat="45.66687" lon="3.1519">
        <ele>370.022797</ele>
        <time>2011-09-01T09:03:01Z</time>
      </trkpt>
      <trkpt lat="45.66689" lon="3.15206">
        <ele>370.010193</ele>
        <time>2011-09-01T09:03:03Z</time>
      </trkpt>
      <trkpt lat="45.66691" lon="3.15222">
        <ele>369.906525</ele>
        <time>2011-09-01T09:03:05Z</time>
      </trkpt>
      <trkpt lat="45.66693" lon="3.15241">
        <ele>369.875427</ele>
        <time>2011-09-01T09:03:07Z</time>
      </trkpt>
      <trkpt lat="45.66695" lon="3.15259">
        <ele>369.985718</ele>
        <time>2011-09-01T09:03:09Z</time>
      </trkpt>
      <trkpt lat="45.66696" lon="3.15278">
        <ele>369.980286</ele>
        <time>2011-09-01T09:03:11Z</time>
      </trkpt>
      <trkpt lat="45.66697" lon="3.15298">
        <ele>369.895844</ele>
        <time>2011-09-01T09:03:13Z</time>
      </trkpt>
      <trkpt lat="45.66697" lon="3.15319">
        <ele>369.778137</ele>
        <time>2011-09-01T09:03:15Z</time>
      </trkpt>
      <trkpt lat="45.66697" lon="3.15339">
        <ele>369.618195</ele>
        <time>2011-09-01T09:03:17Z</time>
      </trkpt>
      <trkpt lat="45.66697" lon="3.15357">
        <ele>369.50827</ele>
        <time>2011-09-01T09:03:19Z</time>
      </trkpt>
      <trkpt lat="45.66697" lon="3.15375">
        <ele>369.268738</ele>
        <time>2011-09-01T09:03:21Z</time>
      </trkpt>
      <trkpt lat="45.66698" lon="3.15392">
        <ele>369.089996</ele>
        <time>2011-09-01T09:03:23Z</time>
      </trkpt>
      <trkpt lat="45.66701" lon="3.15409">
        <ele>369.013763</ele>
        <time>2011-09-01T09:03:25Z</time>
      </trkpt>
      <trkpt lat="45.66703" lon="3.15426">
        <ele>368.90564</ele>
        <time>2011-09-01T09:03:27Z</time>
      </trkpt>
      <trkpt lat="45.66705" lon="3.15442">
        <ele>368.623749</ele>
        <time>2011-09-01T09:03:29Z</time>
      </trkpt>
      <trkpt lat="45.66707" lon="3.15458">
        <ele>368.34375</ele>
        <time>2011-09-01T09:03:31Z</time>
      </trkpt>
      <trkpt lat="45.66709" lon="3.15474">
        <ele>367.980438</ele>
        <time>2011-09-01T09:03:33Z</time>
      </trkpt>
      <trkpt lat="45.66711" lon="3.1549">
        <ele>367.627045</ele>
        <time>2011-09-01T09:03:35Z</time>
      </trkpt>
      <trkpt lat="45.66712" lon="3.15506">
        <ele>367.399811</ele>
        <time>2011-09-01T09:03:37Z</time>
      </trkpt>
      <trkpt lat="45.66715" lon="3.15522">
        <ele>367.260559</ele>
        <time>2011-09-01T09:03:39Z</time>
      </trkpt>
      <trkpt lat="45.66717" lon="3.1554">
        <ele>367.133514</ele>
        <time>2011-09-01T09:03:41Z</time>
      </trkpt>
      <trkpt lat="45.6672" lon="3.15556">
        <ele>367.059998</ele>
        <time>2011-09-01T09:03:43Z</time>
      </trkpt>
      <trkpt lat="45.66722" lon="3.15574">
        <ele>366.737488</ele>
        <time>2011-09-01T09:03:45Z</time>
      </trkpt>
      <trkpt lat="45.66725" lon="3.15592">
        <ele>366.440002</ele>
        <time>2011-09-01T09:03:47Z</time>
      </trkpt>
      <trkpt lat="45.66729" lon="3.15609">
        <ele>366.242493</ele>
        <time>2011-09-01T09:03:49Z</time>
      </trkpt>
      <trkpt lat="45.66733" lon="3.15625">
        <ele>366.345062</ele>
        <time>2011-09-01T09:03:51Z</time>
      </trkpt>
      <trkpt lat="45.66739" lon="3.1564">
        <ele>366.688782</ele>
        <time>2011-09-01T09:03:53Z</time>
      </trkpt>
      <trkpt lat="45.66744" lon="3.15654">
        <ele>367.021179</ele>
        <time>2011-09-01T09:03:55Z</time>
      </trkpt>
      <trkpt lat="45.6675" lon="3.15669">
        <ele>367.308563</ele>
        <time>2011-09-01T09:03:58Z</time>
      </trkpt>
      <trkpt lat="45.66752" lon="3.15682">
        <ele>367.331024</ele>
        <time>2011-09-01T09:04:01Z</time>
      </trkpt>
      <trkpt lat="45.66745" lon="3.15689">
        <ele>366.801666</ele>
        <time>2011-09-01T09:04:06Z</time>
      </trkpt>
      <trkpt lat="45.66731" lon="3.15673">
        <ele>365.969788</ele>
        <time>2011-09-01T09:04:10Z</time>
      </trkpt>
      <trkpt lat="45.66724" lon="3.15663">
        <ele>365.49649</ele>
        <time>2011-09-01T09:04:14Z</time>
      </trkpt>
      <trkpt lat="45.66719" lon="3.15653">
        <ele>365.069061</ele>
        <time>2011-09-01T09:04:18Z</time>
      </trkpt>
      <trkpt lat="45.66713" lon="3.15645">
        <ele>364.769989</ele>
        <time>2011-09-01T09:04:22Z</time>
      </trkpt>
      <trkpt lat="45.66702" lon="3.15634">
        <ele>364.285004</ele>
        <time>2011-09-01T09:04:27Z</time>
      </trkpt>
      <trkpt lat="45.66693" lon="3.15626">
        <ele>363.899994</ele>
        <time>2011-09-01T09:04:31Z</time>
      </trkpt>
      <trkpt lat="45.66679" lon="3.15622">
        <ele>363.279999</ele>
        <time>2011-09-01T09:04:36Z</time>
      </trkpt>
      <trkpt lat="45.66669" lon="3.15619">
        <ele>363</ele>
        <time>2011-09-01T09:04:42Z</time>
      </trkpt>
      <trkpt lat="45.66655" lon="3.15623">
        <ele>363</ele>
        <time>2011-09-01T09:04:52Z</time>
      </trkpt>
      <trkpt lat="45.66647" lon="3.15634">
        <ele>363</ele>
        <time>2011-09-01T09:04:57Z</time>
      </trkpt>
      <trkpt lat="45.66636" lon="3.1564">
        <ele>363</ele>
        <time>2011-09-01T09:05:02Z</time>
      </trkpt>
      <trkpt lat="45.66629" lon="3.15651">
        <ele>363</ele>
        <time>2011-09-01T09:05:07Z</time>
      </trkpt>
      <trkpt lat="45.66621" lon="3.15666">
        <ele>363.037811</ele>
        <time>2011-09-01T09:05:12Z</time>
      </trkpt>
      <trkpt lat="45.66613" lon="3.15675">
        <ele>363.027008</ele>
        <time>2011-09-01T09:05:16Z</time>
      </trkpt>
      <trkpt lat="45.66606" lon="3.1569">
        <ele>362.925537</ele>
        <time>2011-09-01T09:05:21Z</time>
      </trkpt>
      <trkpt lat="45.66598" lon="3.15702">
        <ele>362.88446</ele>
        <time>2011-09-01T09:05:26Z</time>
      </trkpt>
      <trkpt lat="45.66587" lon="3.1571">
        <ele>362.950073</ele>
        <time>2011-09-01T09:05:30Z</time>
      </trkpt>
      <trkpt lat="45.66579" lon="3.15722">
        <ele>363.082489</ele>
        <time>2011-09-01T09:05:34Z</time>
      </trkpt>
      <trkpt lat="45.66568" lon="3.1573">
        <ele>363.309998</ele>
        <time>2011-09-01T09:05:38Z</time>
      </trkpt>
      <trkpt lat="45.66555" lon="3.15729">
        <ele>363.597504</ele>
        <time>2011-09-01T09:05:42Z</time>
      </trkpt>
      <trkpt lat="45.66542" lon="3.15728">
        <ele>363.892487</ele>
        <time>2011-09-01T09:05:46Z</time>
      </trkpt>
      <trkpt lat="45.66531" lon="3.15732">
        <ele>364.144989</ele>
        <time>2011-09-01T09:05:50Z</time>
      </trkpt>
      <trkpt lat="45.66524" lon="3.15744">
        <ele>364.285004</ele>
        <time>2011-09-01T09:05:54Z</time>
      </trkpt>
      <trkpt lat="45.66519" lon="3.15758">
        <ele>364.179993</ele>
        <time>2011-09-01T09:05:58Z</time>
      </trkpt>
      <trkpt lat="45.66511" lon="3.1577">
        <ele>364.170013</ele>
        <time>2011-09-01T09:06:02Z</time>
      </trkpt>
      <trkpt lat="45.66504" lon="3.15784">
        <ele>364.100006</ele>
        <time>2011-09-01T09:06:06Z</time>
      </trkpt>
      <trkpt lat="45.66493" lon="3.15793">
        <ele>364.202515</ele>
        <time>2011-09-01T09:06:10Z</time>
      </trkpt>
      <trkpt lat="45.66486" lon="3.15802">
        <ele>364.328064</ele>
        <time>2011-09-01T09:06:14Z</time>
      </trkpt>
      <trkpt lat="45.66476" lon="3.15811">
        <ele>364.690002</ele>
        <time>2011-09-01T09:06:19Z</time>
      </trkpt>
      <trkpt lat="45.66466" lon="3.1582">
        <ele>365.160004</ele>
        <time>2011-09-01T09:06:24Z</time>
      </trkpt>
      <trkpt lat="45.66456" lon="3.15827">
        <ele>365.589996</ele>
        <time>2011-09-01T09:06:36Z</time>
      </trkpt>
      <trkpt lat="45.66447" lon="3.15836">
        <ele>365.954987</ele>
        <time>2011-09-01T09:06:43Z</time>
      </trkpt>
      <trkpt lat="45.66436" lon="3.15842">
        <ele>366.222504</ele>
        <time>2011-09-01T09:06:50Z</time>
      </trkpt>
      <trkpt lat="45.66425" lon="3.15849">
        <ele>366.472504</ele>
        <time>2011-09-01T09:06:54Z</time>
      </trkpt>
      <trkpt lat="45.66416" lon="3.15854">
        <ele>366.665009</ele>
        <time>2011-09-01T09:06:57Z</time>
      </trkpt>
      <trkpt lat="45.66405" lon="3.15859">
        <ele>366.920013</ele>
        <time>2011-09-01T09:07:01Z</time>
      </trkpt>
      <trkpt lat="45.66395" lon="3.15864">
        <ele>367.404999</ele>
        <time>2011-09-01T09:07:05Z</time>
      </trkpt>
      <trkpt lat="45.66384" lon="3.15871">
        <ele>368.132507</ele>
        <time>2011-09-01T09:07:09Z</time>
      </trkpt>
      <trkpt lat="45.66375" lon="3.15875">
        <ele>368.777496</ele>
        <time>2011-09-01T09:07:12Z</time>
      </trkpt>
      <trkpt lat="45.66363" lon="3.15884">
        <ele>369.549988</ele>
        <time>2011-09-01T09:07:15Z</time>
      </trkpt>
      <trkpt lat="45.66353" lon="3.1589">
        <ele>370.287506</ele>
        <time>2011-09-01T09:07:17Z</time>
      </trkpt>
      <trkpt lat="45.66343" lon="3.15895">
        <ele>371.424988</ele>
        <time>2011-09-01T09:07:19Z</time>
      </trkpt>
      <trkpt lat="45.66333" lon="3.15901">
        <ele>372.575012</ele>
        <time>2011-09-01T09:07:21Z</time>
      </trkpt>
      <trkpt lat="45.66322" lon="3.15906">
        <ele>373.762512</ele>
        <time>2011-09-01T09:07:23Z</time>
      </trkpt>
      <trkpt lat="45.66312" lon="3.15911">
        <ele>374.924988</ele>
        <time>2011-09-01T09:07:25Z</time>
      </trkpt>
      <trkpt lat="45.66301" lon="3.15917">
        <ele>376.049988</ele>
        <time>2011-09-01T09:07:27Z</time>
      </trkpt>
      <trkpt lat="45.66292" lon="3.15923">
        <ele>377.125</ele>
        <time>2011-09-01T09:07:29Z</time>
      </trkpt>
      <trkpt lat="45.66282" lon="3.15929">
        <ele>378.200012</ele>
        <time>2011-09-01T09:07:31Z</time>
      </trkpt>
      <trkpt lat="45.66273" lon="3.15935">
        <ele>379.200012</ele>
        <time>2011-09-01T09:07:33Z</time>
      </trkpt>
      <trkpt lat="45.66264" lon="3.15941">
        <ele>380.23999</ele>
        <time>2011-09-01T09:07:35Z</time>
      </trkpt>
      <trkpt lat="45.66255" lon="3.15945">
        <ele>381.394989</ele>
        <time>2011-09-01T09:07:37Z</time>
      </trkpt>
      <trkpt lat="45.66244" lon="3.15952">
        <ele>382.910004</ele>
        <time>2011-09-01T09:07:40Z</time>
      </trkpt>
      <trkpt lat="45.66232" lon="3.15959">
        <ele>384.470001</ele>
        <time>2011-09-01T09:07:43Z</time>
      </trkpt>
      <trkpt lat="45.66222" lon="3.15964">
        <ele>385.820007</ele>
        <time>2011-09-01T09:07:46Z</time>
      </trkpt>
      <trkpt lat="45.66218" lon="3.15948">
        <ele>386.200012</ele>
        <time>2011-09-01T09:07:50Z</time>
      </trkpt>
      <trkpt lat="45.66218" lon="3.15935">
        <ele>386.290009</ele>
        <time>2011-09-01T09:07:53Z</time>
      </trkpt>
      <trkpt lat="45.66218" lon="3.15922">
        <ele>386.299988</ele>
        <time>2011-09-01T09:07:56Z</time>
      </trkpt>
      <trkpt lat="45.66216" lon="3.15903">
        <ele>386.470001</ele>
        <time>2011-09-01T09:07:59Z</time>
      </trkpt>
      <trkpt lat="45.66214" lon="3.15889">
        <ele>386.619995</ele>
        <time>2011-09-01T09:08:01Z</time>
      </trkpt>
      <trkpt lat="45.66213" lon="3.15875">
        <ele>386.730011</ele>
        <time>2011-09-01T09:08:03Z</time>
      </trkpt>
      <trkpt lat="45.66211" lon="3.1586">
        <ele>386.816681</ele>
        <time>2011-09-01T09:08:05Z</time>
      </trkpt>
      <trkpt lat="45.6621" lon="3.15846">
        <ele>386.743561</ele>
        <time>2011-09-01T09:08:07Z</time>
      </trkpt>
      <trkpt lat="45.66208" lon="3.15832">
        <ele>386.815887</ele>
        <time>2011-09-01T09:08:09Z</time>
      </trkpt>
      <trkpt lat="45.66206" lon="3.15818">
        <ele>386.913849</ele>
        <time>2011-09-01T09:08:11Z</time>
      </trkpt>
      <trkpt lat="45.66201" lon="3.15806">
        <ele>387.340729</ele>
        <time>2011-09-01T09:08:13Z</time>
      </trkpt>
      <trkpt lat="45.66189" lon="3.15801">
        <ele>388.621246</ele>
        <time>2011-09-01T09:08:15Z</time>
      </trkpt>
      <trkpt lat="45.66175" lon="3.158">
        <ele>390.109161</ele>
        <time>2011-09-01T09:08:17Z</time>
      </trkpt>
      <trkpt lat="45.66163" lon="3.15802">
        <ele>390.944824</ele>
        <time>2011-09-01T09:08:19Z</time>
      </trkpt>
      <trkpt lat="45.66152" lon="3.15804">
        <ele>391.672485</ele>
        <time>2011-09-01T09:08:21Z</time>
      </trkpt>
      <trkpt lat="45.66141" lon="3.15805">
        <ele>392.38501</ele>
        <time>2011-09-01T09:08:23Z</time>
      </trkpt>
      <trkpt lat="45.6613" lon="3.15806">
        <ele>393.037506</ele>
        <time>2011-09-01T09:08:25Z</time>
      </trkpt>
      <trkpt lat="45.66119" lon="3.15808">
        <ele>393.277496</ele>
        <time>2011-09-01T09:08:27Z</time>
      </trkpt>
      <trkpt lat="45.66108" lon="3.1581">
        <ele>393.527496</ele>
        <time>2011-09-01T09:08:29Z</time>
      </trkpt>
      <trkpt lat="45.66097" lon="3.15812">
        <ele>393.782501</ele>
        <time>2011-09-01T09:08:31Z</time>
      </trkpt>
      <trkpt lat="45.66084" lon="3.15813">
        <ele>394</ele>
        <time>2011-09-01T09:08:33Z</time>
      </trkpt>
      <trkpt lat="45.66073" lon="3.15814">
        <ele>394</ele>
        <time>2011-09-01T09:08:35Z</time>
      </trkpt>
      <trkpt lat="45.66062" lon="3.15816">
        <ele>394</ele>
        <time>2011-09-01T09:08:37Z</time>
      </trkpt>
      <trkpt lat="45.66051" lon="3.15818">
        <ele>394</ele>
        <time>2011-09-01T09:08:39Z</time>
      </trkpt>
      <trkpt lat="45.66041" lon="3.15821">
        <ele>394.019989</ele>
        <time>2011-09-01T09:08:41Z</time>
      </trkpt>
      <trkpt lat="45.6603" lon="3.15823">
        <ele>394.267487</ele>
        <time>2011-09-01T09:08:43Z</time>
      </trkpt>
      <trkpt lat="45.66019" lon="3.15825">
        <ele>394.512512</ele>
        <time>2011-09-01T09:08:45Z</time>
      </trkpt>
      <trkpt lat="45.66007" lon="3.15827">
        <ele>394.772491</ele>
        <time>2011-09-01T09:08:47Z</time>
      </trkpt>
      <trkpt lat="45.65995" lon="3.15828">
        <ele>395</ele>
        <time>2011-09-01T09:08:49Z</time>
      </trkpt>
      <trkpt lat="45.65983" lon="3.15829">
        <ele>395</ele>
        <time>2011-09-01T09:08:51Z</time>
      </trkpt>
      <trkpt lat="45.65971" lon="3.15831">
        <ele>395</ele>
        <time>2011-09-01T09:08:53Z</time>
      </trkpt>
      <trkpt lat="45.65959" lon="3.15832">
        <ele>395</ele>
        <time>2011-09-01T09:08:55Z</time>
      </trkpt>
      <trkpt lat="45.65948" lon="3.15833">
        <ele>394.96582</ele>
        <time>2011-09-01T09:08:57Z</time>
      </trkpt>
      <trkpt lat="45.65936" lon="3.15834">
        <ele>394.848969</ele>
        <time>2011-09-01T09:08:59Z</time>
      </trkpt>
      <trkpt lat="45.65925" lon="3.15836">
        <ele>394.755341</ele>
        <time>2011-09-01T09:09:01Z</time>
      </trkpt>
      <trkpt lat="45.65915" lon="3.15837">
        <ele>394.680023</ele>
        <time>2011-09-01T09:09:03Z</time>
      </trkpt>
      <trkpt lat="45.65904" lon="3.15839">
        <ele>394.426239</ele>
        <time>2011-09-01T09:09:06Z</time>
      </trkpt>
      <trkpt lat="45.65895" lon="3.15841">
        <ele>393.622498</ele>
        <time>2011-09-01T09:09:09Z</time>
      </trkpt>
      <trkpt lat="45.65886" lon="3.15841">
        <ele>392.845001</ele>
        <time>2011-09-01T09:09:12Z</time>
      </trkpt>
      <trkpt lat="45.65878" lon="3.15853">
        <ele>392.318756</ele>
        <time>2011-09-01T09:09:15Z</time>
      </trkpt>
      <trkpt lat="45.65874" lon="3.15867">
        <ele>392.119995</ele>
        <time>2011-09-01T09:09:17Z</time>
      </trkpt>
      <trkpt lat="45.6587" lon="3.15883">
        <ele>391.790009</ele>
        <time>2011-09-01T09:09:19Z</time>
      </trkpt>
      <trkpt lat="45.65867" lon="3.15899">
        <ele>391.48999</ele>
        <time>2011-09-01T09:09:21Z</time>
      </trkpt>
      <trkpt lat="45.65862" lon="3.15914">
        <ele>391.070007</ele>
        <time>2011-09-01T09:09:23Z</time>
      </trkpt>
      <trkpt lat="45.65857" lon="3.1593">
        <ele>390.519989</ele>
        <time>2011-09-01T09:09:25Z</time>
      </trkpt>
      <trkpt lat="45.65853" lon="3.15946">
        <ele>389.934998</ele>
        <time>2011-09-01T09:09:27Z</time>
      </trkpt>
      <trkpt lat="45.65848" lon="3.15964">
        <ele>389.36499</ele>
        <time>2011-09-01T09:09:29Z</time>
      </trkpt>
      <trkpt lat="45.65844" lon="3.15982">
        <ele>388.765015</ele>
        <time>2011-09-01T09:09:31Z</time>
      </trkpt>
      <trkpt lat="45.65839" lon="3.16">
        <ele>388.195007</ele>
        <time>2011-09-01T09:09:33Z</time>
      </trkpt>
      <trkpt lat="45.65835" lon="3.16018">
        <ele>387.625</ele>
        <time>2011-09-01T09:09:35Z</time>
      </trkpt>
      <trkpt lat="45.65831" lon="3.16036">
        <ele>387.084991</ele>
        <time>2011-09-01T09:09:37Z</time>
      </trkpt>
      <trkpt lat="45.65827" lon="3.16053">
        <ele>386.619995</ele>
        <time>2011-09-01T09:09:39Z</time>
      </trkpt>
      <trkpt lat="45.65824" lon="3.1607">
        <ele>385.91626</ele>
        <time>2011-09-01T09:09:41Z</time>
      </trkpt>
      <trkpt lat="45.6582" lon="3.16086">
        <ele>385.172485</ele>
        <time>2011-09-01T09:09:43Z</time>
      </trkpt>
      <trkpt lat="45.65816" lon="3.16102">
        <ele>384.431244</ele>
        <time>2011-09-01T09:09:45Z</time>
      </trkpt>
      <trkpt lat="45.65813" lon="3.16115">
        <ele>383.856995</ele>
        <time>2011-09-01T09:09:47Z</time>
      </trkpt>
      <trkpt lat="45.65809" lon="3.16129">
        <ele>383.540009</ele>
        <time>2011-09-01T09:09:49Z</time>
      </trkpt>
      <trkpt lat="45.65806" lon="3.16142">
        <ele>383.220001</ele>
        <time>2011-09-01T09:09:51Z</time>
      </trkpt>
      <trkpt lat="45.65801" lon="3.16158">
        <ele>382.820007</ele>
        <time>2011-09-01T09:09:53Z</time>
      </trkpt>
      <trkpt lat="45.65797" lon="3.16172">
        <ele>382.429993</ele>
        <time>2011-09-01T09:09:55Z</time>
      </trkpt>
      <trkpt lat="45.65792" lon="3.16186">
        <ele>382</ele>
        <time>2011-09-01T09:09:57Z</time>
      </trkpt>
      <trkpt lat="45.65787" lon="3.16201">
        <ele>381.630005</ele>
        <time>2011-09-01T09:09:59Z</time>
      </trkpt>
      <trkpt lat="45.65783" lon="3.16216">
        <ele>381.23999</ele>
        <time>2011-09-01T09:10:01Z</time>
      </trkpt>
      <trkpt lat="45.65778" lon="3.1623">
        <ele>380.839996</ele>
        <time>2011-09-01T09:10:03Z</time>
      </trkpt>
      <trkpt lat="45.65773" lon="3.16243">
        <ele>380.399994</ele>
        <time>2011-09-01T09:10:05Z</time>
      </trkpt>
      <trkpt lat="45.65768" lon="3.16257">
        <ele>380.339111</ele>
        <time>2011-09-01T09:10:07Z</time>
      </trkpt>
      <trkpt lat="45.65764" lon="3.16271">
        <ele>380.438263</ele>
        <time>2011-09-01T09:10:09Z</time>
      </trkpt>
      <trkpt lat="45.65759" lon="3.16285">
        <ele>380.515991</ele>
        <time>2011-09-01T09:10:11Z</time>
      </trkpt>
      <trkpt lat="45.65754" lon="3.16299">
        <ele>380.451447</ele>
        <time>2011-09-01T09:10:13Z</time>
      </trkpt>
      <trkpt lat="45.65749" lon="3.16312">
        <ele>380.369995</ele>
        <time>2011-09-01T09:10:15Z</time>
      </trkpt>
      <trkpt lat="45.65744" lon="3.16326">
        <ele>380.355011</ele>
        <time>2011-09-01T09:10:17Z</time>
      </trkpt>
      <trkpt lat="45.65739" lon="3.16339">
        <ele>380.32251</ele>
        <time>2011-09-01T09:10:19Z</time>
      </trkpt>
      <trkpt lat="45.65734" lon="3.16352">
        <ele>380.347504</ele>
        <time>2011-09-01T09:10:21Z</time>
      </trkpt>
      <trkpt lat="45.65729" lon="3.16365">
        <ele>380.332489</ele>
        <time>2011-09-01T09:10:24Z</time>
      </trkpt>
      <trkpt lat="45.65724" lon="3.16378">
        <ele>380.098572</ele>
        <time>2011-09-01T09:10:27Z</time>
      </trkpt>
      <trkpt lat="45.65718" lon="3.16394">
        <ele>379.650085</ele>
        <time>2011-09-01T09:10:30Z</time>
      </trkpt>
      <trkpt lat="45.65713" lon="3.16408">
        <ele>379.247742</ele>
        <time>2011-09-01T09:10:32Z</time>
      </trkpt>
      <trkpt lat="45.65708" lon="3.16421">
        <ele>378.763733</ele>
        <time>2011-09-01T09:10:34Z</time>
      </trkpt>
      <trkpt lat="45.65702" lon="3.16433">
        <ele>378.254883</ele>
        <time>2011-09-01T09:10:36Z</time>
      </trkpt>
      <trkpt lat="45.65697" lon="3.16448">
        <ele>377.790955</ele>
        <time>2011-09-01T09:10:39Z</time>
      </trkpt>
      <trkpt lat="45.65692" lon="3.16461">
        <ele>377.463104</ele>
        <time>2011-09-01T09:10:42Z</time>
      </trkpt>
      <trkpt lat="45.65687" lon="3.16474">
        <ele>376.972992</ele>
        <time>2011-09-01T09:10:46Z</time>
      </trkpt>
      <trkpt lat="45.65682" lon="3.16486">
        <ele>376.513031</ele>
        <time>2011-09-01T09:10:50Z</time>
      </trkpt>
      <trkpt lat="45.65677" lon="3.165">
        <ele>375.995117</ele>
        <time>2011-09-01T09:10:56Z</time>
      </trkpt>
      <trkpt lat="45.65672" lon="3.16514">
        <ele>376.100006</ele>
        <time>2011-09-01T09:11:00Z</time>
      </trkpt>
      <trkpt lat="45.65667" lon="3.16529">
        <ele>376.223755</ele>
        <time>2011-09-01T09:11:04Z</time>
      </trkpt>
      <trkpt lat="45.65662" lon="3.16543">
        <ele>376.34375</ele>
        <time>2011-09-01T09:11:08Z</time>
      </trkpt>
      <trkpt lat="45.65656" lon="3.16557">
        <ele>376.426239</ele>
        <time>2011-09-01T09:11:13Z</time>
      </trkpt>
      <trkpt lat="45.65652" lon="3.1657">
        <ele>376.670502</ele>
        <time>2011-09-01T09:11:17Z</time>
      </trkpt>
      <trkpt lat="45.65648" lon="3.16587">
        <ele>377.193573</ele>
        <time>2011-09-01T09:11:27Z</time>
      </trkpt>
      <trkpt lat="45.65643" lon="3.16601">
        <ele>377.568481</ele>
        <time>2011-09-01T09:11:34Z</time>
      </trkpt>
      <trkpt lat="45.65639" lon="3.16614">
        <ele>377.85791</ele>
        <time>2011-09-01T09:11:40Z</time>
      </trkpt>
      <trkpt lat="45.65637" lon="3.1663">
        <ele>378.305634</ele>
        <time>2011-09-01T09:11:47Z</time>
      </trkpt>
      <trkpt lat="45.65633" lon="3.16643">
        <ele>378.591705</ele>
        <time>2011-09-01T09:11:54Z</time>
      </trkpt>
      <trkpt lat="45.65624" lon="3.16653">
        <ele>378.569122</ele>
        <time>2011-09-01T09:12:00Z</time>
      </trkpt>
      <trkpt lat="45.65616" lon="3.1666">
        <ele>378.51416</ele>
        <time>2011-09-01T09:12:03Z</time>
      </trkpt>
      <trkpt lat="45.65606" lon="3.1667">
        <ele>378.397583</ele>
        <time>2011-09-01T09:12:07Z</time>
      </trkpt>
      <trkpt lat="45.65596" lon="3.16677">
        <ele>378.169769</ele>
        <time>2011-09-01T09:12:11Z</time>
      </trkpt>
      <trkpt lat="45.65584" lon="3.16684">
        <ele>377.877502</ele>
        <time>2011-09-01T09:12:15Z</time>
      </trkpt>
      <trkpt lat="45.65575" lon="3.1669">
        <ele>377.96875</ele>
        <time>2011-09-01T09:12:18Z</time>
      </trkpt>
      <trkpt lat="45.65566" lon="3.16697">
        <ele>378.136444</ele>
        <time>2011-09-01T09:12:21Z</time>
      </trkpt>
      <trkpt lat="45.65557" lon="3.16704">
        <ele>378.229431</ele>
        <time>2011-09-01T09:12:24Z</time>
      </trkpt>
      <trkpt lat="45.65549" lon="3.16711">
        <ele>378.179749</ele>
        <time>2011-09-01T09:12:27Z</time>
      </trkpt>
      <trkpt lat="45.6554" lon="3.16718">
        <ele>378.003143</ele>
        <time>2011-09-01T09:12:30Z</time>
      </trkpt>
      <trkpt lat="45.65532" lon="3.16725">
        <ele>377.8125</ele>
        <time>2011-09-01T09:12:34Z</time>
      </trkpt>
      <trkpt lat="45.65523" lon="3.16731">
        <ele>377.617493</ele>
        <time>2011-09-01T09:12:41Z</time>
      </trkpt>
      <trkpt lat="45.65522" lon="3.16746">
        <ele>377.595001</ele>
        <time>2011-09-01T09:12:49Z</time>
      </trkpt>
      <trkpt lat="45.65519" lon="3.1676">
        <ele>377.640503</ele>
        <time>2011-09-01T09:12:56Z</time>
      </trkpt>
      <trkpt lat="45.65512" lon="3.16771">
        <ele>377.529297</ele>
        <time>2011-09-01T09:13:01Z</time>
      </trkpt>
      <trkpt lat="45.65506" lon="3.16784">
        <ele>377.257111</ele>
        <time>2011-09-01T09:13:05Z</time>
      </trkpt>
      <trkpt lat="45.65512" lon="3.16799">
        <ele>377.76355</ele>
        <time>2011-09-01T09:13:08Z</time>
      </trkpt>
      <trkpt lat="45.65521" lon="3.16811">
        <ele>378.795593</ele>
        <time>2011-09-01T09:13:11Z</time>
      </trkpt>
      <trkpt lat="45.65529" lon="3.16821">
        <ele>379.98526</ele>
        <time>2011-09-01T09:13:13Z</time>
      </trkpt>
      <trkpt lat="45.65539" lon="3.16831">
        <ele>382.087708</ele>
        <time>2011-09-01T09:13:15Z</time>
      </trkpt>
      <trkpt lat="45.65547" lon="3.16844">
        <ele>384.872589</ele>
        <time>2011-09-01T09:13:17Z</time>
      </trkpt>
      <trkpt lat="45.65542" lon="3.16862">
        <ele>385.786865</ele>
        <time>2011-09-01T09:13:20Z</time>
      </trkpt>
      <trkpt lat="45.65536" lon="3.16869">
        <ele>385.065094</ele>
        <time>2011-09-01T09:13:22Z</time>
      </trkpt>
      <trkpt lat="45.65525" lon="3.16888">
        <ele>384.697021</ele>
        <time>2011-09-01T09:13:25Z</time>
      </trkpt>
      <trkpt lat="45.65517" lon="3.16901">
        <ele>384.662933</ele>
        <time>2011-09-01T09:13:27Z</time>
      </trkpt>
      <trkpt lat="45.65509" lon="3.16914">
        <ele>384.453064</ele>
        <time>2011-09-01T09:13:29Z</time>
      </trkpt>
      <trkpt lat="45.65501" lon="3.16929">
        <ele>384.030457</ele>
        <time>2011-09-01T09:13:31Z</time>
      </trkpt>
      <trkpt lat="45.65493" lon="3.16942">
        <ele>383.33194</ele>
        <time>2011-09-01T09:13:33Z</time>
      </trkpt>
      <trkpt lat="45.65485" lon="3.16955">
        <ele>383.695435</ele>
        <time>2011-09-01T09:13:35Z</time>
      </trkpt>
      <trkpt lat="45.65478" lon="3.16968">
        <ele>383.953369</ele>
        <time>2011-09-01T09:13:37Z</time>
      </trkpt>
      <trkpt lat="45.65471" lon="3.16982">
        <ele>384.049469</ele>
        <time>2011-09-01T09:13:39Z</time>
      </trkpt>
      <trkpt lat="45.65463" lon="3.16995">
        <ele>383.842651</ele>
        <time>2011-09-01T09:13:41Z</time>
      </trkpt>
      <trkpt lat="45.65456" lon="3.17008">
        <ele>383.444061</ele>
        <time>2011-09-01T09:13:43Z</time>
      </trkpt>
      <trkpt lat="45.65449" lon="3.17021">
        <ele>382.955078</ele>
        <time>2011-09-01T09:13:45Z</time>
      </trkpt>
      <trkpt lat="45.65443" lon="3.17035">
        <ele>382.804321</ele>
        <time>2011-09-01T09:13:47Z</time>
      </trkpt>
      <trkpt lat="45.65436" lon="3.17048">
        <ele>382.679535</ele>
        <time>2011-09-01T09:13:49Z</time>
      </trkpt>
      <trkpt lat="45.6543" lon="3.17059">
        <ele>382.438568</ele>
        <time>2011-09-01T09:13:51Z</time>
      </trkpt>
      <trkpt lat="45.65424" lon="3.17071">
        <ele>382.16861</ele>
        <time>2011-09-01T09:13:53Z</time>
      </trkpt>
      <trkpt lat="45.65417" lon="3.17082">
        <ele>381.972687</ele>
        <time>2011-09-01T09:13:55Z</time>
      </trkpt>
      <trkpt lat="45.6541" lon="3.17094">
        <ele>381.98822</ele>
        <time>2011-09-01T09:13:57Z</time>
      </trkpt>
      <trkpt lat="45.65403" lon="3.17106">
        <ele>382.014984</ele>
        <time>2011-09-01T09:13:59Z</time>
      </trkpt>
      <trkpt lat="45.65396" lon="3.17118">
        <ele>382.378784</ele>
        <time>2011-09-01T09:14:01Z</time>
      </trkpt>
      <trkpt lat="45.65389" lon="3.17129">
        <ele>382.52829</ele>
        <time>2011-09-01T09:14:03Z</time>
      </trkpt>
      <trkpt lat="45.65382" lon="3.17143">
        <ele>382.947998</ele>
        <time>2011-09-01T09:14:05Z</time>
      </trkpt>
      <trkpt lat="45.65375" lon="3.17156">
        <ele>383.65274</ele>
        <time>2011-09-01T09:14:07Z</time>
      </trkpt>
      <trkpt lat="45.65368" lon="3.17168">
        <ele>383.928894</ele>
        <time>2011-09-01T09:14:09Z</time>
      </trkpt>
      <trkpt lat="45.6536" lon="3.1718">
        <ele>384.085907</ele>
        <time>2011-09-01T09:14:11Z</time>
      </trkpt>
      <trkpt lat="45.65352" lon="3.17191">
        <ele>384.162415</ele>
        <time>2011-09-01T09:14:13Z</time>
      </trkpt>
      <trkpt lat="45.65344" lon="3.17201">
        <ele>383.986115</ele>
        <time>2011-09-01T09:14:15Z</time>
      </trkpt>
      <trkpt lat="45.65336" lon="3.17211">
        <ele>384.297516</ele>
        <time>2011-09-01T09:14:17Z</time>
      </trkpt>
      <trkpt lat="45.65329" lon="3.17222">
        <ele>384.61908</ele>
        <time>2011-09-01T09:14:19Z</time>
      </trkpt>
      <trkpt lat="45.6532" lon="3.17231">
        <ele>384.304779</ele>
        <time>2011-09-01T09:14:21Z</time>
      </trkpt>
      <trkpt lat="45.65312" lon="3.17241">
        <ele>383.984253</ele>
        <time>2011-09-01T09:14:23Z</time>
      </trkpt>
      <trkpt lat="45.65305" lon="3.17251">
        <ele>384.049744</ele>
        <time>2011-09-01T09:14:25Z</time>
      </trkpt>
      <trkpt lat="45.65297" lon="3.17261">
        <ele>383.745239</ele>
        <time>2011-09-01T09:14:27Z</time>
      </trkpt>
      <trkpt lat="45.6529" lon="3.17271">
        <ele>383.80365</ele>
        <time>2011-09-01T09:14:29Z</time>
      </trkpt>
      <trkpt lat="45.65283" lon="3.1728">
        <ele>383.728607</ele>
        <time>2011-09-01T09:14:31Z</time>
      </trkpt>
      <trkpt lat="45.65276" lon="3.17292">
        <ele>383.816406</ele>
        <time>2011-09-01T09:14:33Z</time>
      </trkpt>
      <trkpt lat="45.65269" lon="3.17302">
        <ele>383.55127</ele>
        <time>2011-09-01T09:14:35Z</time>
      </trkpt>
      <trkpt lat="45.65262" lon="3.17312">
        <ele>383.291809</ele>
        <time>2011-09-01T09:14:37Z</time>
      </trkpt>
      <trkpt lat="45.65255" lon="3.17323">
        <ele>383.048676</ele>
        <time>2011-09-01T09:14:39Z</time>
      </trkpt>
      <trkpt lat="45.65248" lon="3.17332">
        <ele>382.308075</ele>
        <time>2011-09-01T09:14:41Z</time>
      </trkpt>
      <trkpt lat="45.6524" lon="3.17343">
        <ele>381.496857</ele>
        <time>2011-09-01T09:14:43Z</time>
      </trkpt>
      <trkpt lat="45.65233" lon="3.17354">
        <ele>380.648041</ele>
        <time>2011-09-01T09:14:45Z</time>
      </trkpt>
      <trkpt lat="45.65226" lon="3.17366">
        <ele>379.785461</ele>
        <time>2011-09-01T09:14:47Z</time>
      </trkpt>
      <trkpt lat="45.65216" lon="3.17381">
        <ele>378.796448</ele>
        <time>2011-09-01T09:14:50Z</time>
      </trkpt>
      <trkpt lat="45.65205" lon="3.17398">
        <ele>378.53183</ele>
        <time>2011-09-01T09:14:53Z</time>
      </trkpt>
      <trkpt lat="45.65198" lon="3.1741">
        <ele>378.439056</ele>
        <time>2011-09-01T09:14:55Z</time>
      </trkpt>
      <trkpt lat="45.6519" lon="3.17421">
        <ele>378.123413</ele>
        <time>2011-09-01T09:14:57Z</time>
      </trkpt>
      <trkpt lat="45.65182" lon="3.17431">
        <ele>377.596802</ele>
        <time>2011-09-01T09:14:59Z</time>
      </trkpt>
      <trkpt lat="45.65175" lon="3.17443">
        <ele>377.233002</ele>
        <time>2011-09-01T09:15:01Z</time>
      </trkpt>
      <trkpt lat="45.65168" lon="3.17453">
        <ele>377.257172</ele>
        <time>2011-09-01T09:15:03Z</time>
      </trkpt>
      <trkpt lat="45.65162" lon="3.17463">
        <ele>377.419098</ele>
        <time>2011-09-01T09:15:05Z</time>
      </trkpt>
      <trkpt lat="45.65155" lon="3.17473">
        <ele>377.592194</ele>
        <time>2011-09-01T09:15:07Z</time>
      </trkpt>
      <trkpt lat="45.6515" lon="3.17486">
        <ele>377.8526</ele>
        <time>2011-09-01T09:15:09Z</time>
      </trkpt>
      <trkpt lat="45.65144" lon="3.17499">
        <ele>378.01239</ele>
        <time>2011-09-01T09:15:11Z</time>
      </trkpt>
      <trkpt lat="45.65138" lon="3.17512">
        <ele>377.927155</ele>
        <time>2011-09-01T09:15:13Z</time>
      </trkpt>
      <trkpt lat="45.65133" lon="3.17524">
        <ele>377.886932</ele>
        <time>2011-09-01T09:15:15Z</time>
      </trkpt>
      <trkpt lat="45.65127" lon="3.17536">
        <ele>378.100708</ele>
        <time>2011-09-01T09:15:17Z</time>
      </trkpt>
      <trkpt lat="45.65122" lon="3.17548">
        <ele>378.186951</ele>
        <time>2011-09-01T09:15:19Z</time>
      </trkpt>
      <trkpt lat="45.65117" lon="3.1756">
        <ele>378.300201</ele>
        <time>2011-09-01T09:15:21Z</time>
      </trkpt>
      <trkpt lat="45.6511" lon="3.17579">
        <ele>378.36441</ele>
        <time>2011-09-01T09:15:24Z</time>
      </trkpt>
      <trkpt lat="45.65105" lon="3.17592">
        <ele>378.384491</ele>
        <time>2011-09-01T09:15:26Z</time>
      </trkpt>
      <trkpt lat="45.65101" lon="3.17605">
        <ele>378.438293</ele>
        <time>2011-09-01T09:15:28Z</time>
      </trkpt>
      <trkpt lat="45.65097" lon="3.17619">
        <ele>378.456818</ele>
        <time>2011-09-01T09:15:30Z</time>
      </trkpt>
      <trkpt lat="45.65093" lon="3.17631">
        <ele>378.225525</ele>
        <time>2011-09-01T09:15:32Z</time>
      </trkpt>
      <trkpt lat="45.6509" lon="3.17644">
        <ele>378.289307</ele>
        <time>2011-09-01T09:15:34Z</time>
      </trkpt>
      <trkpt lat="45.65087" lon="3.17659">
        <ele>378.238342</ele>
        <time>2011-09-01T09:15:36Z</time>
      </trkpt>
      <trkpt lat="45.65084" lon="3.17673">
        <ele>378.059296</ele>
        <time>2011-09-01T09:15:38Z</time>
      </trkpt>
      <trkpt lat="45.65081" lon="3.17686">
        <ele>377.806702</ele>
        <time>2011-09-01T09:15:40Z</time>
      </trkpt>
      <trkpt lat="45.65078" lon="3.177">
        <ele>377.715698</ele>
        <time>2011-09-01T09:15:42Z</time>
      </trkpt>
      <trkpt lat="45.65075" lon="3.17712">
        <ele>377.585327</ele>
        <time>2011-09-01T09:15:44Z</time>
      </trkpt>
      <trkpt lat="45.65072" lon="3.17726">
        <ele>377.196381</ele>
        <time>2011-09-01T09:15:46Z</time>
      </trkpt>
      <trkpt lat="45.6507" lon="3.17739">
        <ele>376.807587</ele>
        <time>2011-09-01T09:15:48Z</time>
      </trkpt>
      <trkpt lat="45.65068" lon="3.17753">
        <ele>376.598602</ele>
        <time>2011-09-01T09:15:50Z</time>
      </trkpt>
      <trkpt lat="45.65066" lon="3.17768">
        <ele>376.390747</ele>
        <time>2011-09-01T09:15:52Z</time>
      </trkpt>
      <trkpt lat="45.65064" lon="3.17783">
        <ele>376.095001</ele>
        <time>2011-09-01T09:15:54Z</time>
      </trkpt>
      <trkpt lat="45.65062" lon="3.17798">
        <ele>375.815002</ele>
        <time>2011-09-01T09:15:56Z</time>
      </trkpt>
      <trkpt lat="45.6506" lon="3.17812">
        <ele>375.482513</ele>
        <time>2011-09-01T09:15:58Z</time>
      </trkpt>
      <trkpt lat="45.6506" lon="3.17827">
        <ele>375.570007</ele>
        <time>2011-09-01T09:16:00Z</time>
      </trkpt>
      <trkpt lat="45.65066" lon="3.17839">
        <ele>376.447754</ele>
        <time>2011-09-01T09:16:02Z</time>
      </trkpt>
      <trkpt lat="45.65076" lon="3.17843">
        <ele>378.064606</ele>
        <time>2011-09-01T09:16:04Z</time>
      </trkpt>
      <trkpt lat="45.65084" lon="3.1785">
        <ele>379.582764</ele>
        <time>2011-09-01T09:16:06Z</time>
      </trkpt>
      <trkpt lat="45.65084" lon="3.1787">
        <ele>379.55188</ele>
        <time>2011-09-01T09:16:09Z</time>
      </trkpt>
      <trkpt lat="45.65081" lon="3.17885">
        <ele>378.937195</ele>
        <time>2011-09-01T09:16:11Z</time>
      </trkpt>
      <trkpt lat="45.65079" lon="3.17901">
        <ele>378.713501</ele>
        <time>2011-09-01T09:16:13Z</time>
      </trkpt>
      <trkpt lat="45.65077" lon="3.17916">
        <ele>378.807495</ele>
        <time>2011-09-01T09:16:15Z</time>
      </trkpt>
      <trkpt lat="45.65075" lon="3.17931">
        <ele>379.045013</ele>
        <time>2011-09-01T09:16:17Z</time>
      </trkpt>
      <trkpt lat="45.65073" lon="3.17946">
        <ele>379.307495</ele>
        <time>2011-09-01T09:16:19Z</time>
      </trkpt>
      <trkpt lat="45.65072" lon="3.17962">
        <ele>379.600006</ele>
        <time>2011-09-01T09:16:21Z</time>
      </trkpt>
      <trkpt lat="45.65071" lon="3.17977">
        <ele>379.774994</ele>
        <time>2011-09-01T09:16:23Z</time>
      </trkpt>
      <trkpt lat="45.65069" lon="3.17992">
        <ele>379.845001</ele>
        <time>2011-09-01T09:16:25Z</time>
      </trkpt>
      <trkpt lat="45.65068" lon="3.18008">
        <ele>379.952515</ele>
        <time>2011-09-01T09:16:27Z</time>
      </trkpt>
      <trkpt lat="45.65067" lon="3.18024">
        <ele>380.017487</ele>
        <time>2011-09-01T09:16:29Z</time>
      </trkpt>
      <trkpt lat="45.65066" lon="3.18039">
        <ele>380.481781</ele>
        <time>2011-09-01T09:16:31Z</time>
      </trkpt>
      <trkpt lat="45.65065" lon="3.18054">
        <ele>381.159424</ele>
        <time>2011-09-01T09:16:33Z</time>
      </trkpt>
      <trkpt lat="45.65063" lon="3.18067">
        <ele>381.760773</ele>
        <time>2011-09-01T09:16:35Z</time>
      </trkpt>
      <trkpt lat="45.65061" lon="3.18083">
        <ele>382.344879</ele>
        <time>2011-09-01T09:16:38Z</time>
      </trkpt>
      <trkpt lat="45.65053" lon="3.1809">
        <ele>381.605469</ele>
        <time>2011-09-01T09:16:43Z</time>
      </trkpt>
      <trkpt lat="45.65044" lon="3.18094">
        <ele>380.293121</ele>
        <time>2011-09-01T09:16:47Z</time>
      </trkpt>
      <trkpt lat="45.65033" lon="3.18094">
        <ele>378.525574</ele>
        <time>2011-09-01T09:16:51Z</time>
      </trkpt>
      <trkpt lat="45.65023" lon="3.18092">
        <ele>376.784302</ele>
        <time>2011-09-01T09:16:54Z</time>
      </trkpt>
      <trkpt lat="45.65013" lon="3.18089">
        <ele>374.961945</ele>
        <time>2011-09-01T09:16:57Z</time>
      </trkpt>
      <trkpt lat="45.65003" lon="3.18085">
        <ele>373.120087</ele>
        <time>2011-09-01T09:17:00Z</time>
      </trkpt>
      <trkpt lat="45.64993" lon="3.18083">
        <ele>371.282593</ele>
        <time>2011-09-01T09:17:03Z</time>
      </trkpt>
      <trkpt lat="45.64983" lon="3.18079">
        <ele>370.057678</ele>
        <time>2011-09-01T09:17:06Z</time>
      </trkpt>
      <trkpt lat="45.64973" lon="3.18077">
        <ele>368.938019</ele>
        <time>2011-09-01T09:17:09Z</time>
      </trkpt>
      <trkpt lat="45.64963" lon="3.18075">
        <ele>367.801575</ele>
        <time>2011-09-01T09:17:12Z</time>
      </trkpt>
      <trkpt lat="45.64953" lon="3.18072">
        <ele>366.770752</ele>
        <time>2011-09-01T09:17:15Z</time>
      </trkpt>
      <trkpt lat="45.64943" lon="3.1807">
        <ele>365.86499</ele>
        <time>2011-09-01T09:17:18Z</time>
      </trkpt>
      <trkpt lat="45.64932" lon="3.18068">
        <ele>365.11499</ele>
        <time>2011-09-01T09:17:22Z</time>
      </trkpt>
      <trkpt lat="45.64924" lon="3.18074">
        <ele>364.605011</ele>
        <time>2011-09-01T09:17:25Z</time>
      </trkpt>
      <trkpt lat="45.6492" lon="3.1809">
        <ele>364.350006</ele>
        <time>2011-09-01T09:17:28Z</time>
      </trkpt>
      <trkpt lat="45.64919" lon="3.18104">
        <ele>364.511108</ele>
        <time>2011-09-01T09:17:30Z</time>
      </trkpt>
      <trkpt lat="45.64919" lon="3.18119">
        <ele>364.812775</ele>
        <time>2011-09-01T09:17:32Z</time>
      </trkpt>
      <trkpt lat="45.64916" lon="3.18134">
        <ele>364.908936</ele>
        <time>2011-09-01T09:17:34Z</time>
      </trkpt>
      <trkpt lat="45.64911" lon="3.18149">
        <ele>364.891968</ele>
        <time>2011-09-01T09:17:36Z</time>
      </trkpt>
      <trkpt lat="45.64907" lon="3.18165">
        <ele>364.804047</ele>
        <time>2011-09-01T09:17:38Z</time>
      </trkpt>
      <trkpt lat="45.64902" lon="3.18181">
        <ele>364.666046</ele>
        <time>2011-09-01T09:17:40Z</time>
      </trkpt>
      <trkpt lat="45.64898" lon="3.18197">
        <ele>364.487213</ele>
        <time>2011-09-01T09:17:42Z</time>
      </trkpt>
      <trkpt lat="45.64893" lon="3.18213">
        <ele>364.310974</ele>
        <time>2011-09-01T09:17:44Z</time>
      </trkpt>
      <trkpt lat="45.64888" lon="3.18229">
        <ele>364.189362</ele>
        <time>2011-09-01T09:17:46Z</time>
      </trkpt>
      <trkpt lat="45.64883" lon="3.18247">
        <ele>364.140167</ele>
        <time>2011-09-01T09:17:48Z</time>
      </trkpt>
      <trkpt lat="45.6488" lon="3.18264">
        <ele>364.163879</ele>
        <time>2011-09-01T09:17:50Z</time>
      </trkpt>
      <trkpt lat="45.64879" lon="3.18283">
        <ele>364.308777</ele>
        <time>2011-09-01T09:17:52Z</time>
      </trkpt>
      <trkpt lat="45.64877" lon="3.18302">
        <ele>364.545105</ele>
        <time>2011-09-01T09:17:54Z</time>
      </trkpt>
      <trkpt lat="45.64874" lon="3.18322">
        <ele>364.455261</ele>
        <time>2011-09-01T09:17:56Z</time>
      </trkpt>
      <trkpt lat="45.64868" lon="3.18339">
        <ele>363.845367</ele>
        <time>2011-09-01T09:17:58Z</time>
      </trkpt>
      <trkpt lat="45.64861" lon="3.18356">
        <ele>362.616577</ele>
        <time>2011-09-01T09:18:00Z</time>
      </trkpt>
      <trkpt lat="45.64853" lon="3.18371">
        <ele>361</ele>
        <time>2011-09-01T09:18:02Z</time>
      </trkpt>
      <trkpt lat="45.64846" lon="3.18386">
        <ele>360.333191</ele>
        <time>2011-09-01T09:18:04Z</time>
      </trkpt>
      <trkpt lat="45.64839" lon="3.18401">
        <ele>359.594879</ele>
        <time>2011-09-01T09:18:06Z</time>
      </trkpt>
      <trkpt lat="45.64836" lon="3.1842">
        <ele>359.072449</ele>
        <time>2011-09-01T09:18:08Z</time>
      </trkpt>
      <trkpt lat="45.64832" lon="3.18437">
        <ele>358.40799</ele>
        <time>2011-09-01T09:18:10Z</time>
      </trkpt>
      <trkpt lat="45.64829" lon="3.18453">
        <ele>357.717407</ele>
        <time>2011-09-01T09:18:12Z</time>
      </trkpt>
      <trkpt lat="45.64827" lon="3.18469">
        <ele>357.132751</ele>
        <time>2011-09-01T09:18:14Z</time>
      </trkpt>
      <trkpt lat="45.64824" lon="3.18483">
        <ele>356.660004</ele>
        <time>2011-09-01T09:18:16Z</time>
      </trkpt>
      <trkpt lat="45.64821" lon="3.18498">
        <ele>356.1875</ele>
        <time>2011-09-01T09:18:18Z</time>
      </trkpt>
      <trkpt lat="45.64816" lon="3.18514">
        <ele>355.470001</ele>
        <time>2011-09-01T09:18:21Z</time>
      </trkpt>
      <trkpt lat="45.64813" lon="3.18528">
        <ele>354.997498</ele>
        <time>2011-09-01T09:18:23Z</time>
      </trkpt>
      <trkpt lat="45.64809" lon="3.18546">
        <ele>354.651245</ele>
        <time>2011-09-01T09:18:26Z</time>
      </trkpt>
      <trkpt lat="45.64807" lon="3.18561">
        <ele>354.949646</ele>
        <time>2011-09-01T09:18:30Z</time>
      </trkpt>
      <trkpt lat="45.64803" lon="3.18577">
        <ele>355.493042</ele>
        <time>2011-09-01T09:18:38Z</time>
      </trkpt>
      <trkpt lat="45.64799" lon="3.18594">
        <ele>355.872681</ele>
        <time>2011-09-01T09:18:48Z</time>
      </trkpt>
      <trkpt lat="45.64799" lon="3.18611">
        <ele>356.390015</ele>
        <time>2011-09-01T09:22:51Z</time>
      </trkpt>
      <trkpt lat="45.64796" lon="3.18625">
        <ele>356.100006</ele>
        <time>2011-09-01T09:23:03Z</time>
      </trkpt>
      <trkpt lat="45.64795" lon="3.18644">
        <ele>355.98999</ele>
        <time>2011-09-01T09:23:16Z</time>
      </trkpt>
      <trkpt lat="45.64795" lon="3.18664">
        <ele>356.059998</ele>
        <time>2011-09-01T09:23:27Z</time>
      </trkpt>
      <trkpt lat="45.64802" lon="3.18685">
        <ele>355.694336</ele>
        <time>2011-09-01T09:23:34Z</time>
      </trkpt>
      <trkpt lat="45.648" lon="3.18706">
        <ele>354.405334</ele>
        <time>2011-09-01T09:23:39Z</time>
      </trkpt>
      <trkpt lat="45.64795" lon="3.18723">
        <ele>353.294037</ele>
        <time>2011-09-01T09:23:44Z</time>
      </trkpt>
      <trkpt lat="45.64793" lon="3.1874">
        <ele>352.268127</ele>
        <time>2011-09-01T09:23:48Z</time>
      </trkpt>
      <trkpt lat="45.64794" lon="3.18756">
        <ele>351.374969</ele>
        <time>2011-09-01T09:23:52Z</time>
      </trkpt>
      <trkpt lat="45.64787" lon="3.18766">
        <ele>350.699829</ele>
        <time>2011-09-01T09:23:59Z</time>
      </trkpt>
      <trkpt lat="45.64778" lon="3.18764">
        <ele>350.693756</ele>
        <time>2011-09-01T09:24:03Z</time>
      </trkpt>
      <trkpt lat="45.64765" lon="3.18763">
        <ele>350.588715</ele>
        <time>2011-09-01T09:24:07Z</time>
      </trkpt>
      <trkpt lat="45.64754" lon="3.18769">
        <ele>350.364075</ele>
        <time>2011-09-01T09:24:11Z</time>
      </trkpt>
      <trkpt lat="45.64743" lon="3.18769">
        <ele>350.466949</ele>
        <time>2011-09-01T09:24:15Z</time>
      </trkpt>
      <trkpt lat="45.64733" lon="3.1877">
        <ele>350.571991</ele>
        <time>2011-09-01T09:24:19Z</time>
      </trkpt>
      <trkpt lat="45.64723" lon="3.18771">
        <ele>350.66391</ele>
        <time>2011-09-01T09:24:23Z</time>
      </trkpt>
      <trkpt lat="45.64715" lon="3.18779">
        <ele>350.506256</ele>
        <time>2011-09-01T09:24:27Z</time>
      </trkpt>
      <trkpt lat="45.64708" lon="3.18789">
        <ele>350.463898</ele>
        <time>2011-09-01T09:24:30Z</time>
      </trkpt>
      <trkpt lat="45.647" lon="3.18802">
        <ele>350.674988</ele>
        <time>2011-09-01T09:24:33Z</time>
      </trkpt>
      <trkpt lat="45.64693" lon="3.1882">
        <ele>350.959991</ele>
        <time>2011-09-01T09:24:36Z</time>
      </trkpt>
      <trkpt lat="45.64689" lon="3.18838">
        <ele>351.130005</ele>
        <time>2011-09-01T09:24:39Z</time>
      </trkpt>
      <trkpt lat="45.64686" lon="3.18857">
        <ele>351.255005</ele>
        <time>2011-09-01T09:24:42Z</time>
      </trkpt>
      <trkpt lat="45.64683" lon="3.18869">
        <ele>351.489532</ele>
        <time>2011-09-01T09:24:44Z</time>
      </trkpt>
      <trkpt lat="45.6468" lon="3.18882">
        <ele>351.774963</ele>
        <time>2011-09-01T09:24:46Z</time>
      </trkpt>
      <trkpt lat="45.64677" lon="3.18895">
        <ele>352.118195</ele>
        <time>2011-09-01T09:24:48Z</time>
      </trkpt>
      <trkpt lat="45.64673" lon="3.18913">
        <ele>352.593506</ele>
        <time>2011-09-01T09:24:51Z</time>
      </trkpt>
      <trkpt lat="45.64671" lon="3.18932">
        <ele>353.133423</ele>
        <time>2011-09-01T09:24:54Z</time>
      </trkpt>
      <trkpt lat="45.64668" lon="3.18951">
        <ele>353.924988</ele>
        <time>2011-09-01T09:24:57Z</time>
      </trkpt>
      <trkpt lat="45.64665" lon="3.18966">
        <ele>354.779999</ele>
        <time>2011-09-01T09:24:59Z</time>
      </trkpt>
      <trkpt lat="45.64661" lon="3.1898">
        <ele>355.632507</ele>
        <time>2011-09-01T09:25:01Z</time>
      </trkpt>
      <trkpt lat="45.64654" lon="3.18996">
        <ele>356.797089</ele>
        <time>2011-09-01T09:25:04Z</time>
      </trkpt>
      <trkpt lat="45.64649" lon="3.19006">
        <ele>357.74765</ele>
        <time>2011-09-01T09:25:06Z</time>
      </trkpt>
      <trkpt lat="45.6464" lon="3.19019">
        <ele>359.299774</ele>
        <time>2011-09-01T09:25:09Z</time>
      </trkpt>
      <trkpt lat="45.64633" lon="3.19031">
        <ele>360.624908</ele>
        <time>2011-09-01T09:25:13Z</time>
      </trkpt>
      <trkpt lat="45.64632" lon="3.19045">
        <ele>361.460419</ele>
        <time>2011-09-01T09:25:17Z</time>
      </trkpt>
      <trkpt lat="45.64631" lon="3.19061">
        <ele>361.943207</ele>
        <time>2011-09-01T09:25:20Z</time>
      </trkpt>
      <trkpt lat="45.64632" lon="3.19079">
        <ele>362.115021</ele>
        <time>2011-09-01T09:25:23Z</time>
      </trkpt>
      <trkpt lat="45.64633" lon="3.19097">
        <ele>362.102692</ele>
        <time>2011-09-01T09:25:26Z</time>
      </trkpt>
      <trkpt lat="45.64633" lon="3.19115">
        <ele>362.342255</ele>
        <time>2011-09-01T09:25:29Z</time>
      </trkpt>
      <trkpt lat="45.64634" lon="3.1913">
        <ele>362.359802</ele>
        <time>2011-09-01T09:25:32Z</time>
      </trkpt>
      <trkpt lat="45.64636" lon="3.19147">
        <ele>362.076416</ele>
        <time>2011-09-01T09:25:36Z</time>
      </trkpt>
      <trkpt lat="45.64636" lon="3.1916">
        <ele>362.132263</ele>
        <time>2011-09-01T09:25:40Z</time>
      </trkpt>
      <trkpt lat="45.64636" lon="3.19175">
        <ele>362.367096</ele>
        <time>2011-09-01T09:25:44Z</time>
      </trkpt>
      <trkpt lat="45.64636" lon="3.19191">
        <ele>361.570404</ele>
        <time>2011-09-01T09:25:48Z</time>
      </trkpt>
      <trkpt lat="45.64637" lon="3.19208">
        <ele>360.255127</ele>
        <time>2011-09-01T09:25:53Z</time>
      </trkpt>
      <trkpt lat="45.64636" lon="3.19223">
        <ele>359.858978</ele>
        <time>2011-09-01T09:25:57Z</time>
      </trkpt>
      <trkpt lat="45.64632" lon="3.19239">
        <ele>360.106262</ele>
        <time>2011-09-01T09:26:01Z</time>
      </trkpt>
      <trkpt lat="45.64627" lon="3.19254">
        <ele>360.370361</ele>
        <time>2011-09-01T09:26:05Z</time>
      </trkpt>
      <trkpt lat="45.64623" lon="3.19269">
        <ele>360.542297</ele>
        <time>2011-09-01T09:26:09Z</time>
      </trkpt>
      <trkpt lat="45.64618" lon="3.19285">
        <ele>360.812622</ele>
        <time>2011-09-01T09:26:13Z</time>
      </trkpt>
      <trkpt lat="45.64614" lon="3.193">
        <ele>361.217194</ele>
        <time>2011-09-01T09:26:17Z</time>
      </trkpt>
      <trkpt lat="45.64611" lon="3.19316">
        <ele>361.15332</ele>
        <time>2011-09-01T09:26:21Z</time>
      </trkpt>
      <trkpt lat="45.64608" lon="3.19333">
        <ele>360.696411</ele>
        <time>2011-09-01T09:26:25Z</time>
      </trkpt>
      <trkpt lat="45.64606" lon="3.19348">
        <ele>360.217651</ele>
        <time>2011-09-01T09:26:29Z</time>
      </trkpt>
      <trkpt lat="45.64604" lon="3.19363">
        <ele>359.943817</ele>
        <time>2011-09-01T09:26:33Z</time>
      </trkpt>
      <trkpt lat="45.646" lon="3.19377">
        <ele>360.953735</ele>
        <time>2011-09-01T09:26:37Z</time>
      </trkpt>
      <trkpt lat="45.64595" lon="3.19393">
        <ele>362.111237</ele>
        <time>2011-09-01T09:26:41Z</time>
      </trkpt>
      <trkpt lat="45.64591" lon="3.19407">
        <ele>363.41626</ele>
        <time>2011-09-01T09:26:44Z</time>
      </trkpt>
      <trkpt lat="45.64588" lon="3.1942">
        <ele>364.204987</ele>
        <time>2011-09-01T09:26:47Z</time>
      </trkpt>
      <trkpt lat="45.64585" lon="3.19438">
        <ele>364.49176</ele>
        <time>2011-09-01T09:26:51Z</time>
      </trkpt>
      <trkpt lat="45.64583" lon="3.19456">
        <ele>364.733887</ele>
        <time>2011-09-01T09:26:55Z</time>
      </trkpt>
      <trkpt lat="45.64582" lon="3.19474">
        <ele>364.30191</ele>
        <time>2011-09-01T09:26:59Z</time>
      </trkpt>
      <trkpt lat="45.64578" lon="3.19492">
        <ele>364.872742</ele>
        <time>2011-09-01T09:27:02Z</time>
      </trkpt>
      <trkpt lat="45.64579" lon="3.19513">
        <ele>363.838776</ele>
        <time>2011-09-01T09:27:05Z</time>
      </trkpt>
      <trkpt lat="45.64578" lon="3.19526">
        <ele>363.453186</ele>
        <time>2011-09-01T09:27:07Z</time>
      </trkpt>
      <trkpt lat="45.64577" lon="3.19546">
        <ele>362.75238</ele>
        <time>2011-09-01T09:27:10Z</time>
      </trkpt>
      <trkpt lat="45.64576" lon="3.19566">
        <ele>362.217804</ele>
        <time>2011-09-01T09:27:13Z</time>
      </trkpt>
      <trkpt lat="45.64574" lon="3.19585">
        <ele>361.538269</ele>
        <time>2011-09-01T09:27:16Z</time>
      </trkpt>
      <trkpt lat="45.64573" lon="3.19603">
        <ele>360.895599</ele>
        <time>2011-09-01T09:27:19Z</time>
      </trkpt>
      <trkpt lat="45.64571" lon="3.19617">
        <ele>360.560852</ele>
        <time>2011-09-01T09:27:22Z</time>
      </trkpt>
      <trkpt lat="45.64568" lon="3.19635">
        <ele>360.946869</ele>
        <time>2011-09-01T09:27:26Z</time>
      </trkpt>
      <trkpt lat="45.64565" lon="3.19651">
        <ele>361.635193</ele>
        <time>2011-09-01T09:27:30Z</time>
      </trkpt>
      <trkpt lat="45.64564" lon="3.19669">
        <ele>361.848053</ele>
        <time>2011-09-01T09:27:34Z</time>
      </trkpt>
      <trkpt lat="45.64562" lon="3.19684">
        <ele>362.513702</ele>
        <time>2011-09-01T09:27:37Z</time>
      </trkpt>
      <trkpt lat="45.64561" lon="3.19701">
        <ele>362.793762</ele>
        <time>2011-09-01T09:27:40Z</time>
      </trkpt>
      <trkpt lat="45.64559" lon="3.19716">
        <ele>363.236237</ele>
        <time>2011-09-01T09:27:42Z</time>
      </trkpt>
      <trkpt lat="45.64557" lon="3.19731">
        <ele>363.626251</ele>
        <time>2011-09-01T09:27:44Z</time>
      </trkpt>
      <trkpt lat="45.64556" lon="3.19747">
        <ele>363.96875</ele>
        <time>2011-09-01T09:27:46Z</time>
      </trkpt>
      <trkpt lat="45.64554" lon="3.19762">
        <ele>364.012268</ele>
        <time>2011-09-01T09:27:48Z</time>
      </trkpt>
      <trkpt lat="45.64553" lon="3.19777">
        <ele>363.542877</ele>
        <time>2011-09-01T09:27:50Z</time>
      </trkpt>
      <trkpt lat="45.64554" lon="3.19792">
        <ele>362.448395</ele>
        <time>2011-09-01T09:27:52Z</time>
      </trkpt>
      <trkpt lat="45.64555" lon="3.19806">
        <ele>361.48233</ele>
        <time>2011-09-01T09:27:54Z</time>
      </trkpt>
      <trkpt lat="45.64556" lon="3.19819">
        <ele>360.647491</ele>
        <time>2011-09-01T09:27:56Z</time>
      </trkpt>
      <trkpt lat="45.64557" lon="3.19838">
        <ele>359.869598</ele>
        <time>2011-09-01T09:27:59Z</time>
      </trkpt>
      <trkpt lat="45.64557" lon="3.19853">
        <ele>359.266327</ele>
        <time>2011-09-01T09:28:02Z</time>
      </trkpt>
      <trkpt lat="45.64558" lon="3.19869">
        <ele>358.413239</ele>
        <time>2011-09-01T09:28:06Z</time>
      </trkpt>
      <trkpt lat="45.6456" lon="3.19884">
        <ele>357.593689</ele>
        <time>2011-09-01T09:28:09Z</time>
      </trkpt>
      <trkpt lat="45.64562" lon="3.19899">
        <ele>356.575378</ele>
        <time>2011-09-01T09:28:12Z</time>
      </trkpt>
      <trkpt lat="45.64563" lon="3.19913">
        <ele>355.725281</ele>
        <time>2011-09-01T09:28:15Z</time>
      </trkpt>
      <trkpt lat="45.64566" lon="3.19931">
        <ele>354.444214</ele>
        <time>2011-09-01T09:28:19Z</time>
      </trkpt>
      <trkpt lat="45.64567" lon="3.19946">
        <ele>353.797363</ele>
        <time>2011-09-01T09:28:22Z</time>
      </trkpt>
      <trkpt lat="45.64564" lon="3.19962">
        <ele>353.772491</ele>
        <time>2011-09-01T09:28:25Z</time>
      </trkpt>
      <trkpt lat="45.64559" lon="3.19974">
        <ele>354.042664</ele>
        <time>2011-09-01T09:28:28Z</time>
      </trkpt>
      <trkpt lat="45.64554" lon="3.19989">
        <ele>354.263245</ele>
        <time>2011-09-01T09:28:31Z</time>
      </trkpt>
      <trkpt lat="45.64549" lon="3.20003">
        <ele>354.384857</ele>
        <time>2011-09-01T09:28:34Z</time>
      </trkpt>
      <trkpt lat="45.64543" lon="3.20014">
        <ele>354.639587</ele>
        <time>2011-09-01T09:28:37Z</time>
      </trkpt>
      <trkpt lat="45.64533" lon="3.20015">
        <ele>355.84314</ele>
        <time>2011-09-01T09:28:40Z</time>
      </trkpt>
      <trkpt lat="45.64525" lon="3.20008">
        <ele>357.263123</ele>
        <time>2011-09-01T09:28:43Z</time>
      </trkpt>
      <trkpt lat="45.64517" lon="3.19998">
        <ele>358.798279</ele>
        <time>2011-09-01T09:28:47Z</time>
      </trkpt>
      <trkpt lat="45.64509" lon="3.19989">
        <ele>360.335815</ele>
        <time>2011-09-01T09:28:55Z</time>
      </trkpt>
      <trkpt lat="45.64503" lon="3.19977">
        <ele>361.868134</ele>
        <time>2011-09-01T09:29:03Z</time>
      </trkpt>
      <trkpt lat="45.64498" lon="3.19965">
        <ele>363.40329</ele>
        <time>2011-09-01T09:29:11Z</time>
      </trkpt>
      <trkpt lat="45.64493" lon="3.19951">
        <ele>365.037109</ele>
        <time>2011-09-01T09:29:17Z</time>
      </trkpt>
      <trkpt lat="45.64487" lon="3.19936">
        <ele>366.730469</ele>
        <time>2011-09-01T09:29:21Z</time>
      </trkpt>
      <trkpt lat="45.6448" lon="3.19922">
        <ele>368.186005</ele>
        <time>2011-09-01T09:29:25Z</time>
      </trkpt>
      <trkpt lat="45.64476" lon="3.1991">
        <ele>369.007446</ele>
        <time>2011-09-01T09:29:28Z</time>
      </trkpt>
      <trkpt lat="45.6447" lon="3.19898">
        <ele>369.977234</ele>
        <time>2011-09-01T09:29:31Z</time>
      </trkpt>
      <trkpt lat="45.64464" lon="3.19886">
        <ele>370.969696</ele>
        <time>2011-09-01T09:29:34Z</time>
      </trkpt>
      <trkpt lat="45.6446" lon="3.19875">
        <ele>372.02356</ele>
        <time>2011-09-01T09:29:37Z</time>
      </trkpt>
      <trkpt lat="45.64453" lon="3.1986">
        <ele>373.506866</ele>
        <time>2011-09-01T09:29:41Z</time>
      </trkpt>
      <trkpt lat="45.64446" lon="3.19847">
        <ele>374.780792</ele>
        <time>2011-09-01T09:29:45Z</time>
      </trkpt>
      <trkpt lat="45.64438" lon="3.19834">
        <ele>375.895447</ele>
        <time>2011-09-01T09:29:49Z</time>
      </trkpt>
      <trkpt lat="45.6443" lon="3.19823">
        <ele>376.487488</ele>
        <time>2011-09-01T09:29:53Z</time>
      </trkpt>
      <trkpt lat="45.64421" lon="3.19812">
        <ele>376.857788</ele>
        <time>2011-09-01T09:29:57Z</time>
      </trkpt>
      <trkpt lat="45.6441" lon="3.19807">
        <ele>376.765869</ele>
        <time>2011-09-01T09:30:01Z</time>
      </trkpt>
      <trkpt lat="45.64403" lon="3.19816">
        <ele>376.25119</ele>
        <time>2011-09-01T09:30:05Z</time>
      </trkpt>
      <trkpt lat="45.644" lon="3.19834">
        <ele>375.082489</ele>
        <time>2011-09-01T09:30:09Z</time>
      </trkpt>
      <trkpt lat="45.64396" lon="3.19851">
        <ele>373.952484</ele>
        <time>2011-09-01T09:30:13Z</time>
      </trkpt>
      <trkpt lat="45.64391" lon="3.19869">
        <ele>372.721802</ele>
        <time>2011-09-01T09:30:17Z</time>
      </trkpt>
      <trkpt lat="45.64384" lon="3.19886">
        <ele>371.773804</ele>
        <time>2011-09-01T09:30:21Z</time>
      </trkpt>
      <trkpt lat="45.64379" lon="3.199">
        <ele>371.189301</ele>
        <time>2011-09-01T09:30:25Z</time>
      </trkpt>
      <trkpt lat="45.64375" lon="3.19918">
        <ele>370.454132</ele>
        <time>2011-09-01T09:30:30Z</time>
      </trkpt>
      <trkpt lat="45.64368" lon="3.19937">
        <ele>369.814117</ele>
        <time>2011-09-01T09:30:35Z</time>
      </trkpt>
      <trkpt lat="45.64363" lon="3.19955">
        <ele>369.282501</ele>
        <time>2011-09-01T09:30:39Z</time>
      </trkpt>
      <trkpt lat="45.64359" lon="3.19971">
        <ele>368.869995</ele>
        <time>2011-09-01T09:30:43Z</time>
      </trkpt>
      <trkpt lat="45.64356" lon="3.19992">
        <ele>368.290009</ele>
        <time>2011-09-01T09:30:47Z</time>
      </trkpt>
      <trkpt lat="45.64353" lon="3.20015">
        <ele>367.644989</ele>
        <time>2011-09-01T09:30:52Z</time>
      </trkpt>
      <trkpt lat="45.64345" lon="3.20038">
        <ele>367.0625</ele>
        <time>2011-09-01T09:30:56Z</time>
      </trkpt>
      <trkpt lat="45.6434" lon="3.20055">
        <ele>366.642487</ele>
        <time>2011-09-01T09:31:00Z</time>
      </trkpt>
      <trkpt lat="45.64334" lon="3.20079">
        <ele>366.047485</ele>
        <time>2011-09-01T09:31:05Z</time>
      </trkpt>
      <trkpt lat="45.64328" lon="3.201">
        <ele>365.527496</ele>
        <time>2011-09-01T09:31:09Z</time>
      </trkpt>
      <trkpt lat="45.64321" lon="3.20121">
        <ele>364.994995</ele>
        <time>2011-09-01T09:31:13Z</time>
      </trkpt>
      <trkpt lat="45.64318" lon="3.20139">
        <ele>364.461365</ele>
        <time>2011-09-01T09:31:17Z</time>
      </trkpt>
      <trkpt lat="45.64315" lon="3.20159">
        <ele>363.707214</ele>
        <time>2011-09-01T09:31:21Z</time>
      </trkpt>
      <trkpt lat="45.6431" lon="3.20177">
        <ele>362.989258</ele>
        <time>2011-09-01T09:31:25Z</time>
      </trkpt>
      <trkpt lat="45.64305" lon="3.20199">
        <ele>362.064636</ele>
        <time>2011-09-01T09:31:29Z</time>
      </trkpt>
      <trkpt lat="45.64298" lon="3.20219">
        <ele>360.772186</ele>
        <time>2011-09-01T09:31:34Z</time>
      </trkpt>
      <trkpt lat="45.64291" lon="3.20242">
        <ele>359.436493</ele>
        <time>2011-09-01T09:31:51Z</time>
      </trkpt>
      <trkpt lat="45.6429" lon="3.20267">
        <ele>358.062622</ele>
        <time>2011-09-01T09:32:03Z</time>
      </trkpt>
      <trkpt lat="45.64289" lon="3.20291">
        <ele>357.024261</ele>
        <time>2011-09-01T09:32:14Z</time>
      </trkpt>
      <trkpt lat="45.64289" lon="3.20313">
        <ele>356.089813</ele>
        <time>2011-09-01T09:32:24Z</time>
      </trkpt>
      <trkpt lat="45.64283" lon="3.20333">
        <ele>355.304474</ele>
        <time>2011-09-01T09:32:33Z</time>
      </trkpt>
      <trkpt lat="45.64277" lon="3.20351">
        <ele>353.983337</ele>
        <time>2011-09-01T09:32:43Z</time>
      </trkpt>
      <trkpt lat="45.64269" lon="3.20368">
        <ele>352.579681</ele>
        <time>2011-09-01T09:32:53Z</time>
      </trkpt>
      <trkpt lat="45.64261" lon="3.20383">
        <ele>351.033936</ele>
        <time>2011-09-01T09:33:02Z</time>
      </trkpt>
      <trkpt lat="45.64254" lon="3.20402">
        <ele>349.531738</ele>
        <time>2011-09-01T09:33:18Z</time>
      </trkpt>
      <trkpt lat="45.64246" lon="3.20415">
        <ele>349.295898</ele>
        <time>2011-09-01T09:33:26Z</time>
      </trkpt>
      <trkpt lat="45.64239" lon="3.20426">
        <ele>349.102661</ele>
        <time>2011-09-01T09:33:34Z</time>
      </trkpt>
      <trkpt lat="45.64231" lon="3.2044">
        <ele>348.548645</ele>
        <time>2011-09-01T09:33:44Z</time>
      </trkpt>
      <trkpt lat="45.64221" lon="3.20457">
        <ele>347.637726</ele>
        <time>2011-09-01T09:33:54Z</time>
      </trkpt>
      <trkpt lat="45.6421" lon="3.20472">
        <ele>347.173706</ele>
        <time>2011-09-01T09:34:05Z</time>
      </trkpt>
      <trkpt lat="45.64198" lon="3.20488">
        <ele>347.332672</ele>
        <time>2011-09-01T09:34:18Z</time>
      </trkpt>
      <trkpt lat="45.64186" lon="3.20504">
        <ele>347.405853</ele>
        <time>2011-09-01T09:34:30Z</time>
      </trkpt>
      <trkpt lat="45.64174" lon="3.20517">
        <ele>347.277313</ele>
        <time>2011-09-01T09:34:42Z</time>
      </trkpt>
      <trkpt lat="45.64164" lon="3.20532">
        <ele>347.010468</ele>
        <time>2011-09-01T09:34:53Z</time>
      </trkpt>
      <trkpt lat="45.6416" lon="3.20549">
        <ele>346.28183</ele>
        <time>2011-09-01T09:35:01Z</time>
      </trkpt>
      <trkpt lat="45.6416" lon="3.20566">
        <ele>345.221283</ele>
        <time>2011-09-01T09:35:11Z</time>
      </trkpt>
      <trkpt lat="45.64162" lon="3.20581">
        <ele>344.123352</ele>
        <time>2011-09-01T09:35:19Z</time>
      </trkpt>
      <trkpt lat="45.64164" lon="3.20596">
        <ele>343.790009</ele>
        <time>2011-09-01T09:35:27Z</time>
      </trkpt>
      <trkpt lat="45.6417" lon="3.20612">
        <ele>343.542511</ele>
        <time>2011-09-01T09:35:36Z</time>
      </trkpt>
      <trkpt lat="45.64177" lon="3.20626">
        <ele>343.331238</ele>
        <time>2011-09-01T09:35:44Z</time>
      </trkpt>
      <trkpt lat="45.64185" lon="3.20639">
        <ele>343.122498</ele>
        <time>2011-09-01T09:35:55Z</time>
      </trkpt>
      <trkpt lat="45.64192" lon="3.2065">
        <ele>343</ele>
        <time>2011-09-01T09:36:03Z</time>
      </trkpt>
      <trkpt lat="45.64199" lon="3.20663">
        <ele>343</ele>
        <time>2011-09-01T09:36:12Z</time>
      </trkpt>
      <trkpt lat="45.64211" lon="3.20676">
        <ele>343.107513</ele>
        <time>2011-09-01T09:36:22Z</time>
      </trkpt>
      <trkpt lat="45.64218" lon="3.2069">
        <ele>343.282501</ele>
        <time>2011-09-01T09:36:31Z</time>
      </trkpt>
      <trkpt lat="45.64224" lon="3.20703">
        <ele>343.399994</ele>
        <time>2011-09-01T09:36:35Z</time>
      </trkpt>
      <trkpt lat="45.64229" lon="3.20715">
        <ele>343.505096</ele>
        <time>2011-09-01T09:36:38Z</time>
      </trkpt>
      <trkpt lat="45.64236" lon="3.20729">
        <ele>343.511597</ele>
        <time>2011-09-01T09:36:42Z</time>
      </trkpt>
      <trkpt lat="45.64243" lon="3.20739">
        <ele>343.475189</ele>
        <time>2011-09-01T09:36:45Z</time>
      </trkpt>
      <trkpt lat="45.64249" lon="3.20751">
        <ele>343.386627</ele>
        <time>2011-09-01T09:36:48Z</time>
      </trkpt>
      <trkpt lat="45.6426" lon="3.20761">
        <ele>343.246246</ele>
        <time>2011-09-01T09:36:51Z</time>
      </trkpt>
      <trkpt lat="45.64267" lon="3.20773">
        <ele>343.0625</ele>
        <time>2011-09-01T09:36:54Z</time>
      </trkpt>
      <trkpt lat="45.64269" lon="3.20786">
        <ele>342.707489</ele>
        <time>2011-09-01T09:36:56Z</time>
      </trkpt>
      <trkpt lat="45.64262" lon="3.20803">
        <ele>342.17749</ele>
        <time>2011-09-01T09:37:00Z</time>
      </trkpt>
      <trkpt lat="45.6425" lon="3.20818">
        <ele>341.702515</ele>
        <time>2011-09-01T09:37:04Z</time>
      </trkpt>
      <trkpt lat="45.64238" lon="3.20828">
        <ele>341.578125</ele>
        <time>2011-09-01T09:37:07Z</time>
      </trkpt>
      <trkpt lat="45.64224" lon="3.20837">
        <ele>341.621796</ele>
        <time>2011-09-01T09:37:10Z</time>
      </trkpt>
      <trkpt lat="45.64204" lon="3.20845">
        <ele>341.761444</ele>
        <time>2011-09-01T09:37:14Z</time>
      </trkpt>
      <trkpt lat="45.64188" lon="3.20854">
        <ele>341.41098</ele>
        <time>2011-09-01T09:37:17Z</time>
      </trkpt>
      <trkpt lat="45.64171" lon="3.20857">
        <ele>341.36084</ele>
        <time>2011-09-01T09:37:20Z</time>
      </trkpt>
      <trkpt lat="45.64154" lon="3.20862">
        <ele>341.315796</ele>
        <time>2011-09-01T09:37:23Z</time>
      </trkpt>
      <trkpt lat="45.64132" lon="3.20871">
        <ele>341.303009</ele>
        <time>2011-09-01T09:37:27Z</time>
      </trkpt>
      <trkpt lat="45.64114" lon="3.20877">
        <ele>341.400482</ele>
        <time>2011-09-01T09:37:30Z</time>
      </trkpt>
      <trkpt lat="45.64096" lon="3.20884">
        <ele>341.404541</ele>
        <time>2011-09-01T09:37:33Z</time>
      </trkpt>
      <trkpt lat="45.64085" lon="3.20889">
        <ele>341.330048</ele>
        <time>2011-09-01T09:37:35Z</time>
      </trkpt>
      <trkpt lat="45.64074" lon="3.20893">
        <ele>341.249756</ele>
        <time>2011-09-01T09:37:37Z</time>
      </trkpt>
      <trkpt lat="45.64059" lon="3.209">
        <ele>341.26001</ele>
        <time>2011-09-01T09:37:40Z</time>
      </trkpt>
      <trkpt lat="45.64046" lon="3.20903">
        <ele>341.441986</ele>
        <time>2011-09-01T09:37:43Z</time>
      </trkpt>
      <trkpt lat="45.64029" lon="3.20906">
        <ele>341.663391</ele>
        <time>2011-09-01T09:37:46Z</time>
      </trkpt>
      <trkpt lat="45.64013" lon="3.20911">
        <ele>341.953522</ele>
        <time>2011-09-01T09:37:49Z</time>
      </trkpt>
      <trkpt lat="45.63996" lon="3.20918">
        <ele>342.093201</ele>
        <time>2011-09-01T09:37:52Z</time>
      </trkpt>
      <trkpt lat="45.63982" lon="3.20923">
        <ele>342.165497</ele>
        <time>2011-09-01T09:37:55Z</time>
      </trkpt>
      <trkpt lat="45.63966" lon="3.20929">
        <ele>342.075012</ele>
        <time>2011-09-01T09:37:58Z</time>
      </trkpt>
      <trkpt lat="45.63948" lon="3.20931">
        <ele>342.258759</ele>
        <time>2011-09-01T09:38:01Z</time>
      </trkpt>
      <trkpt lat="45.63931" lon="3.20936">
        <ele>342.278748</ele>
        <time>2011-09-01T09:38:04Z</time>
      </trkpt>
      <trkpt lat="45.63918" lon="3.2094">
        <ele>342.506256</ele>
        <time>2011-09-01T09:38:07Z</time>
      </trkpt>
      <trkpt lat="45.63903" lon="3.20944">
        <ele>342.889984</ele>
        <time>2011-09-01T09:38:10Z</time>
      </trkpt>
      <trkpt lat="45.63888" lon="3.20948">
        <ele>343.201263</ele>
        <time>2011-09-01T09:38:13Z</time>
      </trkpt>
      <trkpt lat="45.63873" lon="3.20952">
        <ele>343.217499</ele>
        <time>2011-09-01T09:38:16Z</time>
      </trkpt>
      <trkpt lat="45.63854" lon="3.20956">
        <ele>343.255005</ele>
        <time>2011-09-01T09:38:20Z</time>
      </trkpt>
      <trkpt lat="45.63836" lon="3.20963">
        <ele>342.961975</ele>
        <time>2011-09-01T09:38:24Z</time>
      </trkpt>
      <trkpt lat="45.63818" lon="3.2097">
        <ele>342.668457</ele>
        <time>2011-09-01T09:38:28Z</time>
      </trkpt>
      <trkpt lat="45.63801" lon="3.20977">
        <ele>342.279083</ele>
        <time>2011-09-01T09:38:32Z</time>
      </trkpt>
      <trkpt lat="45.63784" lon="3.20981">
        <ele>342.623322</ele>
        <time>2011-09-01T09:38:35Z</time>
      </trkpt>
      <trkpt lat="45.63766" lon="3.20982">
        <ele>343.247742</ele>
        <time>2011-09-01T09:38:38Z</time>
      </trkpt>
      <trkpt lat="45.63748" lon="3.20981">
        <ele>343.875305</ele>
        <time>2011-09-01T09:38:41Z</time>
      </trkpt>
      <trkpt lat="45.63732" lon="3.20985">
        <ele>344.138947</ele>
        <time>2011-09-01T09:38:44Z</time>
      </trkpt>
      <trkpt lat="45.63718" lon="3.20988">
        <ele>344.410126</ele>
        <time>2011-09-01T09:38:47Z</time>
      </trkpt>
      <trkpt lat="45.63699" lon="3.20993">
        <ele>344.76001</ele>
        <time>2011-09-01T09:38:51Z</time>
      </trkpt>
      <trkpt lat="45.63684" lon="3.21">
        <ele>344.85965</ele>
        <time>2011-09-01T09:38:55Z</time>
      </trkpt>
      <trkpt lat="45.63663" lon="3.21007">
        <ele>345.046844</ele>
        <time>2011-09-01T09:39:00Z</time>
      </trkpt>
      <trkpt lat="45.6364" lon="3.21012">
        <ele>345.67511</ele>
        <time>2011-09-01T09:39:03Z</time>
      </trkpt>
      <trkpt lat="45.63619" lon="3.21011">
        <ele>346.539093</ele>
        <time>2011-09-01T09:39:07Z</time>
      </trkpt>
      <trkpt lat="45.63602" lon="3.21021">
        <ele>346.836243</ele>
        <time>2011-09-01T09:39:11Z</time>
      </trkpt>
      <trkpt lat="45.63589" lon="3.21029">
        <ele>347.218414</ele>
        <time>2011-09-01T09:39:14Z</time>
      </trkpt>
      <trkpt lat="45.63576" lon="3.21033">
        <ele>347.721375</ele>
        <time>2011-09-01T09:39:17Z</time>
      </trkpt>
      <trkpt lat="45.63549" lon="3.21054">
        <ele>348.022064</ele>
        <time>2011-09-01T09:39:33Z</time>
      </trkpt>
      <trkpt lat="45.63529" lon="3.2106">
        <ele>348.172638</ele>
        <time>2011-09-01T09:39:48Z</time>
      </trkpt>
      <trkpt lat="45.63516" lon="3.21067">
        <ele>348.565308</ele>
        <time>2011-09-01T09:39:53Z</time>
      </trkpt>
      <trkpt lat="45.63501" lon="3.21081">
        <ele>348.074921</ele>
        <time>2011-09-01T09:39:58Z</time>
      </trkpt>
      <trkpt lat="45.63483" lon="3.21091">
        <ele>347.802979</ele>
        <time>2011-09-01T09:40:03Z</time>
      </trkpt>
      <trkpt lat="45.63469" lon="3.21105">
        <ele>348.285767</ele>
        <time>2011-09-01T09:40:09Z</time>
      </trkpt>
      <trkpt lat="45.63453" lon="3.21118">
        <ele>348.208252</ele>
        <time>2011-09-01T09:40:20Z</time>
      </trkpt>
      <trkpt lat="45.63435" lon="3.21132">
        <ele>347.361938</ele>
        <time>2011-09-01T09:40:28Z</time>
      </trkpt>
      <trkpt lat="45.63411" lon="3.2114">
        <ele>347.819336</ele>
        <time>2011-09-01T09:40:33Z</time>
      </trkpt>
      <trkpt lat="45.63394" lon="3.21142">
        <ele>348.327484</ele>
        <time>2011-09-01T09:40:37Z</time>
      </trkpt>
      <trkpt lat="45.63376" lon="3.21146">
        <ele>349.179749</ele>
        <time>2011-09-01T09:40:43Z</time>
      </trkpt>
      <trkpt lat="45.63354" lon="3.21158">
        <ele>349.446289</ele>
        <time>2011-09-01T09:40:53Z</time>
      </trkpt>
      <trkpt lat="45.63362" lon="3.21181">
        <ele>345.72818</ele>
        <time>2011-09-01T09:41:13Z</time>
      </trkpt>
      <trkpt lat="45.63383" lon="3.21188">
        <ele>344.571014</ele>
        <time>2011-09-01T09:41:24Z</time>
      </trkpt>
      <trkpt lat="45.63408" lon="3.21186">
        <ele>344.94751</ele>
        <time>2011-09-01T09:41:36Z</time>
      </trkpt>
      <trkpt lat="45.63423" lon="3.21175">
        <ele>345.384247</ele>
        <time>2011-09-01T09:41:48Z</time>
      </trkpt>
      <trkpt lat="45.63439" lon="3.2118">
        <ele>345.570007</ele>
        <time>2011-09-01T09:41:52Z</time>
      </trkpt>
      <trkpt lat="45.63451" lon="3.21182">
        <ele>346.145111</ele>
        <time>2011-09-01T09:41:56Z</time>
      </trkpt>
      <trkpt lat="45.63463" lon="3.21183">
        <ele>346.730194</ele>
        <time>2011-09-01T09:42:00Z</time>
      </trkpt>
      <trkpt lat="45.63476" lon="3.21183">
        <ele>347.334198</ele>
        <time>2011-09-01T09:42:05Z</time>
      </trkpt>
      <trkpt lat="45.6349" lon="3.21183">
        <ele>347.787506</ele>
        <time>2011-09-01T09:42:10Z</time>
      </trkpt>
      <trkpt lat="45.63504" lon="3.21196">
        <ele>348.660004</ele>
        <time>2011-09-01T09:42:21Z</time>
      </trkpt>
      <trkpt lat="45.63505" lon="3.21212">
        <ele>349.477509</ele>
        <time>2011-09-01T09:42:37Z</time>
      </trkpt>
      <trkpt lat="45.63512" lon="3.21203">
        <ele>349.186249</ele>
        <time>2011-09-01T09:43:24Z</time>
      </trkpt>
      <trkpt lat="45.63519" lon="3.21194">
        <ele>348.926239</ele>
        <time>2011-09-01T09:43:51Z</time>
      </trkpt>
      <trkpt lat="45.63528" lon="3.21187">
        <ele>348.805969</ele>
        <time>2011-09-01T09:44:02Z</time>
      </trkpt>
      <trkpt lat="45.63536" lon="3.21174">
        <ele>348.42746</ele>
        <time>2011-09-01T09:44:15Z</time>
      </trkpt>
      <trkpt lat="45.63549" lon="3.21171">
        <ele>348.649384</ele>
        <time>2011-09-01T09:44:23Z</time>
      </trkpt>
      <trkpt lat="45.63564" lon="3.21166">
        <ele>348.732025</ele>
        <time>2011-09-01T09:44:29Z</time>
      </trkpt>
      <trkpt lat="45.63579" lon="3.21159">
        <ele>348.719757</ele>
        <time>2011-09-01T09:44:34Z</time>
      </trkpt>
      <trkpt lat="45.63595" lon="3.21152">
        <ele>348.631836</ele>
        <time>2011-09-01T09:44:40Z</time>
      </trkpt>
      <trkpt lat="45.63609" lon="3.21149">
        <ele>348.729919</ele>
        <time>2011-09-01T09:44:44Z</time>
      </trkpt>
      <trkpt lat="45.63628" lon="3.21137">
        <ele>348.417358</ele>
        <time>2011-09-01T09:44:53Z</time>
      </trkpt>
      <trkpt lat="45.63645" lon="3.21119">
        <ele>347.147461</ele>
        <time>2011-09-01T09:45:09Z</time>
      </trkpt>
      <trkpt lat="45.63666" lon="3.21112">
        <ele>346.409058</ele>
        <time>2011-09-01T09:45:28Z</time>
      </trkpt>
      <trkpt lat="45.63688" lon="3.21106">
        <ele>346.427826</ele>
        <time>2011-09-01T09:45:44Z</time>
      </trkpt>
      <trkpt lat="45.63706" lon="3.21095">
        <ele>345.690796</ele>
        <time>2011-09-01T09:45:55Z</time>
      </trkpt>
      <trkpt lat="45.63728" lon="3.21083">
        <ele>344.319977</ele>
        <time>2011-09-01T09:46:08Z</time>
      </trkpt>
      <trkpt lat="45.63741" lon="3.21071">
        <ele>343.4729</ele>
        <time>2011-09-01T09:46:18Z</time>
      </trkpt>
      <trkpt lat="45.63761" lon="3.2107">
        <ele>343.037506</ele>
        <time>2011-09-01T09:46:38Z</time>
      </trkpt>
      <trkpt lat="45.63782" lon="3.21062">
        <ele>342.46106</ele>
        <time>2011-09-01T09:46:47Z</time>
      </trkpt>
      <trkpt lat="45.63797" lon="3.21056">
        <ele>341.894257</ele>
        <time>2011-09-01T09:46:53Z</time>
      </trkpt>
      <trkpt lat="45.63813" lon="3.21047">
        <ele>341.660004</ele>
        <time>2011-09-01T09:46:58Z</time>
      </trkpt>
      <trkpt lat="45.63835" lon="3.21036">
        <ele>341.432495</ele>
        <time>2011-09-01T09:47:07Z</time>
      </trkpt>
      <trkpt lat="45.63856" lon="3.21028">
        <ele>341.074097</ele>
        <time>2011-09-01T09:47:14Z</time>
      </trkpt>
      <trkpt lat="45.63874" lon="3.21019">
        <ele>341.160645</ele>
        <time>2011-09-01T09:47:20Z</time>
      </trkpt>
      <trkpt lat="45.63889" lon="3.21018">
        <ele>341.106995</ele>
        <time>2011-09-01T09:47:25Z</time>
      </trkpt>
      <trkpt lat="45.63913" lon="3.21015">
        <ele>340.536072</ele>
        <time>2011-09-01T09:47:34Z</time>
      </trkpt>
      <trkpt lat="45.63935" lon="3.2101">
        <ele>339.964996</ele>
        <time>2011-09-01T09:47:47Z</time>
      </trkpt>
      <trkpt lat="45.63958" lon="3.21004">
        <ele>339.454987</ele>
        <time>2011-09-01T09:48:04Z</time>
      </trkpt>
      <trkpt lat="45.63972" lon="3.21001">
        <ele>339.137512</ele>
        <time>2011-09-01T09:48:14Z</time>
      </trkpt>
      <trkpt lat="45.63991" lon="3.20994">
        <ele>339</ele>
        <time>2011-09-01T09:48:26Z</time>
      </trkpt>
      <trkpt lat="45.64007" lon="3.20992">
        <ele>339</ele>
        <time>2011-09-01T09:48:39Z</time>
      </trkpt>
      <trkpt lat="45.64027" lon="3.20985">
        <ele>339</ele>
        <time>2011-09-01T09:48:55Z</time>
      </trkpt>
      <trkpt lat="45.64044" lon="3.20982">
        <ele>339</ele>
        <time>2011-09-01T09:49:02Z</time>
      </trkpt>
      <trkpt lat="45.64067" lon="3.20977">
        <ele>339</ele>
        <time>2011-09-01T09:49:13Z</time>
      </trkpt>
      <trkpt lat="45.64089" lon="3.2097">
        <ele>338.566528</ele>
        <time>2011-09-01T09:49:26Z</time>
      </trkpt>
      <trkpt lat="45.64113" lon="3.20961">
        <ele>338.259583</ele>
        <time>2011-09-01T09:49:44Z</time>
      </trkpt>
      <trkpt lat="45.64129" lon="3.2096">
        <ele>338.288452</ele>
        <time>2011-09-01T09:49:50Z</time>
      </trkpt>
      <trkpt lat="45.6415" lon="3.20958">
        <ele>338.302124</ele>
        <time>2011-09-01T09:50:02Z</time>
      </trkpt>
      <trkpt lat="45.64167" lon="3.20956">
        <ele>338.170013</ele>
        <time>2011-09-01T09:50:09Z</time>
      </trkpt>
      <trkpt lat="45.64187" lon="3.20948">
        <ele>337.972504</ele>
        <time>2011-09-01T09:50:18Z</time>
      </trkpt>
      <trkpt lat="45.64204" lon="3.20942">
        <ele>337.823883</ele>
        <time>2011-09-01T09:50:26Z</time>
      </trkpt>
      <trkpt lat="45.64226" lon="3.20933">
        <ele>338.320496</ele>
        <time>2011-09-01T09:50:37Z</time>
      </trkpt>
      <trkpt lat="45.64247" lon="3.20924">
        <ele>338.686157</ele>
        <time>2011-09-01T09:50:49Z</time>
      </trkpt>
      <trkpt lat="45.64275" lon="3.20921">
        <ele>338.751251</ele>
        <time>2011-09-01T09:51:04Z</time>
      </trkpt>
      <trkpt lat="45.64285" lon="3.20896">
        <ele>339.299988</ele>
        <time>2011-09-01T09:51:21Z</time>
      </trkpt>
      <trkpt lat="45.64298" lon="3.20908">
        <ele>338.957489</ele>
        <time>2011-09-01T09:51:35Z</time>
      </trkpt>
      <trkpt lat="45.64316" lon="3.20903">
        <ele>339.082489</ele>
        <time>2011-09-01T09:51:47Z</time>
      </trkpt>
      <trkpt lat="45.64339" lon="3.209">
        <ele>339.190002</ele>
        <time>2011-09-01T09:51:55Z</time>
      </trkpt>
      <trkpt lat="45.64358" lon="3.20891">
        <ele>339.477509</ele>
        <time>2011-09-01T09:52:09Z</time>
      </trkpt>
      <trkpt lat="45.64376" lon="3.2089">
        <ele>339.524994</ele>
        <time>2011-09-01T09:52:18Z</time>
      </trkpt>
      <trkpt lat="45.64401" lon="3.2088">
        <ele>339.842499</ele>
        <time>2011-09-01T09:52:28Z</time>
      </trkpt>
      <trkpt lat="45.64416" lon="3.20873">
        <ele>340.067505</ele>
        <time>2011-09-01T09:52:33Z</time>
      </trkpt>
      <trkpt lat="45.64432" lon="3.20874">
        <ele>340.040009</ele>
        <time>2011-09-01T09:52:37Z</time>
      </trkpt>
      <trkpt lat="45.64452" lon="3.20881">
        <ele>339.850006</ele>
        <time>2011-09-01T09:52:41Z</time>
      </trkpt>
      <trkpt lat="45.64469" lon="3.20883">
        <ele>339.777496</ele>
        <time>2011-09-01T09:52:44Z</time>
      </trkpt>
      <trkpt lat="45.64489" lon="3.20879">
        <ele>339.929993</ele>
        <time>2011-09-01T09:52:47Z</time>
      </trkpt>
      <trkpt lat="45.64518" lon="3.20875">
        <ele>340.065002</ele>
        <time>2011-09-01T09:52:50Z</time>
      </trkpt>
      <trkpt lat="45.64535" lon="3.2087">
        <ele>339.999207</ele>
        <time>2011-09-01T09:52:53Z</time>
      </trkpt>
      <trkpt lat="45.64557" lon="3.20873">
        <ele>339.656799</ele>
        <time>2011-09-01T09:52:56Z</time>
      </trkpt>
      <trkpt lat="45.6457" lon="3.2087">
        <ele>339.625</ele>
        <time>2011-09-01T09:52:58Z</time>
      </trkpt>
      <trkpt lat="45.64579" lon="3.2086">
        <ele>339.769989</ele>
        <time>2011-09-01T09:53:00Z</time>
      </trkpt>
      <trkpt lat="45.64587" lon="3.20851">
        <ele>339.926239</ele>
        <time>2011-09-01T09:53:02Z</time>
      </trkpt>
      <trkpt lat="45.64597" lon="3.20836">
        <ele>340.202393</ele>
        <time>2011-09-01T09:53:05Z</time>
      </trkpt>
      <trkpt lat="45.64608" lon="3.20816">
        <ele>340.486328</ele>
        <time>2011-09-01T09:53:09Z</time>
      </trkpt>
      <trkpt lat="45.64621" lon="3.20803">
        <ele>340.597687</ele>
        <time>2011-09-01T09:53:13Z</time>
      </trkpt>
      <trkpt lat="45.6463" lon="3.20786">
        <ele>340.91803</ele>
        <time>2011-09-01T09:53:16Z</time>
      </trkpt>
      <trkpt lat="45.64638" lon="3.2077">
        <ele>341.072662</ele>
        <time>2011-09-01T09:53:19Z</time>
      </trkpt>
      <trkpt lat="45.64647" lon="3.20755">
        <ele>341.072021</ele>
        <time>2011-09-01T09:53:22Z</time>
      </trkpt>
      <trkpt lat="45.64661" lon="3.20743">
        <ele>340.877502</ele>
        <time>2011-09-01T09:53:25Z</time>
      </trkpt>
      <trkpt lat="45.64672" lon="3.20729">
        <ele>340.61499</ele>
        <time>2011-09-01T09:53:28Z</time>
      </trkpt>
      <trkpt lat="45.64682" lon="3.20716">
        <ele>340.402496</ele>
        <time>2011-09-01T09:53:31Z</time>
      </trkpt>
      <trkpt lat="45.64694" lon="3.20711">
        <ele>340.142487</ele>
        <time>2011-09-01T09:53:34Z</time>
      </trkpt>
      <trkpt lat="45.64708" lon="3.2071">
        <ele>340</ele>
        <time>2011-09-01T09:53:38Z</time>
      </trkpt>
      <trkpt lat="45.6472" lon="3.20697">
        <ele>340</ele>
        <time>2011-09-01T09:53:41Z</time>
      </trkpt>
      <trkpt lat="45.64725" lon="3.20674">
        <ele>340</ele>
        <time>2011-09-01T09:53:44Z</time>
      </trkpt>
      <trkpt lat="45.64725" lon="3.20652">
        <ele>340</ele>
        <time>2011-09-01T09:53:47Z</time>
      </trkpt>
      <trkpt lat="45.64722" lon="3.20633">
        <ele>340</ele>
        <time>2011-09-01T09:53:50Z</time>
      </trkpt>
      <trkpt lat="45.64721" lon="3.2061">
        <ele>340</ele>
        <time>2011-09-01T09:53:53Z</time>
      </trkpt>
      <trkpt lat="45.64725" lon="3.20588">
        <ele>339.943817</ele>
        <time>2011-09-01T09:53:56Z</time>
      </trkpt>
      <trkpt lat="45.64728" lon="3.20568">
        <ele>339.576233</ele>
        <time>2011-09-01T09:53:59Z</time>
      </trkpt>
      <trkpt lat="45.64731" lon="3.20549">
        <ele>339.117249</ele>
        <time>2011-09-01T09:54:02Z</time>
      </trkpt>
      <trkpt lat="45.64731" lon="3.20528">
        <ele>338.729462</ele>
        <time>2011-09-01T09:54:05Z</time>
      </trkpt>
      <trkpt lat="45.64728" lon="3.20512">
        <ele>338.694733</ele>
        <time>2011-09-01T09:54:07Z</time>
      </trkpt>
      <trkpt lat="45.64725" lon="3.2049">
        <ele>338.689392</ele>
        <time>2011-09-01T09:54:10Z</time>
      </trkpt>
      <trkpt lat="45.64722" lon="3.20474">
        <ele>338.750488</ele>
        <time>2011-09-01T09:54:12Z</time>
      </trkpt>
      <trkpt lat="45.64719" lon="3.20451">
        <ele>338.981384</ele>
        <time>2011-09-01T09:54:15Z</time>
      </trkpt>
      <trkpt lat="45.64715" lon="3.20428">
        <ele>339.298553</ele>
        <time>2011-09-01T09:54:18Z</time>
      </trkpt>
      <trkpt lat="45.64714" lon="3.20412">
        <ele>339.433502</ele>
        <time>2011-09-01T09:54:20Z</time>
      </trkpt>
      <trkpt lat="45.64713" lon="3.20396">
        <ele>339.529999</ele>
        <time>2011-09-01T09:54:22Z</time>
      </trkpt>
      <trkpt lat="45.64714" lon="3.2038">
        <ele>339.519989</ele>
        <time>2011-09-01T09:54:24Z</time>
      </trkpt>
      <trkpt lat="45.64713" lon="3.20366">
        <ele>339.540009</ele>
        <time>2011-09-01T09:54:26Z</time>
      </trkpt>
      <trkpt lat="45.64714" lon="3.20351">
        <ele>339.524994</ele>
        <time>2011-09-01T09:54:28Z</time>
      </trkpt>
      <trkpt lat="45.64714" lon="3.20337">
        <ele>339.494995</ele>
        <time>2011-09-01T09:54:30Z</time>
      </trkpt>
      <trkpt lat="45.64717" lon="3.20322">
        <ele>339.404999</ele>
        <time>2011-09-01T09:54:32Z</time>
      </trkpt>
      <trkpt lat="45.6472" lon="3.20308">
        <ele>339.26001</ele>
        <time>2011-09-01T09:54:34Z</time>
      </trkpt>
      <trkpt lat="45.64723" lon="3.20295">
        <ele>339.144989</ele>
        <time>2011-09-01T09:54:36Z</time>
      </trkpt>
      <trkpt lat="45.64727" lon="3.20282">
        <ele>338.959991</ele>
        <time>2011-09-01T09:54:38Z</time>
      </trkpt>
      <trkpt lat="45.64732" lon="3.20269">
        <ele>338.762512</ele>
        <time>2011-09-01T09:54:40Z</time>
      </trkpt>
      <trkpt lat="45.64738" lon="3.20255">
        <ele>338.737488</ele>
        <time>2011-09-01T09:54:42Z</time>
      </trkpt>
      <trkpt lat="45.64742" lon="3.20241">
        <ele>338.748749</ele>
        <time>2011-09-01T09:54:45Z</time>
      </trkpt>
      <trkpt lat="45.64749" lon="3.20233">
        <ele>338.609985</ele>
        <time>2011-09-01T09:54:52Z</time>
      </trkpt>
      <trkpt lat="45.64769" lon="3.2025">
        <ele>338.919159</ele>
        <time>2011-09-01T09:55:26Z</time>
      </trkpt>
      <trkpt lat="45.64768" lon="3.20265">
        <ele>338.88269</ele>
        <time>2011-09-01T09:55:39Z</time>
      </trkpt>
      <trkpt lat="45.64765" lon="3.2027">
        <ele>338.731873</ele>
        <time>2011-09-01T09:57:01Z</time>
      </trkpt>
      <trkpt lat="45.64763" lon="3.20267">
        <ele>338.67276</ele>
        <time>2011-09-01T09:58:14Z</time>
      </trkpt>
      <trkpt lat="45.64769" lon="3.20255">
        <ele>338.936676</ele>
        <time>2011-09-01T09:58:30Z</time>
      </trkpt>
      <trkpt lat="45.64757" lon="3.20242">
        <ele>338.640564</ele>
        <time>2011-09-01T09:59:02Z</time>
      </trkpt>
      <trkpt lat="45.64749" lon="3.20234">
        <ele>338.591248</ele>
        <time>2011-09-01T09:59:12Z</time>
      </trkpt>
      <trkpt lat="45.6474" lon="3.20226">
        <ele>339.079987</ele>
        <time>2011-09-01T09:59:20Z</time>
      </trkpt>
      <trkpt lat="45.64734" lon="3.20213">
        <ele>339.578735</ele>
        <time>2011-09-01T09:59:24Z</time>
      </trkpt>
      <trkpt lat="45.6473" lon="3.202">
        <ele>339.906616</ele>
        <time>2011-09-01T09:59:27Z</time>
      </trkpt>
      <trkpt lat="45.64724" lon="3.20185">
        <ele>340.305511</ele>
        <time>2011-09-01T09:59:31Z</time>
      </trkpt>
      <trkpt lat="45.64716" lon="3.20173">
        <ele>340.884644</ele>
        <time>2011-09-01T09:59:35Z</time>
      </trkpt>
      <trkpt lat="45.64708" lon="3.20164">
        <ele>341.463684</ele>
        <time>2011-09-01T09:59:38Z</time>
      </trkpt>
      <trkpt lat="45.64699" lon="3.20154">
        <ele>342.058746</ele>
        <time>2011-09-01T09:59:41Z</time>
      </trkpt>
      <trkpt lat="45.6469" lon="3.20144">
        <ele>342.589996</ele>
        <time>2011-09-01T09:59:44Z</time>
      </trkpt>
      <trkpt lat="45.64682" lon="3.20135">
        <ele>343.096252</ele>
        <time>2011-09-01T09:59:47Z</time>
      </trkpt>
      <trkpt lat="45.64674" lon="3.20126">
        <ele>343.598755</ele>
        <time>2011-09-01T09:59:50Z</time>
      </trkpt>
      <trkpt lat="45.64666" lon="3.20118">
        <ele>344.088745</ele>
        <time>2011-09-01T09:59:53Z</time>
      </trkpt>
      <trkpt lat="45.64658" lon="3.20109">
        <ele>344.597351</ele>
        <time>2011-09-01T09:59:56Z</time>
      </trkpt>
      <trkpt lat="45.6465" lon="3.20102">
        <ele>345.132751</ele>
        <time>2011-09-01T09:59:59Z</time>
      </trkpt>
      <trkpt lat="45.64639" lon="3.20103">
        <ele>345.702606</ele>
        <time>2011-09-01T10:00:03Z</time>
      </trkpt>
      <trkpt lat="45.64629" lon="3.20113">
        <ele>346.222565</ele>
        <time>2011-09-01T10:00:07Z</time>
      </trkpt>
      <trkpt lat="45.6462" lon="3.20112">
        <ele>346.71936</ele>
        <time>2011-09-01T10:00:10Z</time>
      </trkpt>
      <trkpt lat="45.64613" lon="3.201">
        <ele>347.08548</ele>
        <time>2011-09-01T10:00:13Z</time>
      </trkpt>
      <trkpt lat="45.64607" lon="3.20089">
        <ele>347.532013</ele>
        <time>2011-09-01T10:00:16Z</time>
      </trkpt>
      <trkpt lat="45.64599" lon="3.2008">
        <ele>348.072632</ele>
        <time>2011-09-01T10:00:19Z</time>
      </trkpt>
      <trkpt lat="45.64591" lon="3.20072">
        <ele>348.639771</ele>
        <time>2011-09-01T10:00:22Z</time>
      </trkpt>
      <trkpt lat="45.64583" lon="3.20064">
        <ele>349.279053</ele>
        <time>2011-09-01T10:00:25Z</time>
      </trkpt>
      <trkpt lat="45.64575" lon="3.20056">
        <ele>349.941437</ele>
        <time>2011-09-01T10:00:28Z</time>
      </trkpt>
      <trkpt lat="45.64566" lon="3.20048">
        <ele>350.938782</ele>
        <time>2011-09-01T10:00:32Z</time>
      </trkpt>
      <trkpt lat="45.64557" lon="3.20041">
        <ele>352.070007</ele>
        <time>2011-09-01T10:00:36Z</time>
      </trkpt>
      <trkpt lat="45.6455" lon="3.2003">
        <ele>353.195984</ele>
        <time>2011-09-01T10:00:40Z</time>
      </trkpt>
      <trkpt lat="45.6455" lon="3.20014">
        <ele>353.650696</ele>
        <time>2011-09-01T10:00:44Z</time>
      </trkpt>
      <trkpt lat="45.64554" lon="3.2">
        <ele>353.724365</ele>
        <time>2011-09-01T10:00:47Z</time>
      </trkpt>
      <trkpt lat="45.64558" lon="3.19988">
        <ele>353.63681</ele>
        <time>2011-09-01T10:00:50Z</time>
      </trkpt>
      <trkpt lat="45.64563" lon="3.19975">
        <ele>353.407135</ele>
        <time>2011-09-01T10:00:53Z</time>
      </trkpt>
      <trkpt lat="45.64567" lon="3.19962">
        <ele>353.199738</ele>
        <time>2011-09-01T10:00:56Z</time>
      </trkpt>
      <trkpt lat="45.64571" lon="3.19946">
        <ele>353.135559</ele>
        <time>2011-09-01T10:00:59Z</time>
      </trkpt>
      <trkpt lat="45.64572" lon="3.19932">
        <ele>353.447601</ele>
        <time>2011-09-01T10:01:01Z</time>
      </trkpt>
      <trkpt lat="45.6457" lon="3.19918">
        <ele>354.170441</ele>
        <time>2011-09-01T10:01:03Z</time>
      </trkpt>
      <trkpt lat="45.64569" lon="3.19904">
        <ele>354.892914</ele>
        <time>2011-09-01T10:01:05Z</time>
      </trkpt>
      <trkpt lat="45.64568" lon="3.19891">
        <ele>355.633026</ele>
        <time>2011-09-01T10:01:07Z</time>
      </trkpt>
      <trkpt lat="45.64566" lon="3.19871">
        <ele>356.578003</ele>
        <time>2011-09-01T10:01:10Z</time>
      </trkpt>
      <trkpt lat="45.64565" lon="3.19857">
        <ele>357.175049</ele>
        <time>2011-09-01T10:01:12Z</time>
      </trkpt>
      <trkpt lat="45.64564" lon="3.1984">
        <ele>357.809448</ele>
        <time>2011-09-01T10:01:15Z</time>
      </trkpt>
      <trkpt lat="45.64563" lon="3.19827">
        <ele>358.319122</ele>
        <time>2011-09-01T10:01:18Z</time>
      </trkpt>
      <trkpt lat="45.64562" lon="3.19813">
        <ele>359.188873</ele>
        <time>2011-09-01T10:01:22Z</time>
      </trkpt>
      <trkpt lat="45.64561" lon="3.19799">
        <ele>360.113129</ele>
        <time>2011-09-01T10:01:29Z</time>
      </trkpt>
      <trkpt lat="45.6456" lon="3.19783">
        <ele>360.837738</ele>
        <time>2011-09-01T10:01:34Z</time>
      </trkpt>
      <trkpt lat="45.64561" lon="3.19767">
        <ele>361.328247</ele>
        <time>2011-09-01T10:01:37Z</time>
      </trkpt>
      <trkpt lat="45.64562" lon="3.19748">
        <ele>361.528748</ele>
        <time>2011-09-01T10:01:40Z</time>
      </trkpt>
      <trkpt lat="45.64563" lon="3.19735">
        <ele>361.097504</ele>
        <time>2011-09-01T10:01:42Z</time>
      </trkpt>
      <trkpt lat="45.64566" lon="3.19715">
        <ele>360.28125</ele>
        <time>2011-09-01T10:01:45Z</time>
      </trkpt>
      <trkpt lat="45.64569" lon="3.19701">
        <ele>359.598755</ele>
        <time>2011-09-01T10:01:47Z</time>
      </trkpt>
      <trkpt lat="45.64571" lon="3.19687">
        <ele>358.961884</ele>
        <time>2011-09-01T10:01:49Z</time>
      </trkpt>
      <trkpt lat="45.64573" lon="3.19673">
        <ele>358.507751</ele>
        <time>2011-09-01T10:01:51Z</time>
      </trkpt>
      <trkpt lat="45.64575" lon="3.19659">
        <ele>358.11145</ele>
        <time>2011-09-01T10:01:53Z</time>
      </trkpt>
      <trkpt lat="45.64576" lon="3.19639">
        <ele>357.930603</ele>
        <time>2011-09-01T10:01:56Z</time>
      </trkpt>
      <trkpt lat="45.64577" lon="3.19625">
        <ele>357.884979</ele>
        <time>2011-09-01T10:01:58Z</time>
      </trkpt>
      <trkpt lat="45.64579" lon="3.19608">
        <ele>358.567596</ele>
        <time>2011-09-01T10:02:00Z</time>
      </trkpt>
      <trkpt lat="45.6458" lon="3.19588">
        <ele>359.57431</ele>
        <time>2011-09-01T10:02:02Z</time>
      </trkpt>
      <trkpt lat="45.64581" lon="3.19572">
        <ele>360.282684</ele>
        <time>2011-09-01T10:02:04Z</time>
      </trkpt>
      <trkpt lat="45.64582" lon="3.19557">
        <ele>360.761749</ele>
        <time>2011-09-01T10:02:06Z</time>
      </trkpt>
      <trkpt lat="45.64583" lon="3.19541">
        <ele>361.128632</ele>
        <time>2011-09-01T10:02:08Z</time>
      </trkpt>
      <trkpt lat="45.64584" lon="3.19524">
        <ele>361.606476</ele>
        <time>2011-09-01T10:02:10Z</time>
      </trkpt>
      <trkpt lat="45.64585" lon="3.19508">
        <ele>361.861115</ele>
        <time>2011-09-01T10:02:12Z</time>
      </trkpt>
      <trkpt lat="45.64586" lon="3.19491">
        <ele>362.167236</ele>
        <time>2011-09-01T10:02:14Z</time>
      </trkpt>
      <trkpt lat="45.64587" lon="3.19474">
        <ele>362.261353</ele>
        <time>2011-09-01T10:02:16Z</time>
      </trkpt>
      <trkpt lat="45.64587" lon="3.19457">
        <ele>362.702209</ele>
        <time>2011-09-01T10:02:18Z</time>
      </trkpt>
      <trkpt lat="45.64589" lon="3.1944">
        <ele>362.681213</ele>
        <time>2011-09-01T10:02:20Z</time>
      </trkpt>
      <trkpt lat="45.64592" lon="3.19423">
        <ele>362.243744</ele>
        <time>2011-09-01T10:02:22Z</time>
      </trkpt>
      <trkpt lat="45.64596" lon="3.19407">
        <ele>361.047485</ele>
        <time>2011-09-01T10:02:24Z</time>
      </trkpt>
      <trkpt lat="45.64601" lon="3.19391">
        <ele>359.589996</ele>
        <time>2011-09-01T10:02:26Z</time>
      </trkpt>
      <trkpt lat="45.64606" lon="3.19374">
        <ele>358.226257</ele>
        <time>2011-09-01T10:02:28Z</time>
      </trkpt>
      <trkpt lat="45.64611" lon="3.19355">
        <ele>357.645447</ele>
        <time>2011-09-01T10:02:30Z</time>
      </trkpt>
      <trkpt lat="45.64614" lon="3.19334">
        <ele>358.07901</ele>
        <time>2011-09-01T10:02:32Z</time>
      </trkpt>
      <trkpt lat="45.64617" lon="3.19316">
        <ele>358.51004</ele>
        <time>2011-09-01T10:02:34Z</time>
      </trkpt>
      <trkpt lat="45.6462" lon="3.193">
        <ele>358.864868</ele>
        <time>2011-09-01T10:02:36Z</time>
      </trkpt>
      <trkpt lat="45.64623" lon="3.19285">
        <ele>359.157837</ele>
        <time>2011-09-01T10:02:38Z</time>
      </trkpt>
      <trkpt lat="45.64627" lon="3.19271">
        <ele>359.255524</ele>
        <time>2011-09-01T10:02:40Z</time>
      </trkpt>
      <trkpt lat="45.64631" lon="3.19255">
        <ele>359.161865</ele>
        <time>2011-09-01T10:02:42Z</time>
      </trkpt>
      <trkpt lat="45.64635" lon="3.1924">
        <ele>358.902344</ele>
        <time>2011-09-01T10:02:44Z</time>
      </trkpt>
      <trkpt lat="45.6464" lon="3.19225">
        <ele>358.402588</ele>
        <time>2011-09-01T10:02:46Z</time>
      </trkpt>
      <trkpt lat="45.64643" lon="3.1921">
        <ele>358.026794</ele>
        <time>2011-09-01T10:02:48Z</time>
      </trkpt>
      <trkpt lat="45.64644" lon="3.19194">
        <ele>358.608887</ele>
        <time>2011-09-01T10:02:50Z</time>
      </trkpt>
      <trkpt lat="45.64643" lon="3.19176">
        <ele>359.640533</ele>
        <time>2011-09-01T10:02:52Z</time>
      </trkpt>
      <trkpt lat="45.64642" lon="3.19161">
        <ele>360.102905</ele>
        <time>2011-09-01T10:02:54Z</time>
      </trkpt>
      <trkpt lat="45.64646" lon="3.19143">
        <ele>359.071838</ele>
        <time>2011-09-01T10:02:57Z</time>
      </trkpt>
      <trkpt lat="45.6465" lon="3.1913">
        <ele>357.815613</ele>
        <time>2011-09-01T10:02:59Z</time>
      </trkpt>
      <trkpt lat="45.64655" lon="3.19113">
        <ele>357.033905</ele>
        <time>2011-09-01T10:03:01Z</time>
      </trkpt>
      <trkpt lat="45.6466" lon="3.19093">
        <ele>356.306335</ele>
        <time>2011-09-01T10:03:03Z</time>
      </trkpt>
      <trkpt lat="45.64664" lon="3.1907">
        <ele>356.097382</ele>
        <time>2011-09-01T10:03:05Z</time>
      </trkpt>
      <trkpt lat="45.64666" lon="3.19057">
        <ele>356.13736</ele>
        <time>2011-09-01T10:03:06Z</time>
      </trkpt>
      <trkpt lat="45.64668" lon="3.19043">
        <ele>355.893127</ele>
        <time>2011-09-01T10:03:07Z</time>
      </trkpt>
      <trkpt lat="45.6467" lon="3.19029">
        <ele>355.412598</ele>
        <time>2011-09-01T10:03:08Z</time>
      </trkpt>
      <trkpt lat="45.64672" lon="3.19014">
        <ele>354.96106</ele>
        <time>2011-09-01T10:03:09Z</time>
      </trkpt>
      <trkpt lat="45.64674" lon="3.18998">
        <ele>354.544464</ele>
        <time>2011-09-01T10:03:10Z</time>
      </trkpt>
      <trkpt lat="45.64676" lon="3.18982">
        <ele>354.076111</ele>
        <time>2011-09-01T10:03:11Z</time>
      </trkpt>
      <trkpt lat="45.64678" lon="3.18967">
        <ele>353.484009</ele>
        <time>2011-09-01T10:03:12Z</time>
      </trkpt>
      <trkpt lat="45.6468" lon="3.18951">
        <ele>352.929626</ele>
        <time>2011-09-01T10:03:13Z</time>
      </trkpt>
      <trkpt lat="45.64682" lon="3.18935">
        <ele>352.411346</ele>
        <time>2011-09-01T10:03:14Z</time>
      </trkpt>
      <trkpt lat="45.64683" lon="3.1892">
        <ele>352.011108</ele>
        <time>2011-09-01T10:03:15Z</time>
      </trkpt>
      <trkpt lat="45.64685" lon="3.18906">
        <ele>351.772522</ele>
        <time>2011-09-01T10:03:16Z</time>
      </trkpt>
      <trkpt lat="45.64687" lon="3.18882">
        <ele>351.435211</ele>
        <time>2011-09-01T10:03:18Z</time>
      </trkpt>
      <trkpt lat="45.64689" lon="3.18862">
        <ele>351.136597</ele>
        <time>2011-09-01T10:03:20Z</time>
      </trkpt>
      <trkpt lat="45.64693" lon="3.18844">
        <ele>350.940002</ele>
        <time>2011-09-01T10:03:22Z</time>
      </trkpt>
      <trkpt lat="45.64698" lon="3.18829">
        <ele>350.744995</ele>
        <time>2011-09-01T10:03:24Z</time>
      </trkpt>
      <trkpt lat="45.64703" lon="3.18815">
        <ele>350.529999</ele>
        <time>2011-09-01T10:03:26Z</time>
      </trkpt>
      <trkpt lat="45.64707" lon="3.18803">
        <ele>350.329987</ele>
        <time>2011-09-01T10:03:28Z</time>
      </trkpt>
      <trkpt lat="45.64712" lon="3.18787">
        <ele>350.376862</ele>
        <time>2011-09-01T10:03:31Z</time>
      </trkpt>
      <trkpt lat="45.64716" lon="3.18776">
        <ele>350.578217</ele>
        <time>2011-09-01T10:03:35Z</time>
      </trkpt>
      <trkpt lat="45.64721" lon="3.18767">
        <ele>350.811035</ele>
        <time>2011-09-01T10:03:53Z</time>
      </trkpt>
      <trkpt lat="45.64731" lon="3.18767">
        <ele>350.677002</ele>
        <time>2011-09-01T10:04:01Z</time>
      </trkpt>
      <trkpt lat="45.6474" lon="3.18761">
        <ele>350.821777</ele>
        <time>2011-09-01T10:04:08Z</time>
      </trkpt>
      <trkpt lat="45.64749" lon="3.1876">
        <ele>350.778473</ele>
        <time>2011-09-01T10:04:15Z</time>
      </trkpt>
      <trkpt lat="45.64758" lon="3.18761">
        <ele>350.65918</ele>
        <time>2011-09-01T10:04:22Z</time>
      </trkpt>
      <trkpt lat="45.64768" lon="3.18762">
        <ele>350.67746</ele>
        <time>2011-09-01T10:04:29Z</time>
      </trkpt>
      <trkpt lat="45.64778" lon="3.18764">
        <ele>350.708008</ele>
        <time>2011-09-01T10:04:37Z</time>
      </trkpt>
      <trkpt lat="45.64788" lon="3.18768">
        <ele>350.610901</ele>
        <time>2011-09-01T10:04:44Z</time>
      </trkpt>
      <trkpt lat="45.64795" lon="3.18762">
        <ele>351.056732</ele>
        <time>2011-09-01T10:04:50Z</time>
      </trkpt>
      <trkpt lat="45.64796" lon="3.18748">
        <ele>351.887054</ele>
        <time>2011-09-01T10:04:53Z</time>
      </trkpt>
      <trkpt lat="45.64798" lon="3.18733">
        <ele>352.811035</ele>
        <time>2011-09-01T10:04:56Z</time>
      </trkpt>
      <trkpt lat="45.64801" lon="3.1872">
        <ele>353.630096</ele>
        <time>2011-09-01T10:05:00Z</time>
      </trkpt>
      <trkpt lat="45.64802" lon="3.18706">
        <ele>354.498108</ele>
        <time>2011-09-01T10:05:04Z</time>
      </trkpt>
      <trkpt lat="45.64801" lon="3.18685">
        <ele>355.594269</ele>
        <time>2011-09-01T10:05:08Z</time>
      </trkpt>
      <trkpt lat="45.64799" lon="3.18668">
        <ele>356.380005</ele>
        <time>2011-09-01T10:05:11Z</time>
      </trkpt>
      <trkpt lat="45.64798" lon="3.1865">
        <ele>356.279999</ele>
        <time>2011-09-01T10:05:14Z</time>
      </trkpt>
      <trkpt lat="45.64799" lon="3.18634">
        <ele>356.369995</ele>
        <time>2011-09-01T10:05:17Z</time>
      </trkpt>
      <trkpt lat="45.64802" lon="3.18615">
        <ele>356.609985</ele>
        <time>2011-09-01T10:05:20Z</time>
      </trkpt>
      <trkpt lat="45.64805" lon="3.18597">
        <ele>356.560272</ele>
        <time>2011-09-01T10:05:23Z</time>
      </trkpt>
      <trkpt lat="45.64809" lon="3.18579">
        <ele>356.130005</ele>
        <time>2011-09-01T10:05:26Z</time>
      </trkpt>
      <trkpt lat="45.64814" lon="3.1856">
        <ele>356.049988</ele>
        <time>2011-09-01T10:05:30Z</time>
      </trkpt>
      <trkpt lat="45.64818" lon="3.18546">
        <ele>355.959991</ele>
        <time>2011-09-01T10:05:33Z</time>
      </trkpt>
      <trkpt lat="45.64821" lon="3.18532">
        <ele>356.152496</ele>
        <time>2011-09-01T10:05:36Z</time>
      </trkpt>
      <trkpt lat="45.64824" lon="3.18517">
        <ele>356.660004</ele>
        <time>2011-09-01T10:05:39Z</time>
      </trkpt>
      <trkpt lat="45.64827" lon="3.18497">
        <ele>357.149994</ele>
        <time>2011-09-01T10:05:42Z</time>
      </trkpt>
      <trkpt lat="45.64831" lon="3.18478">
        <ele>357.640015</ele>
        <time>2011-09-01T10:05:45Z</time>
      </trkpt>
      <trkpt lat="45.64833" lon="3.18466">
        <ele>358.087341</ele>
        <time>2011-09-01T10:05:47Z</time>
      </trkpt>
      <trkpt lat="45.64836" lon="3.18444">
        <ele>358.847198</ele>
        <time>2011-09-01T10:05:50Z</time>
      </trkpt>
      <trkpt lat="45.6484" lon="3.18424">
        <ele>359.423218</ele>
        <time>2011-09-01T10:05:53Z</time>
      </trkpt>
      <trkpt lat="45.64842" lon="3.18405">
        <ele>359.855194</ele>
        <time>2011-09-01T10:05:56Z</time>
      </trkpt>
      <trkpt lat="45.64849" lon="3.18388">
        <ele>360.586853</ele>
        <time>2011-09-01T10:05:59Z</time>
      </trkpt>
      <trkpt lat="45.64856" lon="3.18375">
        <ele>361.517487</ele>
        <time>2011-09-01T10:06:01Z</time>
      </trkpt>
      <trkpt lat="45.64863" lon="3.1836">
        <ele>363.01767</ele>
        <time>2011-09-01T10:06:03Z</time>
      </trkpt>
      <trkpt lat="45.6487" lon="3.18343">
        <ele>364.256104</ele>
        <time>2011-09-01T10:06:05Z</time>
      </trkpt>
      <trkpt lat="45.64876" lon="3.18326">
        <ele>364.90799</ele>
        <time>2011-09-01T10:06:07Z</time>
      </trkpt>
      <trkpt lat="45.64879" lon="3.18308">
        <ele>365.035614</ele>
        <time>2011-09-01T10:06:09Z</time>
      </trkpt>
      <trkpt lat="45.64881" lon="3.18289">
        <ele>364.792145</ele>
        <time>2011-09-01T10:06:11Z</time>
      </trkpt>
      <trkpt lat="45.64882" lon="3.1827">
        <ele>364.490204</ele>
        <time>2011-09-01T10:06:13Z</time>
      </trkpt>
      <trkpt lat="45.64884" lon="3.18251">
        <ele>364.351929</ele>
        <time>2011-09-01T10:06:15Z</time>
      </trkpt>
      <trkpt lat="45.64888" lon="3.18233">
        <ele>364.303131</ele>
        <time>2011-09-01T10:06:17Z</time>
      </trkpt>
      <trkpt lat="45.64893" lon="3.18215">
        <ele>364.358307</ele>
        <time>2011-09-01T10:06:19Z</time>
      </trkpt>
      <trkpt lat="45.64899" lon="3.18197">
        <ele>364.61969</ele>
        <time>2011-09-01T10:06:21Z</time>
      </trkpt>
      <trkpt lat="45.64906" lon="3.18179">
        <ele>364.920715</ele>
        <time>2011-09-01T10:06:23Z</time>
      </trkpt>
      <trkpt lat="45.64912" lon="3.18161">
        <ele>365.128906</ele>
        <time>2011-09-01T10:06:25Z</time>
      </trkpt>
      <trkpt lat="45.64917" lon="3.18142">
        <ele>365.16748</ele>
        <time>2011-09-01T10:06:27Z</time>
      </trkpt>
      <trkpt lat="45.6492" lon="3.18123">
        <ele>365.018799</ele>
        <time>2011-09-01T10:06:29Z</time>
      </trkpt>
      <trkpt lat="45.64924" lon="3.18102">
        <ele>364.800171</ele>
        <time>2011-09-01T10:06:31Z</time>
      </trkpt>
      <trkpt lat="45.64927" lon="3.18081">
        <ele>364.792511</ele>
        <time>2011-09-01T10:06:33Z</time>
      </trkpt>
      <trkpt lat="45.6493" lon="3.1806">
        <ele>364.994995</ele>
        <time>2011-09-01T10:06:35Z</time>
      </trkpt>
      <trkpt lat="45.64934" lon="3.18038">
        <ele>365.257507</ele>
        <time>2011-09-01T10:06:37Z</time>
      </trkpt>
      <trkpt lat="45.64939" lon="3.18018">
        <ele>365.328552</ele>
        <time>2011-09-01T10:06:39Z</time>
      </trkpt>
      <trkpt lat="45.64942" lon="3.17996">
        <ele>365.207855</ele>
        <time>2011-09-01T10:06:41Z</time>
      </trkpt>
      <trkpt lat="45.64947" lon="3.17975">
        <ele>365.247498</ele>
        <time>2011-09-01T10:06:43Z</time>
      </trkpt>
      <trkpt lat="45.64953" lon="3.17956">
        <ele>365.455017</ele>
        <time>2011-09-01T10:06:45Z</time>
      </trkpt>
      <trkpt lat="45.64958" lon="3.17937">
        <ele>365.606262</ele>
        <time>2011-09-01T10:06:47Z</time>
      </trkpt>
      <trkpt lat="45.64964" lon="3.17918">
        <ele>365.782501</ele>
        <time>2011-09-01T10:06:49Z</time>
      </trkpt>
      <trkpt lat="45.64969" lon="3.17901">
        <ele>365.944916</ele>
        <time>2011-09-01T10:06:51Z</time>
      </trkpt>
      <trkpt lat="45.64973" lon="3.17885">
        <ele>365.980988</ele>
        <time>2011-09-01T10:06:53Z</time>
      </trkpt>
      <trkpt lat="45.64977" lon="3.17869">
        <ele>366.026245</ele>
        <time>2011-09-01T10:06:55Z</time>
      </trkpt>
      <trkpt lat="45.64981" lon="3.17854">
        <ele>366.123962</ele>
        <time>2011-09-01T10:06:57Z</time>
      </trkpt>
      <trkpt lat="45.64985" lon="3.17838">
        <ele>366.18811</ele>
        <time>2011-09-01T10:06:59Z</time>
      </trkpt>
      <trkpt lat="45.64989" lon="3.17822">
        <ele>366.363739</ele>
        <time>2011-09-01T10:07:01Z</time>
      </trkpt>
      <trkpt lat="45.64992" lon="3.17806">
        <ele>366.471252</ele>
        <time>2011-09-01T10:07:03Z</time>
      </trkpt>
      <trkpt lat="45.64995" lon="3.17789">
        <ele>366.554443</ele>
        <time>2011-09-01T10:07:05Z</time>
      </trkpt>
      <trkpt lat="45.64998" lon="3.1777">
        <ele>366.695007</ele>
        <time>2011-09-01T10:07:07Z</time>
      </trkpt>
      <trkpt lat="45.65001" lon="3.17751">
        <ele>366.75</ele>
        <time>2011-09-01T10:07:09Z</time>
      </trkpt>
      <trkpt lat="45.65004" lon="3.17733">
        <ele>366.797485</ele>
        <time>2011-09-01T10:07:11Z</time>
      </trkpt>
      <trkpt lat="45.65006" lon="3.17715">
        <ele>366.83374</ele>
        <time>2011-09-01T10:07:13Z</time>
      </trkpt>
      <trkpt lat="45.65009" lon="3.17698">
        <ele>367.053314</ele>
        <time>2011-09-01T10:07:15Z</time>
      </trkpt>
      <trkpt lat="45.65012" lon="3.17682">
        <ele>367.282684</ele>
        <time>2011-09-01T10:07:17Z</time>
      </trkpt>
      <trkpt lat="45.65014" lon="3.17666">
        <ele>367.434479</ele>
        <time>2011-09-01T10:07:19Z</time>
      </trkpt>
      <trkpt lat="45.65016" lon="3.1765">
        <ele>367.563507</ele>
        <time>2011-09-01T10:07:21Z</time>
      </trkpt>
      <trkpt lat="45.65019" lon="3.17635">
        <ele>367.546509</ele>
        <time>2011-09-01T10:07:23Z</time>
      </trkpt>
      <trkpt lat="45.65022" lon="3.1762">
        <ele>367.441864</ele>
        <time>2011-09-01T10:07:25Z</time>
      </trkpt>
      <trkpt lat="45.65025" lon="3.17604">
        <ele>367.386505</ele>
        <time>2011-09-01T10:07:27Z</time>
      </trkpt>
      <trkpt lat="45.6503" lon="3.17588">
        <ele>367.402771</ele>
        <time>2011-09-01T10:07:29Z</time>
      </trkpt>
      <trkpt lat="45.65036" lon="3.17574">
        <ele>367.615784</ele>
        <time>2011-09-01T10:07:31Z</time>
      </trkpt>
      <trkpt lat="45.65043" lon="3.1756">
        <ele>368.104736</ele>
        <time>2011-09-01T10:07:33Z</time>
      </trkpt>
      <trkpt lat="45.65051" lon="3.17547">
        <ele>368.710815</ele>
        <time>2011-09-01T10:07:35Z</time>
      </trkpt>
      <trkpt lat="45.65059" lon="3.17535">
        <ele>369.267181</ele>
        <time>2011-09-01T10:07:37Z</time>
      </trkpt>
      <trkpt lat="45.65067" lon="3.17523">
        <ele>369.65921</ele>
        <time>2011-09-01T10:07:39Z</time>
      </trkpt>
      <trkpt lat="45.65075" lon="3.17511">
        <ele>370.05249</ele>
        <time>2011-09-01T10:07:41Z</time>
      </trkpt>
      <trkpt lat="45.65082" lon="3.17499">
        <ele>370.507507</ele>
        <time>2011-09-01T10:07:43Z</time>
      </trkpt>
      <trkpt lat="45.6509" lon="3.17486">
        <ele>371.061157</ele>
        <time>2011-09-01T10:07:45Z</time>
      </trkpt>
      <trkpt lat="45.65097" lon="3.17472">
        <ele>371.537872</ele>
        <time>2011-09-01T10:07:47Z</time>
      </trkpt>
      <trkpt lat="45.65104" lon="3.17459">
        <ele>371.790375</ele>
        <time>2011-09-01T10:07:49Z</time>
      </trkpt>
      <trkpt lat="45.6511" lon="3.17446">
        <ele>371.984955</ele>
        <time>2011-09-01T10:07:51Z</time>
      </trkpt>
      <trkpt lat="45.65116" lon="3.17434">
        <ele>372.174011</ele>
        <time>2011-09-01T10:07:53Z</time>
      </trkpt>
      <trkpt lat="45.65122" lon="3.17422">
        <ele>372.33017</ele>
        <time>2011-09-01T10:07:55Z</time>
      </trkpt>
      <trkpt lat="45.65128" lon="3.17411">
        <ele>372.47934</ele>
        <time>2011-09-01T10:07:57Z</time>
      </trkpt>
      <trkpt lat="45.65136" lon="3.17398">
        <ele>372.505981</ele>
        <time>2011-09-01T10:07:59Z</time>
      </trkpt>
      <trkpt lat="45.65143" lon="3.17386">
        <ele>372.415009</ele>
        <time>2011-09-01T10:08:01Z</time>
      </trkpt>
      <trkpt lat="45.65151" lon="3.17372">
        <ele>372.350006</ele>
        <time>2011-09-01T10:08:03Z</time>
      </trkpt>
      <trkpt lat="45.6516" lon="3.1736">
        <ele>372.3125</ele>
        <time>2011-09-01T10:08:05Z</time>
      </trkpt>
      <trkpt lat="45.65168" lon="3.17349">
        <ele>372.334991</ele>
        <time>2011-09-01T10:08:07Z</time>
      </trkpt>
      <trkpt lat="45.65176" lon="3.17339">
        <ele>372.368408</ele>
        <time>2011-09-01T10:08:09Z</time>
      </trkpt>
      <trkpt lat="45.65184" lon="3.17328">
        <ele>372.755402</ele>
        <time>2011-09-01T10:08:11Z</time>
      </trkpt>
      <trkpt lat="45.65192" lon="3.17318">
        <ele>373.142517</ele>
        <time>2011-09-01T10:08:13Z</time>
      </trkpt>
      <trkpt lat="45.652" lon="3.17309">
        <ele>373.582489</ele>
        <time>2011-09-01T10:08:15Z</time>
      </trkpt>
      <trkpt lat="45.65208" lon="3.17298">
        <ele>373.929993</ele>
        <time>2011-09-01T10:08:17Z</time>
      </trkpt>
      <trkpt lat="45.65216" lon="3.17289">
        <ele>374.287506</ele>
        <time>2011-09-01T10:08:19Z</time>
      </trkpt>
      <trkpt lat="45.65224" lon="3.17278">
        <ele>374.810486</ele>
        <time>2011-09-01T10:08:21Z</time>
      </trkpt>
      <trkpt lat="45.65234" lon="3.17265">
        <ele>375.208527</ele>
        <time>2011-09-01T10:08:23Z</time>
      </trkpt>
      <trkpt lat="45.65244" lon="3.17253">
        <ele>375.380646</ele>
        <time>2011-09-01T10:08:25Z</time>
      </trkpt>
      <trkpt lat="45.65252" lon="3.1724">
        <ele>375.385468</ele>
        <time>2011-09-01T10:08:27Z</time>
      </trkpt>
      <trkpt lat="45.65261" lon="3.17227">
        <ele>375.258484</ele>
        <time>2011-09-01T10:08:29Z</time>
      </trkpt>
      <trkpt lat="45.65269" lon="3.17214">
        <ele>375.167633</ele>
        <time>2011-09-01T10:08:31Z</time>
      </trkpt>
      <trkpt lat="45.65277" lon="3.17201">
        <ele>375.136932</ele>
        <time>2011-09-01T10:08:33Z</time>
      </trkpt>
      <trkpt lat="45.65285" lon="3.17187">
        <ele>375.499786</ele>
        <time>2011-09-01T10:08:35Z</time>
      </trkpt>
      <trkpt lat="45.65292" lon="3.17173">
        <ele>375.633057</ele>
        <time>2011-09-01T10:08:37Z</time>
      </trkpt>
      <trkpt lat="45.65299" lon="3.1716">
        <ele>375.535278</ele>
        <time>2011-09-01T10:08:39Z</time>
      </trkpt>
      <trkpt lat="45.65306" lon="3.17145">
        <ele>375.182373</ele>
        <time>2011-09-01T10:08:41Z</time>
      </trkpt>
      <trkpt lat="45.65312" lon="3.1713">
        <ele>374.893738</ele>
        <time>2011-09-01T10:08:43Z</time>
      </trkpt>
      <trkpt lat="45.65318" lon="3.17114">
        <ele>375.024811</ele>
        <time>2011-09-01T10:08:45Z</time>
      </trkpt>
      <trkpt lat="45.65324" lon="3.17099">
        <ele>374.972046</ele>
        <time>2011-09-01T10:08:47Z</time>
      </trkpt>
      <trkpt lat="45.6533" lon="3.17085">
        <ele>374.800781</ele>
        <time>2011-09-01T10:08:49Z</time>
      </trkpt>
      <trkpt lat="45.65337" lon="3.17073">
        <ele>374.560699</ele>
        <time>2011-09-01T10:08:51Z</time>
      </trkpt>
      <trkpt lat="45.65344" lon="3.17061">
        <ele>374.569336</ele>
        <time>2011-09-01T10:08:53Z</time>
      </trkpt>
      <trkpt lat="45.65352" lon="3.17052">
        <ele>374.574036</ele>
        <time>2011-09-01T10:08:55Z</time>
      </trkpt>
      <trkpt lat="45.65359" lon="3.17044">
        <ele>374.620941</ele>
        <time>2011-09-01T10:08:57Z</time>
      </trkpt>
      <trkpt lat="45.65366" lon="3.17036">
        <ele>374.935303</ele>
        <time>2011-09-01T10:08:59Z</time>
      </trkpt>
      <trkpt lat="45.65374" lon="3.17025">
        <ele>375.147858</ele>
        <time>2011-09-01T10:09:01Z</time>
      </trkpt>
      <trkpt lat="45.65382" lon="3.17016">
        <ele>375.236725</ele>
        <time>2011-09-01T10:09:03Z</time>
      </trkpt>
      <trkpt lat="45.65389" lon="3.17006">
        <ele>375.360535</ele>
        <time>2011-09-01T10:09:05Z</time>
      </trkpt>
      <trkpt lat="45.65397" lon="3.16995">
        <ele>375.560059</ele>
        <time>2011-09-01T10:09:07Z</time>
      </trkpt>
      <trkpt lat="45.65405" lon="3.16983">
        <ele>375.70224</ele>
        <time>2011-09-01T10:09:09Z</time>
      </trkpt>
      <trkpt lat="45.65413" lon="3.16969">
        <ele>376.237061</ele>
        <time>2011-09-01T10:09:11Z</time>
      </trkpt>
      <trkpt lat="45.65422" lon="3.16954">
        <ele>376.494476</ele>
        <time>2011-09-01T10:09:13Z</time>
      </trkpt>
      <trkpt lat="45.65428" lon="3.1694">
        <ele>376.476959</ele>
        <time>2011-09-01T10:09:15Z</time>
      </trkpt>
      <trkpt lat="45.65434" lon="3.16923">
        <ele>376.315521</ele>
        <time>2011-09-01T10:09:18Z</time>
      </trkpt>
      <trkpt lat="45.65443" lon="3.16908">
        <ele>376.012909</ele>
        <time>2011-09-01T10:09:21Z</time>
      </trkpt>
      <trkpt lat="45.65451" lon="3.16892">
        <ele>375.576355</ele>
        <time>2011-09-01T10:09:25Z</time>
      </trkpt>
      <trkpt lat="45.65461" lon="3.16875">
        <ele>375.503906</ele>
        <time>2011-09-01T10:09:30Z</time>
      </trkpt>
      <trkpt lat="45.65471" lon="3.1686">
        <ele>375.815521</ele>
        <time>2011-09-01T10:09:34Z</time>
      </trkpt>
      <trkpt lat="45.65479" lon="3.16845">
        <ele>375.947205</ele>
        <time>2011-09-01T10:09:38Z</time>
      </trkpt>
      <trkpt lat="45.65484" lon="3.16831">
        <ele>375.915344</ele>
        <time>2011-09-01T10:09:42Z</time>
      </trkpt>
      <trkpt lat="45.65487" lon="3.16813">
        <ele>375.915009</ele>
        <time>2011-09-01T10:09:47Z</time>
      </trkpt>
      <trkpt lat="45.65495" lon="3.16802">
        <ele>376.321747</ele>
        <time>2011-09-01T10:09:51Z</time>
      </trkpt>
      <trkpt lat="45.65503" lon="3.16789">
        <ele>377.037048</ele>
        <time>2011-09-01T10:09:55Z</time>
      </trkpt>
      <trkpt lat="45.6551" lon="3.16778">
        <ele>377.474762</ele>
        <time>2011-09-01T10:09:59Z</time>
      </trkpt>
      <trkpt lat="45.65518" lon="3.16768">
        <ele>377.737762</ele>
        <time>2011-09-01T10:10:03Z</time>
      </trkpt>
      <trkpt lat="45.65526" lon="3.16758">
        <ele>377.765503</ele>
        <time>2011-09-01T10:10:08Z</time>
      </trkpt>
      <trkpt lat="45.65535" lon="3.16751">
        <ele>377.894989</ele>
        <time>2011-09-01T10:10:17Z</time>
      </trkpt>
      <trkpt lat="45.65544" lon="3.16743">
        <ele>378.224091</ele>
        <time>2011-09-01T10:10:26Z</time>
      </trkpt>
      <trkpt lat="45.65548" lon="3.1673">
        <ele>378.295776</ele>
        <time>2011-09-01T10:10:35Z</time>
      </trkpt>
      <trkpt lat="45.65552" lon="3.16719">
        <ele>378.341064</ele>
        <time>2011-09-01T10:10:39Z</time>
      </trkpt>
      <trkpt lat="45.6556" lon="3.16711">
        <ele>378.396393</ele>
        <time>2011-09-01T10:10:43Z</time>
      </trkpt>
      <trkpt lat="45.65569" lon="3.167">
        <ele>378.259186</ele>
        <time>2011-09-01T10:10:47Z</time>
      </trkpt>
      <trkpt lat="45.65578" lon="3.16694">
        <ele>378.078278</ele>
        <time>2011-09-01T10:10:51Z</time>
      </trkpt>
      <trkpt lat="45.65586" lon="3.16687">
        <ele>377.945496</ele>
        <time>2011-09-01T10:10:57Z</time>
      </trkpt>
      <trkpt lat="45.65594" lon="3.16682">
        <ele>378.209259</ele>
        <time>2011-09-01T10:11:05Z</time>
      </trkpt>
      <trkpt lat="45.65603" lon="3.16675">
        <ele>378.383087</ele>
        <time>2011-09-01T10:11:14Z</time>
      </trkpt>
      <trkpt lat="45.65611" lon="3.16667">
        <ele>378.517792</ele>
        <time>2011-09-01T10:11:23Z</time>
      </trkpt>
      <trkpt lat="45.65621" lon="3.16661">
        <ele>378.681793</ele>
        <time>2011-09-01T10:11:32Z</time>
      </trkpt>
      <trkpt lat="45.6563" lon="3.16653">
        <ele>378.735382</ele>
        <time>2011-09-01T10:11:41Z</time>
      </trkpt>
      <trkpt lat="45.65637" lon="3.16644">
        <ele>378.861542</ele>
        <time>2011-09-01T10:11:49Z</time>
      </trkpt>
      <trkpt lat="45.6564" lon="3.16627">
        <ele>378.338348</ele>
        <time>2011-09-01T10:11:57Z</time>
      </trkpt>
      <trkpt lat="45.65644" lon="3.16612">
        <ele>377.983215</ele>
        <time>2011-09-01T10:12:39Z</time>
      </trkpt>
      <trkpt lat="45.65648" lon="3.16598">
        <ele>377.637939</ele>
        <time>2011-09-01T10:12:47Z</time>
      </trkpt>
      <trkpt lat="45.65653" lon="3.16585">
        <ele>377.270294</ele>
        <time>2011-09-01T10:12:55Z</time>
      </trkpt>
      <trkpt lat="45.65657" lon="3.16573">
        <ele>376.890015</ele>
        <time>2011-09-01T10:13:04Z</time>
      </trkpt>
      <trkpt lat="45.65662" lon="3.1656">
        <ele>376.597504</ele>
        <time>2011-09-01T10:13:15Z</time>
      </trkpt>
      <trkpt lat="45.65666" lon="3.16547">
        <ele>376.48999</ele>
        <time>2011-09-01T10:13:23Z</time>
      </trkpt>
      <trkpt lat="45.6567" lon="3.16534">
        <ele>376.366241</ele>
        <time>2011-09-01T10:13:30Z</time>
      </trkpt>
      <trkpt lat="45.65674" lon="3.1652">
        <ele>376.246246</ele>
        <time>2011-09-01T10:13:37Z</time>
      </trkpt>
      <trkpt lat="45.65679" lon="3.16507">
        <ele>376.334015</ele>
        <time>2011-09-01T10:13:44Z</time>
      </trkpt>
      <trkpt lat="45.65683" lon="3.16494">
        <ele>376.673584</ele>
        <time>2011-09-01T10:13:51Z</time>
      </trkpt>
      <trkpt lat="45.65688" lon="3.16482">
        <ele>377.128601</ele>
        <time>2011-09-01T10:13:58Z</time>
      </trkpt>
      <trkpt lat="45.65692" lon="3.16469">
        <ele>377.504974</ele>
        <time>2011-09-01T10:14:05Z</time>
      </trkpt>
      <trkpt lat="45.65697" lon="3.16457">
        <ele>377.872131</ele>
        <time>2011-09-01T10:14:12Z</time>
      </trkpt>
      <trkpt lat="45.65702" lon="3.16444">
        <ele>378.239258</ele>
        <time>2011-09-01T10:14:19Z</time>
      </trkpt>
      <trkpt lat="45.65707" lon="3.16433">
        <ele>378.693268</ele>
        <time>2011-09-01T10:14:26Z</time>
      </trkpt>
      <trkpt lat="45.65713" lon="3.1642">
        <ele>379.255249</ele>
        <time>2011-09-01T10:14:33Z</time>
      </trkpt>
      <trkpt lat="45.65719" lon="3.16405">
        <ele>379.737885</ele>
        <time>2011-09-01T10:14:37Z</time>
      </trkpt>
      <trkpt lat="45.65725" lon="3.1639">
        <ele>380.23822</ele>
        <time>2011-09-01T10:14:41Z</time>
      </trkpt>
      <trkpt lat="45.6573" lon="3.16378">
        <ele>380.719818</ele>
        <time>2011-09-01T10:14:44Z</time>
      </trkpt>
      <trkpt lat="45.65735" lon="3.16365">
        <ele>380.799988</ele>
        <time>2011-09-01T10:14:47Z</time>
      </trkpt>
      <trkpt lat="45.6574" lon="3.1635">
        <ele>380.772491</ele>
        <time>2011-09-01T10:14:51Z</time>
      </trkpt>
      <trkpt lat="45.65745" lon="3.16338">
        <ele>380.792511</ele>
        <time>2011-09-01T10:14:54Z</time>
      </trkpt>
      <trkpt lat="45.65749" lon="3.16324">
        <ele>380.774994</ele>
        <time>2011-09-01T10:14:57Z</time>
      </trkpt>
      <trkpt lat="45.65756" lon="3.16308">
        <ele>380.8284</ele>
        <time>2011-09-01T10:15:00Z</time>
      </trkpt>
      <trkpt lat="45.65761" lon="3.16293">
        <ele>380.87207</ele>
        <time>2011-09-01T10:15:02Z</time>
      </trkpt>
      <trkpt lat="45.65766" lon="3.16278">
        <ele>380.838623</ele>
        <time>2011-09-01T10:15:04Z</time>
      </trkpt>
      <trkpt lat="45.65772" lon="3.16262">
        <ele>380.767487</ele>
        <time>2011-09-01T10:15:06Z</time>
      </trkpt>
      <trkpt lat="45.65777" lon="3.16245">
        <ele>380.730011</ele>
        <time>2011-09-01T10:15:08Z</time>
      </trkpt>
      <trkpt lat="45.65783" lon="3.16227">
        <ele>381.230011</ele>
        <time>2011-09-01T10:15:10Z</time>
      </trkpt>
      <trkpt lat="45.65788" lon="3.16209">
        <ele>381.709991</ele>
        <time>2011-09-01T10:15:12Z</time>
      </trkpt>
      <trkpt lat="45.65793" lon="3.16191">
        <ele>382.149994</ele>
        <time>2011-09-01T10:15:14Z</time>
      </trkpt>
      <trkpt lat="45.65798" lon="3.16174">
        <ele>382.579987</ele>
        <time>2011-09-01T10:15:16Z</time>
      </trkpt>
      <trkpt lat="45.65803" lon="3.16158">
        <ele>383.01001</ele>
        <time>2011-09-01T10:15:18Z</time>
      </trkpt>
      <trkpt lat="45.65808" lon="3.1614">
        <ele>383.470001</ele>
        <time>2011-09-01T10:15:20Z</time>
      </trkpt>
      <trkpt lat="45.65814" lon="3.16122">
        <ele>383.929993</ele>
        <time>2011-09-01T10:15:22Z</time>
      </trkpt>
      <trkpt lat="45.65819" lon="3.16105">
        <ele>384.796234</ele>
        <time>2011-09-01T10:15:24Z</time>
      </trkpt>
      <trkpt lat="45.65824" lon="3.16086">
        <ele>385.761261</ele>
        <time>2011-09-01T10:15:26Z</time>
      </trkpt>
      <trkpt lat="45.65829" lon="3.16068">
        <ele>386.678741</ele>
        <time>2011-09-01T10:15:28Z</time>
      </trkpt>
      <trkpt lat="45.65834" lon="3.16049">
        <ele>387.505005</ele>
        <time>2011-09-01T10:15:30Z</time>
      </trkpt>
      <trkpt lat="45.65839" lon="3.16029">
        <ele>388.179993</ele>
        <time>2011-09-01T10:15:32Z</time>
      </trkpt>
      <trkpt lat="45.65844" lon="3.16011">
        <ele>388.825012</ele>
        <time>2011-09-01T10:15:34Z</time>
      </trkpt>
      <trkpt lat="45.65849" lon="3.15992">
        <ele>389.424988</ele>
        <time>2011-09-01T10:15:36Z</time>
      </trkpt>
      <trkpt lat="45.65853" lon="3.15974">
        <ele>390.040009</ele>
        <time>2011-09-01T10:15:38Z</time>
      </trkpt>
      <trkpt lat="45.65857" lon="3.15957">
        <ele>390.549988</ele>
        <time>2011-09-01T10:15:40Z</time>
      </trkpt>
      <trkpt lat="45.65861" lon="3.15941">
        <ele>391.047058</ele>
        <time>2011-09-01T10:15:42Z</time>
      </trkpt>
      <trkpt lat="45.65866" lon="3.15925">
        <ele>391.420013</ele>
        <time>2011-09-01T10:15:44Z</time>
      </trkpt>
      <trkpt lat="45.6587" lon="3.15909">
        <ele>391.809998</ele>
        <time>2011-09-01T10:15:46Z</time>
      </trkpt>
      <trkpt lat="45.65875" lon="3.15892">
        <ele>392.23999</ele>
        <time>2011-09-01T10:15:48Z</time>
      </trkpt>
      <trkpt lat="45.6588" lon="3.15876">
        <ele>392.660004</ele>
        <time>2011-09-01T10:15:50Z</time>
      </trkpt>
      <trkpt lat="45.65885" lon="3.1586">
        <ele>393.084991</ele>
        <time>2011-09-01T10:15:52Z</time>
      </trkpt>
      <trkpt lat="45.6589" lon="3.15845">
        <ele>393.293762</ele>
        <time>2011-09-01T10:15:54Z</time>
      </trkpt>
      <trkpt lat="45.65896" lon="3.15828">
        <ele>393.497498</ele>
        <time>2011-09-01T10:15:56Z</time>
      </trkpt>
      <trkpt lat="45.65902" lon="3.15809">
        <ele>393.746246</ele>
        <time>2011-09-01T10:15:58Z</time>
      </trkpt>
      <trkpt lat="45.65909" lon="3.15788">
        <ele>393.882782</ele>
        <time>2011-09-01T10:16:00Z</time>
      </trkpt>
      <trkpt lat="45.65912" lon="3.15777">
        <ele>393.815186</ele>
        <time>2011-09-01T10:16:01Z</time>
      </trkpt>
      <trkpt lat="45.65918" lon="3.15755">
        <ele>393.72644</ele>
        <time>2011-09-01T10:16:03Z</time>
      </trkpt>
      <trkpt lat="45.65923" lon="3.15734">
        <ele>393.67749</ele>
        <time>2011-09-01T10:16:05Z</time>
      </trkpt>
      <trkpt lat="45.65927" lon="3.15715">
        <ele>393.546265</ele>
        <time>2011-09-01T10:16:07Z</time>
      </trkpt>
      <trkpt lat="45.65931" lon="3.15697">
        <ele>393.440002</ele>
        <time>2011-09-01T10:16:09Z</time>
      </trkpt>
      <trkpt lat="45.65934" lon="3.15682">
        <ele>393.33374</ele>
        <time>2011-09-01T10:16:11Z</time>
      </trkpt>
      <trkpt lat="45.65937" lon="3.15667">
        <ele>393.26535</ele>
        <time>2011-09-01T10:16:13Z</time>
      </trkpt>
      <trkpt lat="45.6594" lon="3.15652">
        <ele>393.323334</ele>
        <time>2011-09-01T10:16:15Z</time>
      </trkpt>
      <trkpt lat="45.65942" lon="3.15636">
        <ele>393.402222</ele>
        <time>2011-09-01T10:16:17Z</time>
      </trkpt>
      <trkpt lat="45.65947" lon="3.1562">
        <ele>393.594177</ele>
        <time>2011-09-01T10:16:19Z</time>
      </trkpt>
      <trkpt lat="45.65953" lon="3.15605">
        <ele>393.970245</ele>
        <time>2011-09-01T10:16:21Z</time>
      </trkpt>
      <trkpt lat="45.6596" lon="3.15593">
        <ele>394.171326</ele>
        <time>2011-09-01T10:16:23Z</time>
      </trkpt>
      <trkpt lat="45.65967" lon="3.1558">
        <ele>394.42038</ele>
        <time>2011-09-01T10:16:25Z</time>
      </trkpt>
      <trkpt lat="45.65974" lon="3.15566">
        <ele>394.732208</ele>
        <time>2011-09-01T10:16:27Z</time>
      </trkpt>
      <trkpt lat="45.65981" lon="3.15553">
        <ele>395.112366</ele>
        <time>2011-09-01T10:16:29Z</time>
      </trkpt>
      <trkpt lat="45.65988" lon="3.1554">
        <ele>395.553741</ele>
        <time>2011-09-01T10:16:31Z</time>
      </trkpt>
      <trkpt lat="45.65994" lon="3.15527">
        <ele>396.043762</ele>
        <time>2011-09-01T10:16:33Z</time>
      </trkpt>
      <trkpt lat="45.66001" lon="3.15514">
        <ele>396.432159</ele>
        <time>2011-09-01T10:16:35Z</time>
      </trkpt>
      <trkpt lat="45.66008" lon="3.15502">
        <ele>396.522247</ele>
        <time>2011-09-01T10:16:37Z</time>
      </trkpt>
      <trkpt lat="45.66014" lon="3.15489">
        <ele>396.560638</ele>
        <time>2011-09-01T10:16:39Z</time>
      </trkpt>
      <trkpt lat="45.66021" lon="3.15476">
        <ele>396.565002</ele>
        <time>2011-09-01T10:16:41Z</time>
      </trkpt>
      <trkpt lat="45.66028" lon="3.15462">
        <ele>396.626251</ele>
        <time>2011-09-01T10:16:43Z</time>
      </trkpt>
      <trkpt lat="45.66035" lon="3.15449">
        <ele>396.679993</ele>
        <time>2011-09-01T10:16:45Z</time>
      </trkpt>
      <trkpt lat="45.66043" lon="3.15436">
        <ele>396.727509</ele>
        <time>2011-09-01T10:16:47Z</time>
      </trkpt>
      <trkpt lat="45.6605" lon="3.15422">
        <ele>396.563171</ele>
        <time>2011-09-01T10:16:49Z</time>
      </trkpt>
      <trkpt lat="45.66056" lon="3.15409">
        <ele>396.227509</ele>
        <time>2011-09-01T10:16:51Z</time>
      </trkpt>
      <trkpt lat="45.66063" lon="3.15396">
        <ele>395.785004</ele>
        <time>2011-09-01T10:16:53Z</time>
      </trkpt>
      <trkpt lat="45.6607" lon="3.15383">
        <ele>395.327515</ele>
        <time>2011-09-01T10:16:55Z</time>
      </trkpt>
      <trkpt lat="45.66077" lon="3.1537">
        <ele>394.862488</ele>
        <time>2011-09-01T10:16:57Z</time>
      </trkpt>
      <trkpt lat="45.66084" lon="3.15356">
        <ele>394.397491</ele>
        <time>2011-09-01T10:16:59Z</time>
      </trkpt>
      <trkpt lat="45.66091" lon="3.15342">
        <ele>393.936096</ele>
        <time>2011-09-01T10:17:01Z</time>
      </trkpt>
      <trkpt lat="45.66098" lon="3.15329">
        <ele>393.526825</ele>
        <time>2011-09-01T10:17:03Z</time>
      </trkpt>
      <trkpt lat="45.66105" lon="3.15315">
        <ele>393.202637</ele>
        <time>2011-09-01T10:17:05Z</time>
      </trkpt>
      <trkpt lat="45.66112" lon="3.15302">
        <ele>392.928741</ele>
        <time>2011-09-01T10:17:07Z</time>
      </trkpt>
      <trkpt lat="45.66119" lon="3.15289">
        <ele>392.719208</ele>
        <time>2011-09-01T10:17:09Z</time>
      </trkpt>
      <trkpt lat="45.66127" lon="3.15275">
        <ele>392.362976</ele>
        <time>2011-09-01T10:17:11Z</time>
      </trkpt>
      <trkpt lat="45.66134" lon="3.15262">
        <ele>392.067261</ele>
        <time>2011-09-01T10:17:13Z</time>
      </trkpt>
      <trkpt lat="45.66141" lon="3.15249">
        <ele>391.612305</ele>
        <time>2011-09-01T10:17:15Z</time>
      </trkpt>
      <trkpt lat="45.66148" lon="3.15235">
        <ele>391.123108</ele>
        <time>2011-09-01T10:17:17Z</time>
      </trkpt>
      <trkpt lat="45.66156" lon="3.15223">
        <ele>390.628052</ele>
        <time>2011-09-01T10:17:19Z</time>
      </trkpt>
      <trkpt lat="45.66165" lon="3.15211">
        <ele>390.07373</ele>
        <time>2011-09-01T10:17:21Z</time>
      </trkpt>
      <trkpt lat="45.66172" lon="3.15199">
        <ele>389.753082</ele>
        <time>2011-09-01T10:17:23Z</time>
      </trkpt>
      <trkpt lat="45.66179" lon="3.15187">
        <ele>389.643585</ele>
        <time>2011-09-01T10:17:25Z</time>
      </trkpt>
      <trkpt lat="45.66186" lon="3.15174">
        <ele>389.395538</ele>
        <time>2011-09-01T10:17:27Z</time>
      </trkpt>
      <trkpt lat="45.66192" lon="3.15161">
        <ele>389.040588</ele>
        <time>2011-09-01T10:17:29Z</time>
      </trkpt>
      <trkpt lat="45.66199" lon="3.15148">
        <ele>388.495972</ele>
        <time>2011-09-01T10:17:31Z</time>
      </trkpt>
      <trkpt lat="45.66206" lon="3.15134">
        <ele>388.047485</ele>
        <time>2011-09-01T10:17:33Z</time>
      </trkpt>
      <trkpt lat="45.66213" lon="3.1512">
        <ele>387.669159</ele>
        <time>2011-09-01T10:17:35Z</time>
      </trkpt>
      <trkpt lat="45.6622" lon="3.15107">
        <ele>387.360291</ele>
        <time>2011-09-01T10:17:37Z</time>
      </trkpt>
      <trkpt lat="45.66226" lon="3.15093">
        <ele>387.004517</ele>
        <time>2011-09-01T10:17:39Z</time>
      </trkpt>
      <trkpt lat="45.66232" lon="3.1508">
        <ele>386.188141</ele>
        <time>2011-09-01T10:17:41Z</time>
      </trkpt>
      <trkpt lat="45.66239" lon="3.15066">
        <ele>385.475464</ele>
        <time>2011-09-01T10:17:43Z</time>
      </trkpt>
      <trkpt lat="45.66247" lon="3.15054">
        <ele>384.754974</ele>
        <time>2011-09-01T10:17:45Z</time>
      </trkpt>
      <trkpt lat="45.66257" lon="3.15054">
        <ele>383.909302</ele>
        <time>2011-09-01T10:17:47Z</time>
      </trkpt>
      <trkpt lat="45.66267" lon="3.15065">
        <ele>382.95462</ele>
        <time>2011-09-01T10:17:49Z</time>
      </trkpt>
      <trkpt lat="45.66276" lon="3.15078">
        <ele>381.844604</ele>
        <time>2011-09-01T10:17:51Z</time>
      </trkpt>
      <trkpt lat="45.66285" lon="3.15093">
        <ele>380.613892</ele>
        <time>2011-09-01T10:17:53Z</time>
      </trkpt>
      <trkpt lat="45.66291" lon="3.15109">
        <ele>379.514984</ele>
        <time>2011-09-01T10:17:55Z</time>
      </trkpt>
      <trkpt lat="45.66298" lon="3.15123">
        <ele>378.382507</ele>
        <time>2011-09-01T10:17:57Z</time>
      </trkpt>
      <trkpt lat="45.66304" lon="3.15136">
        <ele>377.212494</ele>
        <time>2011-09-01T10:18:00Z</time>
      </trkpt>
      <trkpt lat="45.66307" lon="3.1515">
        <ele>376.454987</ele>
        <time>2011-09-01T10:18:06Z</time>
      </trkpt>
      <trkpt lat="45.66309" lon="3.15165">
        <ele>375.802032</ele>
        <time>2011-09-01T10:18:13Z</time>
      </trkpt>
      <trkpt lat="45.66311" lon="3.15179">
        <ele>375.383301</ele>
        <time>2011-09-01T10:18:20Z</time>
      </trkpt>
      <trkpt lat="45.66313" lon="3.15192">
        <ele>374.983704</ele>
        <time>2011-09-01T10:18:27Z</time>
      </trkpt>
      <trkpt lat="45.66315" lon="3.15207">
        <ele>374.517609</ele>
        <time>2011-09-01T10:18:35Z</time>
      </trkpt>
      <trkpt lat="45.66316" lon="3.15221">
        <ele>374.075806</ele>
        <time>2011-09-01T10:18:42Z</time>
      </trkpt>
      <trkpt lat="45.66318" lon="3.15236">
        <ele>373.779999</ele>
        <time>2011-09-01T10:18:50Z</time>
      </trkpt>
      <trkpt lat="45.66321" lon="3.1525">
        <ele>373.559998</ele>
        <time>2011-09-01T10:18:58Z</time>
      </trkpt>
      <trkpt lat="45.66323" lon="3.15264">
        <ele>373.320007</ele>
        <time>2011-09-01T10:19:06Z</time>
      </trkpt>
      <trkpt lat="45.66325" lon="3.15279">
        <ele>373.130005</ele>
        <time>2011-09-01T10:19:14Z</time>
      </trkpt>
      <trkpt lat="45.66328" lon="3.15297">
        <ele>372.844727</ele>
        <time>2011-09-01T10:19:19Z</time>
      </trkpt>
      <trkpt lat="45.6633" lon="3.15313">
        <ele>372.449738</ele>
        <time>2011-09-01T10:19:23Z</time>
      </trkpt>
      <trkpt lat="45.66336" lon="3.15328">
        <ele>371.875488</ele>
        <time>2011-09-01T10:19:27Z</time>
      </trkpt>
      <trkpt lat="45.66342" lon="3.15343">
        <ele>371.275482</ele>
        <time>2011-09-01T10:19:31Z</time>
      </trkpt>
      <trkpt lat="45.66349" lon="3.15357">
        <ele>370.732513</ele>
        <time>2011-09-01T10:19:35Z</time>
      </trkpt>
      <trkpt lat="45.66356" lon="3.1537">
        <ele>370.038757</ele>
        <time>2011-09-01T10:19:39Z</time>
      </trkpt>
      <trkpt lat="45.66362" lon="3.1538">
        <ele>369.562866</ele>
        <time>2011-09-01T10:19:42Z</time>
      </trkpt>
      <trkpt lat="45.66369" lon="3.15394">
        <ele>369.124481</ele>
        <time>2011-09-01T10:19:46Z</time>
      </trkpt>
      <trkpt lat="45.66376" lon="3.15408">
        <ele>368.77182</ele>
        <time>2011-09-01T10:19:50Z</time>
      </trkpt>
      <trkpt lat="45.66382" lon="3.15418">
        <ele>368.532227</ele>
        <time>2011-09-01T10:19:53Z</time>
      </trkpt>
      <trkpt lat="45.66391" lon="3.15425">
        <ele>368.299988</ele>
        <time>2011-09-01T10:19:57Z</time>
      </trkpt>
      <trkpt lat="45.66402" lon="3.15427">
        <ele>368.0625</ele>
        <time>2011-09-01T10:20:01Z</time>
      </trkpt>
      <trkpt lat="45.66411" lon="3.15426">
        <ele>367.859985</ele>
        <time>2011-09-01T10:20:04Z</time>
      </trkpt>
      <trkpt lat="45.66421" lon="3.15428">
        <ele>367.625</ele>
        <time>2011-09-01T10:20:07Z</time>
      </trkpt>
      <trkpt lat="45.66433" lon="3.15429">
        <ele>367.357513</ele>
        <time>2011-09-01T10:20:10Z</time>
      </trkpt>
      <trkpt lat="45.66446" lon="3.15429">
        <ele>367.082489</ele>
        <time>2011-09-01T10:20:13Z</time>
      </trkpt>
      <trkpt lat="45.66458" lon="3.15431">
        <ele>366.799988</ele>
        <time>2011-09-01T10:20:16Z</time>
      </trkpt>
      <trkpt lat="45.66468" lon="3.1543">
        <ele>366.587494</ele>
        <time>2011-09-01T10:20:18Z</time>
      </trkpt>
      <trkpt lat="45.66481" lon="3.15422">
        <ele>366.300293</ele>
        <time>2011-09-01T10:20:20Z</time>
      </trkpt>
      <trkpt lat="45.66491" lon="3.15413">
        <ele>366.220123</ele>
        <time>2011-09-01T10:20:22Z</time>
      </trkpt>
      <trkpt lat="45.66496" lon="3.15397">
        <ele>366.392639</ele>
        <time>2011-09-01T10:20:24Z</time>
      </trkpt>
      <trkpt lat="45.66499" lon="3.15375">
        <ele>366.66629</ele>
        <time>2011-09-01T10:20:26Z</time>
      </trkpt>
      <trkpt lat="45.66502" lon="3.15359">
        <ele>366.830902</ele>
        <time>2011-09-01T10:20:28Z</time>
      </trkpt>
      <trkpt lat="45.66503" lon="3.15342">
        <ele>366.8125</ele>
        <time>2011-09-01T10:20:30Z</time>
      </trkpt>
      <trkpt lat="45.66505" lon="3.15326">
        <ele>366.787506</ele>
        <time>2011-09-01T10:20:32Z</time>
      </trkpt>
      <trkpt lat="45.66507" lon="3.15312">
        <ele>366.75</ele>
        <time>2011-09-01T10:20:34Z</time>
      </trkpt>
      <trkpt lat="45.66507" lon="3.15299">
        <ele>366.73999</ele>
        <time>2011-09-01T10:20:36Z</time>
      </trkpt>
      <trkpt lat="45.66506" lon="3.15285">
        <ele>366.767487</ele>
        <time>2011-09-01T10:20:38Z</time>
      </trkpt>
      <trkpt lat="45.66505" lon="3.15269">
        <ele>366.779999</ele>
        <time>2011-09-01T10:20:40Z</time>
      </trkpt>
      <trkpt lat="45.66505" lon="3.15254">
        <ele>366.80249</ele>
        <time>2011-09-01T10:20:42Z</time>
      </trkpt>
      <trkpt lat="45.66504" lon="3.1524">
        <ele>366.815002</ele>
        <time>2011-09-01T10:20:44Z</time>
      </trkpt>
      <trkpt lat="45.66504" lon="3.15219">
        <ele>366.829987</ele>
        <time>2011-09-01T10:20:47Z</time>
      </trkpt>
      <trkpt lat="45.66503" lon="3.15205">
        <ele>366.842499</ele>
        <time>2011-09-01T10:20:49Z</time>
      </trkpt>
      <trkpt lat="45.66503" lon="3.1519">
        <ele>366.842499</ele>
        <time>2011-09-01T10:20:51Z</time>
      </trkpt>
      <trkpt lat="45.66502" lon="3.15167">
        <ele>366.867493</ele>
        <time>2011-09-01T10:20:54Z</time>
      </trkpt>
      <trkpt lat="45.66502" lon="3.15153">
        <ele>366.86499</ele>
        <time>2011-09-01T10:20:56Z</time>
      </trkpt>
      <trkpt lat="45.66501" lon="3.15138">
        <ele>366.907501</ele>
        <time>2011-09-01T10:20:58Z</time>
      </trkpt>
      <trkpt lat="45.66499" lon="3.15123">
        <ele>366.942505</ele>
        <time>2011-09-01T10:21:00Z</time>
      </trkpt>
      <trkpt lat="45.66498" lon="3.15107">
        <ele>366.972504</ele>
        <time>2011-09-01T10:21:02Z</time>
      </trkpt>
      <trkpt lat="45.66495" lon="3.15092">
        <ele>367.032501</ele>
        <time>2011-09-01T10:21:04Z</time>
      </trkpt>
      <trkpt lat="45.66492" lon="3.15075">
        <ele>367.119995</ele>
        <time>2011-09-01T10:21:06Z</time>
      </trkpt>
      <trkpt lat="45.66487" lon="3.15059">
        <ele>367.232513</ele>
        <time>2011-09-01T10:21:08Z</time>
      </trkpt>
      <trkpt lat="45.66481" lon="3.15044">
        <ele>367.350006</ele>
        <time>2011-09-01T10:21:10Z</time>
      </trkpt>
      <trkpt lat="45.66476" lon="3.15029">
        <ele>367.467499</ele>
        <time>2011-09-01T10:21:12Z</time>
      </trkpt>
      <trkpt lat="45.66471" lon="3.15013">
        <ele>367.582489</ele>
        <time>2011-09-01T10:21:14Z</time>
      </trkpt>
      <trkpt lat="45.66466" lon="3.14999">
        <ele>367.69751</ele>
        <time>2011-09-01T10:21:16Z</time>
      </trkpt>
      <trkpt lat="45.66462" lon="3.14984">
        <ele>367.792511</ele>
        <time>2011-09-01T10:21:18Z</time>
      </trkpt>
      <trkpt lat="45.66463" lon="3.14969">
        <ele>367.769989</ele>
        <time>2011-09-01T10:21:20Z</time>
      </trkpt>
      <trkpt lat="45.66474" lon="3.14964">
        <ele>367.527496</ele>
        <time>2011-09-01T10:21:22Z</time>
      </trkpt>
      <trkpt lat="45.66487" lon="3.14962">
        <ele>367.247498</ele>
        <time>2011-09-01T10:21:24Z</time>
      </trkpt>
      <trkpt lat="45.66501" lon="3.14958">
        <ele>367</ele>
        <time>2011-09-01T10:21:26Z</time>
      </trkpt>
      <trkpt lat="45.66514" lon="3.14953">
        <ele>367</ele>
        <time>2011-09-01T10:21:28Z</time>
      </trkpt>
      <trkpt lat="45.66527" lon="3.1495">
        <ele>367</ele>
        <time>2011-09-01T10:21:30Z</time>
      </trkpt>
      <trkpt lat="45.6654" lon="3.14946">
        <ele>367</ele>
        <time>2011-09-01T10:21:32Z</time>
      </trkpt>
      <trkpt lat="45.66548" lon="3.14942">
        <ele>366.940887</ele>
        <time>2011-09-01T10:21:34Z</time>
      </trkpt>
      <trkpt lat="45.66557" lon="3.14927">
        <ele>366.915863</ele>
        <time>2011-09-01T10:21:37Z</time>
      </trkpt>
      <trkpt lat="45.66556" lon="3.14911">
        <ele>366.99411</ele>
        <time>2011-09-01T10:21:39Z</time>
      </trkpt>
      <trkpt lat="45.66554" lon="3.14895">
        <ele>367.232513</ele>
        <time>2011-09-01T10:21:41Z</time>
      </trkpt>
      <trkpt lat="45.66552" lon="3.14879">
        <ele>367.488739</ele>
        <time>2011-09-01T10:21:43Z</time>
      </trkpt>
      <trkpt lat="45.66551" lon="3.14863">
        <ele>367.73999</ele>
        <time>2011-09-01T10:21:45Z</time>
      </trkpt>
      <trkpt lat="45.66549" lon="3.14846">
        <ele>367.997498</ele>
        <time>2011-09-01T10:21:47Z</time>
      </trkpt>
      <trkpt lat="45.66549" lon="3.14828">
        <ele>368</ele>
        <time>2011-09-01T10:21:49Z</time>
      </trkpt>
      <trkpt lat="45.66552" lon="3.14811">
        <ele>368</ele>
        <time>2011-09-01T10:21:51Z</time>
      </trkpt>
      <trkpt lat="45.66555" lon="3.14794">
        <ele>368</ele>
        <time>2011-09-01T10:21:53Z</time>
      </trkpt>
      <trkpt lat="45.66556" lon="3.14779">
        <ele>368</ele>
        <time>2011-09-01T10:21:55Z</time>
      </trkpt>
      <trkpt lat="45.6656" lon="3.14762">
        <ele>368</ele>
        <time>2011-09-01T10:21:58Z</time>
      </trkpt>
      <trkpt lat="45.66568" lon="3.14754">
        <ele>368</ele>
        <time>2011-09-01T10:22:01Z</time>
      </trkpt>
      <trkpt lat="45.66577" lon="3.1475">
        <ele>368</ele>
        <time>2011-09-01T10:22:04Z</time>
      </trkpt>
      <trkpt lat="45.66586" lon="3.14746">
        <ele>368</ele>
        <time>2011-09-01T10:22:07Z</time>
      </trkpt>
      <trkpt lat="45.66595" lon="3.14742">
        <ele>368</ele>
        <time>2011-09-01T10:22:10Z</time>
      </trkpt>
      <trkpt lat="45.66603" lon="3.14736">
        <ele>368</ele>
        <time>2011-09-01T10:22:13Z</time>
      </trkpt>
      <trkpt lat="45.66612" lon="3.14731">
        <ele>368</ele>
        <time>2011-09-01T10:22:16Z</time>
      </trkpt>
      <trkpt lat="45.66622" lon="3.14726">
        <ele>368</ele>
        <time>2011-09-01T10:22:19Z</time>
      </trkpt>
      <trkpt lat="45.66632" lon="3.14725">
        <ele>368</ele>
        <time>2011-09-01T10:22:22Z</time>
      </trkpt>
      <trkpt lat="45.66643" lon="3.14728">
        <ele>368.36499</ele>
        <time>2011-09-01T10:22:25Z</time>
      </trkpt>
      <trkpt lat="45.66654" lon="3.14731">
        <ele>368.880005</ele>
        <time>2011-09-01T10:22:28Z</time>
      </trkpt>
      <trkpt lat="45.66665" lon="3.14735">
        <ele>369.359985</ele>
        <time>2011-09-01T10:22:31Z</time>
      </trkpt>
      <trkpt lat="45.66675" lon="3.14741">
        <ele>369.825012</ele>
        <time>2011-09-01T10:22:34Z</time>
      </trkpt>
      <trkpt lat="45.66685" lon="3.14749">
        <ele>370.424194</ele>
        <time>2011-09-01T10:22:37Z</time>
      </trkpt>
      <trkpt lat="45.66692" lon="3.14758">
        <ele>370.988525</ele>
        <time>2011-09-01T10:22:41Z</time>
      </trkpt>
      <trkpt lat="45.66701" lon="3.14755">
        <ele>371.674469</ele>
        <time>2011-09-01T10:22:49Z</time>
      </trkpt>
      <trkpt lat="45.66703" lon="3.14742">
        <ele>371.912354</ele>
        <time>2011-09-01T10:22:57Z</time>
      </trkpt>
      <trkpt lat="45.66704" lon="3.14726">
        <ele>372.132507</ele>
        <time>2011-09-01T10:23:05Z</time>
      </trkpt>
      <trkpt lat="45.66706" lon="3.14713">
        <ele>372.350006</ele>
        <time>2011-09-01T10:23:13Z</time>
      </trkpt>
      <trkpt lat="45.66711" lon="3.14698">
        <ele>372.76001</ele>
        <time>2011-09-01T10:23:22Z</time>
      </trkpt>
      <trkpt lat="45.6672" lon="3.14692">
        <ele>373.559998</ele>
        <time>2011-09-01T10:23:29Z</time>
      </trkpt>
      <trkpt lat="45.66726" lon="3.14681">
        <ele>374.209991</ele>
        <time>2011-09-01T10:23:36Z</time>
      </trkpt>
      <trkpt lat="45.66732" lon="3.14669">
        <ele>375.049988</ele>
        <time>2011-09-01T10:23:43Z</time>
      </trkpt>
      <trkpt lat="45.66736" lon="3.14657">
        <ele>375.75</ele>
        <time>2011-09-01T10:23:50Z</time>
      </trkpt>
      <trkpt lat="45.66742" lon="3.14644">
        <ele>376.483429</ele>
        <time>2011-09-01T10:23:55Z</time>
      </trkpt>
      <trkpt lat="45.66746" lon="3.14633">
        <ele>376.950439</ele>
        <time>2011-09-01T10:23:57Z</time>
      </trkpt>
      <trkpt lat="45.66752" lon="3.14621">
        <ele>377.444183</ele>
        <time>2011-09-01T10:23:59Z</time>
      </trkpt>
      <trkpt lat="45.66758" lon="3.14607">
        <ele>377.936615</ele>
        <time>2011-09-01T10:24:01Z</time>
      </trkpt>
      <trkpt lat="45.66763" lon="3.14594">
        <ele>378.27359</ele>
        <time>2011-09-01T10:24:03Z</time>
      </trkpt>
      <trkpt lat="45.6677" lon="3.1458">
        <ele>378.555298</ele>
        <time>2011-09-01T10:24:05Z</time>
      </trkpt>
      <trkpt lat="45.66776" lon="3.14566">
        <ele>379.136719</ele>
        <time>2011-09-01T10:24:07Z</time>
      </trkpt>
      <trkpt lat="45.66783" lon="3.14553">
        <ele>379.707214</ele>
        <time>2011-09-01T10:24:09Z</time>
      </trkpt>
      <trkpt lat="45.66789" lon="3.14539">
        <ele>380.178009</ele>
        <time>2011-09-01T10:24:11Z</time>
      </trkpt>
      <trkpt lat="45.66795" lon="3.14525">
        <ele>380.671783</ele>
        <time>2011-09-01T10:24:13Z</time>
      </trkpt>
      <trkpt lat="45.66802" lon="3.14512">
        <ele>381.260773</ele>
        <time>2011-09-01T10:24:15Z</time>
      </trkpt>
      <trkpt lat="45.66809" lon="3.14498">
        <ele>381.609955</ele>
        <time>2011-09-01T10:24:17Z</time>
      </trkpt>
      <trkpt lat="45.66814" lon="3.14482">
        <ele>381.557465</ele>
        <time>2011-09-01T10:24:19Z</time>
      </trkpt>
      <trkpt lat="45.66818" lon="3.14466">
        <ele>381.253387</ele>
        <time>2011-09-01T10:24:21Z</time>
      </trkpt>
      <trkpt lat="45.66823" lon="3.14451">
        <ele>381.058411</ele>
        <time>2011-09-01T10:24:23Z</time>
      </trkpt>
      <trkpt lat="45.66829" lon="3.14436">
        <ele>380.937012</ele>
        <time>2011-09-01T10:24:25Z</time>
      </trkpt>
      <trkpt lat="45.66838" lon="3.14425">
        <ele>381.091187</ele>
        <time>2011-09-01T10:24:27Z</time>
      </trkpt>
      <trkpt lat="45.66851" lon="3.14421">
        <ele>381.587067</ele>
        <time>2011-09-01T10:24:29Z</time>
      </trkpt>
      <trkpt lat="45.66863" lon="3.14419">
        <ele>382.164063</ele>
        <time>2011-09-01T10:24:31Z</time>
      </trkpt>
      <trkpt lat="45.66876" lon="3.14417">
        <ele>382.536591</ele>
        <time>2011-09-01T10:24:33Z</time>
      </trkpt>
      <trkpt lat="45.6689" lon="3.14415">
        <ele>382.967194</ele>
        <time>2011-09-01T10:24:35Z</time>
      </trkpt>
      <trkpt lat="45.66903" lon="3.14416">
        <ele>383.520264</ele>
        <time>2011-09-01T10:24:37Z</time>
      </trkpt>
      <trkpt lat="45.66915" lon="3.14417">
        <ele>384.048279</ele>
        <time>2011-09-01T10:24:39Z</time>
      </trkpt>
      <trkpt lat="45.66928" lon="3.14418">
        <ele>384.591919</ele>
        <time>2011-09-01T10:24:41Z</time>
      </trkpt>
      <trkpt lat="45.66941" lon="3.1442">
        <ele>385.127594</ele>
        <time>2011-09-01T10:24:43Z</time>
      </trkpt>
      <trkpt lat="45.66954" lon="3.14421">
        <ele>385.656342</ele>
        <time>2011-09-01T10:24:45Z</time>
      </trkpt>
      <trkpt lat="45.66966" lon="3.14422">
        <ele>386.158844</ele>
        <time>2011-09-01T10:24:47Z</time>
      </trkpt>
      <trkpt lat="45.66979" lon="3.14424">
        <ele>386.656403</ele>
        <time>2011-09-01T10:24:49Z</time>
      </trkpt>
      <trkpt lat="45.66991" lon="3.14424">
        <ele>387.124023</ele>
        <time>2011-09-01T10:24:51Z</time>
      </trkpt>
      <trkpt lat="45.67003" lon="3.14425">
        <ele>387.467499</ele>
        <time>2011-09-01T10:24:53Z</time>
      </trkpt>
      <trkpt lat="45.67014" lon="3.14425">
        <ele>387.71875</ele>
        <time>2011-09-01T10:24:55Z</time>
      </trkpt>
      <trkpt lat="45.67025" lon="3.14425">
        <ele>387.972504</ele>
        <time>2011-09-01T10:24:57Z</time>
      </trkpt>
      <trkpt lat="45.67036" lon="3.14425">
        <ele>388.20874</ele>
        <time>2011-09-01T10:24:59Z</time>
      </trkpt>
      <trkpt lat="45.67047" lon="3.14424">
        <ele>388.563751</ele>
        <time>2011-09-01T10:25:01Z</time>
      </trkpt>
      <trkpt lat="45.67058" lon="3.14424">
        <ele>389.038757</ele>
        <time>2011-09-01T10:25:03Z</time>
      </trkpt>
      <trkpt lat="45.67069" lon="3.14423">
        <ele>389.507507</ele>
        <time>2011-09-01T10:25:05Z</time>
      </trkpt>
      <trkpt lat="45.6708" lon="3.14423">
        <ele>389.97876</ele>
        <time>2011-09-01T10:25:07Z</time>
      </trkpt>
      <trkpt lat="45.6709" lon="3.14423">
        <ele>390.433929</ele>
        <time>2011-09-01T10:25:09Z</time>
      </trkpt>
      <trkpt lat="45.67102" lon="3.14423">
        <ele>390.880951</ele>
        <time>2011-09-01T10:25:11Z</time>
      </trkpt>
      <trkpt lat="45.67114" lon="3.14425">
        <ele>391.344147</ele>
        <time>2011-09-01T10:25:13Z</time>
      </trkpt>
      <trkpt lat="45.67126" lon="3.14426">
        <ele>391.80722</ele>
        <time>2011-09-01T10:25:15Z</time>
      </trkpt>
      <trkpt lat="45.67138" lon="3.14425">
        <ele>392.304993</ele>
        <time>2011-09-01T10:25:17Z</time>
      </trkpt>
      <trkpt lat="45.6715" lon="3.14424">
        <ele>392.820007</ele>
        <time>2011-09-01T10:25:19Z</time>
      </trkpt>
      <trkpt lat="45.67161" lon="3.14423">
        <ele>393.309998</ele>
        <time>2011-09-01T10:25:21Z</time>
      </trkpt>
      <trkpt lat="45.67172" lon="3.14423">
        <ele>393.785004</ele>
        <time>2011-09-01T10:25:23Z</time>
      </trkpt>
      <trkpt lat="45.67182" lon="3.14422">
        <ele>394.255005</ele>
        <time>2011-09-01T10:25:25Z</time>
      </trkpt>
      <trkpt lat="45.67193" lon="3.14422">
        <ele>394.714996</ele>
        <time>2011-09-01T10:25:27Z</time>
      </trkpt>
      <trkpt lat="45.67203" lon="3.14422">
        <ele>395.174988</ele>
        <time>2011-09-01T10:25:29Z</time>
      </trkpt>
      <trkpt lat="45.67213" lon="3.14422">
        <ele>395.640015</ele>
        <time>2011-09-01T10:25:31Z</time>
      </trkpt>
      <trkpt lat="45.67224" lon="3.14422">
        <ele>396.047485</ele>
        <time>2011-09-01T10:25:33Z</time>
      </trkpt>
      <trkpt lat="45.67234" lon="3.14421">
        <ele>396.274994</ele>
        <time>2011-09-01T10:25:35Z</time>
      </trkpt>
      <trkpt lat="45.67245" lon="3.14419">
        <ele>396.524994</ele>
        <time>2011-09-01T10:25:37Z</time>
      </trkpt>
      <trkpt lat="45.67256" lon="3.14419">
        <ele>396.769989</ele>
        <time>2011-09-01T10:25:39Z</time>
      </trkpt>
      <trkpt lat="45.67267" lon="3.14419">
        <ele>397.024994</ele>
        <time>2011-09-01T10:25:41Z</time>
      </trkpt>
      <trkpt lat="45.67277" lon="3.1442">
        <ele>397.484985</ele>
        <time>2011-09-01T10:25:43Z</time>
      </trkpt>
      <trkpt lat="45.67288" lon="3.14421">
        <ele>397.940002</ele>
        <time>2011-09-01T10:25:45Z</time>
      </trkpt>
      <trkpt lat="45.67297" lon="3.14421">
        <ele>398.369995</ele>
        <time>2011-09-01T10:25:47Z</time>
      </trkpt>
      <trkpt lat="45.67308" lon="3.1442">
        <ele>398.839996</ele>
        <time>2011-09-01T10:25:49Z</time>
      </trkpt>
      <trkpt lat="45.67319" lon="3.1442">
        <ele>399.442566</ele>
        <time>2011-09-01T10:25:51Z</time>
      </trkpt>
      <trkpt lat="45.67329" lon="3.1442">
        <ele>400.095398</ele>
        <time>2011-09-01T10:25:53Z</time>
      </trkpt>
      <trkpt lat="45.67339" lon="3.14421">
        <ele>400.740662</ele>
        <time>2011-09-01T10:25:55Z</time>
      </trkpt>
      <trkpt lat="45.6735" lon="3.14421">
        <ele>401.381073</ele>
        <time>2011-09-01T10:25:57Z</time>
      </trkpt>
      <trkpt lat="45.6736" lon="3.14422">
        <ele>401.89212</ele>
        <time>2011-09-01T10:25:59Z</time>
      </trkpt>
      <trkpt lat="45.67371" lon="3.14422">
        <ele>402.188477</ele>
        <time>2011-09-01T10:26:01Z</time>
      </trkpt>
      <trkpt lat="45.67383" lon="3.14421">
        <ele>402.502136</ele>
        <time>2011-09-01T10:26:03Z</time>
      </trkpt>
      <trkpt lat="45.67394" lon="3.14419">
        <ele>402.801422</ele>
        <time>2011-09-01T10:26:05Z</time>
      </trkpt>
      <trkpt lat="45.67405" lon="3.14417">
        <ele>403.154999</ele>
        <time>2011-09-01T10:26:07Z</time>
      </trkpt>
      <trkpt lat="45.67416" lon="3.14415">
        <ele>403.665009</ele>
        <time>2011-09-01T10:26:09Z</time>
      </trkpt>
      <trkpt lat="45.67429" lon="3.14412">
        <ele>404.209991</ele>
        <time>2011-09-01T10:26:11Z</time>
      </trkpt>
      <trkpt lat="45.67441" lon="3.1441">
        <ele>404.765015</ele>
        <time>2011-09-01T10:26:13Z</time>
      </trkpt>
      <trkpt lat="45.67454" lon="3.14407">
        <ele>405.367493</ele>
        <time>2011-09-01T10:26:15Z</time>
      </trkpt>
      <trkpt lat="45.67466" lon="3.14402">
        <ele>405.988739</ele>
        <time>2011-09-01T10:26:17Z</time>
      </trkpt>
      <trkpt lat="45.67478" lon="3.14396">
        <ele>406.623749</ele>
        <time>2011-09-01T10:26:19Z</time>
      </trkpt>
      <trkpt lat="45.6749" lon="3.14391">
        <ele>407.255005</ele>
        <time>2011-09-01T10:26:21Z</time>
      </trkpt>
      <trkpt lat="45.67503" lon="3.14386">
        <ele>407.880005</ele>
        <time>2011-09-01T10:26:23Z</time>
      </trkpt>
      <trkpt lat="45.67515" lon="3.14381">
        <ele>408.513733</ele>
        <time>2011-09-01T10:26:25Z</time>
      </trkpt>
      <trkpt lat="45.67528" lon="3.14376">
        <ele>409.153748</ele>
        <time>2011-09-01T10:26:27Z</time>
      </trkpt>
      <trkpt lat="45.6754" lon="3.14372">
        <ele>409.757507</ele>
        <time>2011-09-01T10:26:29Z</time>
      </trkpt>
      <trkpt lat="45.6755" lon="3.14366">
        <ele>410.296234</ele>
        <time>2011-09-01T10:26:31Z</time>
      </trkpt>
      <trkpt lat="45.67561" lon="3.1436">
        <ele>410.882507</ele>
        <time>2011-09-01T10:26:34Z</time>
      </trkpt>
      <trkpt lat="45.6757" lon="3.14357">
        <ele>411.323761</ele>
        <time>2011-09-01T10:26:37Z</time>
      </trkpt>
      <trkpt lat="45.67581" lon="3.14353">
        <ele>411.88501</ele>
        <time>2011-09-01T10:26:40Z</time>
      </trkpt>
      <trkpt lat="45.67591" lon="3.14351">
        <ele>412.364044</ele>
        <time>2011-09-01T10:26:42Z</time>
      </trkpt>
      <trkpt lat="45.67602" lon="3.14349">
        <ele>412.867859</ele>
        <time>2011-09-01T10:26:44Z</time>
      </trkpt>
      <trkpt lat="45.67612" lon="3.14348">
        <ele>413.350006</ele>
        <time>2011-09-01T10:26:46Z</time>
      </trkpt>
      <trkpt lat="45.67622" lon="3.14346">
        <ele>413.785004</ele>
        <time>2011-09-01T10:26:48Z</time>
      </trkpt>
      <trkpt lat="45.67632" lon="3.14344">
        <ele>414.120087</ele>
        <time>2011-09-01T10:26:50Z</time>
      </trkpt>
      <trkpt lat="45.67642" lon="3.14342">
        <ele>414.368927</ele>
        <time>2011-09-01T10:26:52Z</time>
      </trkpt>
      <trkpt lat="45.67652" lon="3.1434">
        <ele>414.622864</ele>
        <time>2011-09-01T10:26:54Z</time>
      </trkpt>
      <trkpt lat="45.67662" lon="3.14338">
        <ele>414.905762</ele>
        <time>2011-09-01T10:26:56Z</time>
      </trkpt>
      <trkpt lat="45.67672" lon="3.14335">
        <ele>415.21875</ele>
        <time>2011-09-01T10:26:58Z</time>
      </trkpt>
      <trkpt lat="45.67683" lon="3.14333">
        <ele>415.743744</ele>
        <time>2011-09-01T10:27:00Z</time>
      </trkpt>
      <trkpt lat="45.67694" lon="3.1433">
        <ele>416.261261</ele>
        <time>2011-09-01T10:27:02Z</time>
      </trkpt>
      <trkpt lat="45.67704" lon="3.14328">
        <ele>416.762512</ele>
        <time>2011-09-01T10:27:04Z</time>
      </trkpt>
      <trkpt lat="45.67715" lon="3.14326">
        <ele>417.28125</ele>
        <time>2011-09-01T10:27:06Z</time>
      </trkpt>
      <trkpt lat="45.67726" lon="3.14323">
        <ele>417.695007</ele>
        <time>2011-09-01T10:27:08Z</time>
      </trkpt>
      <trkpt lat="45.67736" lon="3.14321">
        <ele>418.071716</ele>
        <time>2011-09-01T10:27:10Z</time>
      </trkpt>
      <trkpt lat="45.67747" lon="3.14319">
        <ele>418.46759</ele>
        <time>2011-09-01T10:27:12Z</time>
      </trkpt>
      <trkpt lat="45.67756" lon="3.14317">
        <ele>418.837738</ele>
        <time>2011-09-01T10:27:14Z</time>
      </trkpt>
      <trkpt lat="45.67766" lon="3.14315">
        <ele>419.13446</ele>
        <time>2011-09-01T10:27:16Z</time>
      </trkpt>
      <trkpt lat="45.67778" lon="3.14314">
        <ele>419.297913</ele>
        <time>2011-09-01T10:27:18Z</time>
      </trkpt>
      <trkpt lat="45.67792" lon="3.14313">
        <ele>419.446869</ele>
        <time>2011-09-01T10:27:20Z</time>
      </trkpt>
      <trkpt lat="45.67805" lon="3.14312">
        <ele>419.583313</ele>
        <time>2011-09-01T10:27:22Z</time>
      </trkpt>
      <trkpt lat="45.67819" lon="3.14312">
        <ele>419.965851</ele>
        <time>2011-09-01T10:27:24Z</time>
      </trkpt>
      <trkpt lat="45.67833" lon="3.14313">
        <ele>420.403107</ele>
        <time>2011-09-01T10:27:26Z</time>
      </trkpt>
      <trkpt lat="45.67846" lon="3.14314">
        <ele>420.823914</ele>
        <time>2011-09-01T10:27:28Z</time>
      </trkpt>
      <trkpt lat="45.67859" lon="3.14315">
        <ele>421.255524</ele>
        <time>2011-09-01T10:27:30Z</time>
      </trkpt>
      <trkpt lat="45.67873" lon="3.14317">
        <ele>421.728485</ele>
        <time>2011-09-01T10:27:32Z</time>
      </trkpt>
      <trkpt lat="45.67887" lon="3.14319">
        <ele>422.192322</ele>
        <time>2011-09-01T10:27:34Z</time>
      </trkpt>
      <trkpt lat="45.67902" lon="3.14321">
        <ele>422.69873</ele>
        <time>2011-09-01T10:27:36Z</time>
      </trkpt>
      <trkpt lat="45.67916" lon="3.14323">
        <ele>423.3125</ele>
        <time>2011-09-01T10:27:38Z</time>
      </trkpt>
      <trkpt lat="45.67931" lon="3.14326">
        <ele>423.950012</ele>
        <time>2011-09-01T10:27:40Z</time>
      </trkpt>
      <trkpt lat="45.67946" lon="3.14328">
        <ele>424.47876</ele>
        <time>2011-09-01T10:27:42Z</time>
      </trkpt>
      <trkpt lat="45.6796" lon="3.1433">
        <ele>424.772491</ele>
        <time>2011-09-01T10:27:44Z</time>
      </trkpt>
      <trkpt lat="45.67974" lon="3.14331">
        <ele>425.065002</ele>
        <time>2011-09-01T10:27:46Z</time>
      </trkpt>
      <trkpt lat="45.67988" lon="3.14332">
        <ele>425.372498</ele>
        <time>2011-09-01T10:27:48Z</time>
      </trkpt>
      <trkpt lat="45.68001" lon="3.14334">
        <ele>425.917511</ele>
        <time>2011-09-01T10:27:50Z</time>
      </trkpt>
      <trkpt lat="45.68013" lon="3.14335">
        <ele>426.432495</ele>
        <time>2011-09-01T10:27:52Z</time>
      </trkpt>
      <trkpt lat="45.68024" lon="3.14337">
        <ele>426.932495</ele>
        <time>2011-09-01T10:27:54Z</time>
      </trkpt>
      <trkpt lat="45.68035" lon="3.14338">
        <ele>427.399994</ele>
        <time>2011-09-01T10:27:56Z</time>
      </trkpt>
      <trkpt lat="45.68046" lon="3.14339">
        <ele>427.856262</ele>
        <time>2011-09-01T10:27:58Z</time>
      </trkpt>
      <trkpt lat="45.68056" lon="3.1434">
        <ele>428.292511</ele>
        <time>2011-09-01T10:28:00Z</time>
      </trkpt>
      <trkpt lat="45.68066" lon="3.14341">
        <ele>428.734985</ele>
        <time>2011-09-01T10:28:02Z</time>
      </trkpt>
      <trkpt lat="45.68078" lon="3.14342">
        <ele>429.263916</ele>
        <time>2011-09-01T10:28:04Z</time>
      </trkpt>
      <trkpt lat="45.68091" lon="3.14344">
        <ele>430.073914</ele>
        <time>2011-09-01T10:28:06Z</time>
      </trkpt>
      <trkpt lat="45.68104" lon="3.14346">
        <ele>430.869812</ele>
        <time>2011-09-01T10:28:08Z</time>
      </trkpt>
      <trkpt lat="45.68116" lon="3.14349">
        <ele>431.651703</ele>
        <time>2011-09-01T10:28:10Z</time>
      </trkpt>
      <trkpt lat="45.68128" lon="3.14352">
        <ele>432.144379</ele>
        <time>2011-09-01T10:28:12Z</time>
      </trkpt>
      <trkpt lat="45.68139" lon="3.14357">
        <ele>432.382233</ele>
        <time>2011-09-01T10:28:14Z</time>
      </trkpt>
      <trkpt lat="45.68149" lon="3.14361">
        <ele>432.664581</ele>
        <time>2011-09-01T10:28:16Z</time>
      </trkpt>
      <trkpt lat="45.6816" lon="3.14365">
        <ele>432.977173</ele>
        <time>2011-09-01T10:28:18Z</time>
      </trkpt>
      <trkpt lat="45.68172" lon="3.14368">
        <ele>433.398163</ele>
        <time>2011-09-01T10:28:20Z</time>
      </trkpt>
      <trkpt lat="45.68183" lon="3.14372">
        <ele>433.897644</ele>
        <time>2011-09-01T10:28:22Z</time>
      </trkpt>
      <trkpt lat="45.68195" lon="3.14374">
        <ele>434.348816</ele>
        <time>2011-09-01T10:28:24Z</time>
      </trkpt>
      <trkpt lat="45.68204" lon="3.14376">
        <ele>434.715881</ele>
        <time>2011-09-01T10:28:26Z</time>
      </trkpt>
      <trkpt lat="45.68215" lon="3.14378">
        <ele>435</ele>
        <time>2011-09-01T10:28:29Z</time>
      </trkpt>
      <trkpt lat="45.68226" lon="3.1438">
        <ele>435</ele>
        <time>2011-09-01T10:28:32Z</time>
      </trkpt>
      <trkpt lat="45.68237" lon="3.14382">
        <ele>435</ele>
        <time>2011-09-01T10:28:35Z</time>
      </trkpt>
      <trkpt lat="45.68246" lon="3.14383">
        <ele>435</ele>
        <time>2011-09-01T10:28:38Z</time>
      </trkpt>
      <trkpt lat="45.68255" lon="3.14384">
        <ele>435</ele>
        <time>2011-09-01T10:28:41Z</time>
      </trkpt>
      <trkpt lat="45.68264" lon="3.14386">
        <ele>435.172485</ele>
        <time>2011-09-01T10:28:44Z</time>
      </trkpt>
      <trkpt lat="45.68275" lon="3.14388">
        <ele>435.417511</ele>
        <time>2011-09-01T10:28:48Z</time>
      </trkpt>
      <trkpt lat="45.68288" lon="3.1439">
        <ele>435.692505</ele>
        <time>2011-09-01T10:28:52Z</time>
      </trkpt>
      <trkpt lat="45.68298" lon="3.14392">
        <ele>435.920013</ele>
        <time>2011-09-01T10:28:55Z</time>
      </trkpt>
      <trkpt lat="45.68307" lon="3.14392">
        <ele>436.206879</ele>
        <time>2011-09-01T10:28:58Z</time>
      </trkpt>
      <trkpt lat="45.68317" lon="3.14392">
        <ele>436.514679</ele>
        <time>2011-09-01T10:29:01Z</time>
      </trkpt>
      <trkpt lat="45.6833" lon="3.14393">
        <ele>436.995544</ele>
        <time>2011-09-01T10:29:04Z</time>
      </trkpt>
      <trkpt lat="45.68344" lon="3.14394">
        <ele>437.473694</ele>
        <time>2011-09-01T10:29:06Z</time>
      </trkpt>
      <trkpt lat="45.68359" lon="3.14396">
        <ele>438.034088</ele>
        <time>2011-09-01T10:29:08Z</time>
      </trkpt>
      <trkpt lat="45.68374" lon="3.14397">
        <ele>438.565887</ele>
        <time>2011-09-01T10:29:10Z</time>
      </trkpt>
      <trkpt lat="45.68386" lon="3.14398">
        <ele>439.020721</ele>
        <time>2011-09-01T10:29:12Z</time>
      </trkpt>
      <trkpt lat="45.68397" lon="3.14399">
        <ele>439.360565</ele>
        <time>2011-09-01T10:29:14Z</time>
      </trkpt>
      <trkpt lat="45.68408" lon="3.14399">
        <ele>439.675873</ele>
        <time>2011-09-01T10:29:17Z</time>
      </trkpt>
      <trkpt lat="45.68419" lon="3.144">
        <ele>440.010681</ele>
        <time>2011-09-01T10:29:21Z</time>
      </trkpt>
      <trkpt lat="45.68428" lon="3.14402">
        <ele>440.376373</ele>
        <time>2011-09-01T10:29:26Z</time>
      </trkpt>
      <trkpt lat="45.68438" lon="3.14407">
        <ele>440.822845</ele>
        <time>2011-09-01T10:29:34Z</time>
      </trkpt>
      <trkpt lat="45.68446" lon="3.14416">
        <ele>440.818817</ele>
        <time>2011-09-01T10:29:42Z</time>
      </trkpt>
      <trkpt lat="45.68453" lon="3.14426">
        <ele>441.112793</ele>
        <time>2011-09-01T10:29:49Z</time>
      </trkpt>
      <trkpt lat="45.68455" lon="3.1444">
        <ele>443.29657</ele>
        <time>2011-09-01T10:29:57Z</time>
      </trkpt>
      <trkpt lat="45.68455" lon="3.14456">
        <ele>445.828308</ele>
        <time>2011-09-01T10:30:07Z</time>
      </trkpt>
      <trkpt lat="45.68452" lon="3.14471">
        <ele>448.302094</ele>
        <time>2011-09-01T10:30:17Z</time>
      </trkpt>
      <trkpt lat="45.68448" lon="3.14486">
        <ele>450.483948</ele>
        <time>2011-09-01T10:30:25Z</time>
      </trkpt>
      <trkpt lat="45.68445" lon="3.14501">
        <ele>452.175659</ele>
        <time>2011-09-01T10:30:33Z</time>
      </trkpt>
      <trkpt lat="45.68442" lon="3.14517">
        <ele>454.114838</ele>
        <time>2011-09-01T10:30:41Z</time>
      </trkpt>
      <trkpt lat="45.6844" lon="3.14532">
        <ele>456.003845</ele>
        <time>2011-09-01T10:30:49Z</time>
      </trkpt>
      <trkpt lat="45.68437" lon="3.14547">
        <ele>458.083527</ele>
        <time>2011-09-01T10:30:54Z</time>
      </trkpt>
      <trkpt lat="45.68434" lon="3.14559">
        <ele>458.962982</ele>
        <time>2011-09-01T10:30:57Z</time>
      </trkpt>
      <trkpt lat="45.6843" lon="3.14571">
        <ele>458.492462</ele>
        <time>2011-09-01T10:31:01Z</time>
      </trkpt>
      <trkpt lat="45.68424" lon="3.14584">
        <ele>457.980164</ele>
        <time>2011-09-01T10:31:05Z</time>
      </trkpt>
      <trkpt lat="45.68419" lon="3.14596">
        <ele>457.846497</ele>
        <time>2011-09-01T10:31:09Z</time>
      </trkpt>
      <trkpt lat="45.68415" lon="3.14608">
        <ele>457.904846</ele>
        <time>2011-09-01T10:31:13Z</time>
      </trkpt>
      <trkpt lat="45.68412" lon="3.14622">
        <ele>457.876587</ele>
        <time>2011-09-01T10:31:18Z</time>
      </trkpt>
      <trkpt lat="45.68408" lon="3.14637">
        <ele>457.495636</ele>
        <time>2011-09-01T10:31:26Z</time>
      </trkpt>
      <trkpt lat="45.68405" lon="3.1465">
        <ele>457.347504</ele>
        <time>2011-09-01T10:31:33Z</time>
      </trkpt>
      <trkpt lat="45.68402" lon="3.14665">
        <ele>457.364807</ele>
        <time>2011-09-01T10:31:41Z</time>
      </trkpt>
      <trkpt lat="45.68402" lon="3.14676">
        <ele>457.397247</ele>
        <time>2011-09-01T10:31:53Z</time>
      </trkpt>
      <trkpt lat="45.6841" lon="3.14668">
        <ele>457.23291</ele>
        <time>2011-09-01T10:32:02Z</time>
      </trkpt>
      <trkpt lat="45.68417" lon="3.14657">
        <ele>457.399536</ele>
        <time>2011-09-01T10:32:08Z</time>
      </trkpt>
      <trkpt lat="45.68425" lon="3.14654">
        <ele>457.57251</ele>
        <time>2011-09-01T10:32:11Z</time>
      </trkpt>
      <trkpt lat="45.68434" lon="3.14665">
        <ele>457.006256</ele>
        <time>2011-09-01T10:32:15Z</time>
      </trkpt>
      <trkpt lat="45.68435" lon="3.14679">
        <ele>456.090271</ele>
        <time>2011-09-01T10:32:18Z</time>
      </trkpt>
      <trkpt lat="45.68438" lon="3.14697">
        <ele>454.523529</ele>
        <time>2011-09-01T10:32:21Z</time>
      </trkpt>
      <trkpt lat="45.68437" lon="3.14712">
        <ele>454.003906</ele>
        <time>2011-09-01T10:32:23Z</time>
      </trkpt>
      <trkpt lat="45.68433" lon="3.14726">
        <ele>454.001801</ele>
        <time>2011-09-01T10:32:25Z</time>
      </trkpt>
      <trkpt lat="45.68427" lon="3.1474">
        <ele>453.954895</ele>
        <time>2011-09-01T10:32:27Z</time>
      </trkpt>
      <trkpt lat="45.68422" lon="3.14753">
        <ele>454.165375</ele>
        <time>2011-09-01T10:32:29Z</time>
      </trkpt>
      <trkpt lat="45.68415" lon="3.14765">
        <ele>454.643555</ele>
        <time>2011-09-01T10:32:31Z</time>
      </trkpt>
      <trkpt lat="45.6841" lon="3.14777">
        <ele>455.145264</ele>
        <time>2011-09-01T10:32:33Z</time>
      </trkpt>
      <trkpt lat="45.68404" lon="3.14789">
        <ele>455.772247</ele>
        <time>2011-09-01T10:32:35Z</time>
      </trkpt>
      <trkpt lat="45.68397" lon="3.14799">
        <ele>456.659485</ele>
        <time>2011-09-01T10:32:38Z</time>
      </trkpt>
      <trkpt lat="45.68389" lon="3.14808">
        <ele>457.825256</ele>
        <time>2011-09-01T10:32:41Z</time>
      </trkpt>
      <trkpt lat="45.68382" lon="3.1482">
        <ele>458.780029</ele>
        <time>2011-09-01T10:32:44Z</time>
      </trkpt>
      <trkpt lat="45.6838" lon="3.14832">
        <ele>458.938171</ele>
        <time>2011-09-01T10:32:47Z</time>
      </trkpt>
      <trkpt lat="45.68379" lon="3.14848">
        <ele>458.857941</ele>
        <time>2011-09-01T10:32:53Z</time>
      </trkpt>
      <trkpt lat="45.68383" lon="3.14859">
        <ele>458.103638</ele>
        <time>2011-09-01T10:33:01Z</time>
      </trkpt>
      <trkpt lat="45.68394" lon="3.14865">
        <ele>456.071655</ele>
        <time>2011-09-01T10:33:09Z</time>
      </trkpt>
      <trkpt lat="45.68401" lon="3.14872">
        <ele>454.661041</ele>
        <time>2011-09-01T10:33:16Z</time>
      </trkpt>
      <trkpt lat="45.68403" lon="3.14885">
        <ele>454.235046</ele>
        <time>2011-09-01T10:33:22Z</time>
      </trkpt>
      <trkpt lat="45.68411" lon="3.14896">
        <ele>452.575836</ele>
        <time>2011-09-01T10:33:29Z</time>
      </trkpt>
      <trkpt lat="45.6842" lon="3.14903">
        <ele>450.904297</ele>
        <time>2011-09-01T10:33:35Z</time>
      </trkpt>
      <trkpt lat="45.68422" lon="3.14919">
        <ele>450.358612</ele>
        <time>2011-09-01T10:33:39Z</time>
      </trkpt>
      <trkpt lat="45.68421" lon="3.14932">
        <ele>450.247833</ele>
        <time>2011-09-01T10:33:41Z</time>
      </trkpt>
      <trkpt lat="45.68421" lon="3.14949">
        <ele>450.295166</ele>
        <time>2011-09-01T10:33:43Z</time>
      </trkpt>
      <trkpt lat="45.68419" lon="3.14966">
        <ele>450.437469</ele>
        <time>2011-09-01T10:33:45Z</time>
      </trkpt>
      <trkpt lat="45.68418" lon="3.14984">
        <ele>450.605835</ele>
        <time>2011-09-01T10:33:47Z</time>
      </trkpt>
      <trkpt lat="45.68417" lon="3.15003">
        <ele>450.786407</ele>
        <time>2011-09-01T10:33:49Z</time>
      </trkpt>
      <trkpt lat="45.68416" lon="3.15021">
        <ele>451.822876</ele>
        <time>2011-09-01T10:33:51Z</time>
      </trkpt>
      <trkpt lat="45.68415" lon="3.1504">
        <ele>452.929688</ele>
        <time>2011-09-01T10:33:53Z</time>
      </trkpt>
      <trkpt lat="45.68414" lon="3.15058">
        <ele>453.9888</ele>
        <time>2011-09-01T10:33:55Z</time>
      </trkpt>
      <trkpt lat="45.68413" lon="3.15075">
        <ele>455.66037</ele>
        <time>2011-09-01T10:33:57Z</time>
      </trkpt>
      <trkpt lat="45.68411" lon="3.15089">
        <ele>457.646393</ele>
        <time>2011-09-01T10:33:59Z</time>
      </trkpt>
      <trkpt lat="45.68402" lon="3.15101">
        <ele>460.193604</ele>
        <time>2011-09-01T10:34:02Z</time>
      </trkpt>
      <trkpt lat="45.68391" lon="3.15103">
        <ele>461.569824</ele>
        <time>2011-09-01T10:34:05Z</time>
      </trkpt>
      <trkpt lat="45.68382" lon="3.15104">
        <ele>462.758087</ele>
        <time>2011-09-01T10:34:10Z</time>
      </trkpt>
      <trkpt lat="45.6837" lon="3.15105">
        <ele>464.174133</ele>
        <time>2011-09-01T10:34:15Z</time>
      </trkpt>
      <trkpt lat="45.68362" lon="3.15111">
        <ele>465.568695</ele>
        <time>2011-09-01T10:34:19Z</time>
      </trkpt>
      <trkpt lat="45.68362" lon="3.15125">
        <ele>466.797729</ele>
        <time>2011-09-01T10:34:23Z</time>
      </trkpt>
      <trkpt lat="45.68364" lon="3.1514">
        <ele>468.443756</ele>
        <time>2011-09-01T10:34:26Z</time>
      </trkpt>
      <trkpt lat="45.68368" lon="3.1516">
        <ele>470.857483</ele>
        <time>2011-09-01T10:34:29Z</time>
      </trkpt>
      <trkpt lat="45.68372" lon="3.15177">
        <ele>472.956238</ele>
        <time>2011-09-01T10:34:31Z</time>
      </trkpt>
      <trkpt lat="45.68375" lon="3.15192">
        <ele>474.811249</ele>
        <time>2011-09-01T10:34:33Z</time>
      </trkpt>
      <trkpt lat="45.68376" lon="3.15207">
        <ele>476.234985</ele>
        <time>2011-09-01T10:34:36Z</time>
      </trkpt>
      <trkpt lat="45.68379" lon="3.15221">
        <ele>477.511261</ele>
        <time>2011-09-01T10:34:43Z</time>
      </trkpt>
      <trkpt lat="45.68382" lon="3.15234">
        <ele>478.727509</ele>
        <time>2011-09-01T10:34:53Z</time>
      </trkpt>
      <trkpt lat="45.68385" lon="3.15248">
        <ele>480.017487</ele>
        <time>2011-09-01T10:35:02Z</time>
      </trkpt>
      <trkpt lat="45.68387" lon="3.15263">
        <ele>481.052795</ele>
        <time>2011-09-01T10:35:10Z</time>
      </trkpt>
      <trkpt lat="45.68391" lon="3.15276">
        <ele>481.198212</ele>
        <time>2011-09-01T10:35:18Z</time>
      </trkpt>
      <trkpt lat="45.68401" lon="3.15281">
        <ele>480.378326</ele>
        <time>2011-09-01T10:35:25Z</time>
      </trkpt>
      <trkpt lat="45.6841" lon="3.15279">
        <ele>479.350098</ele>
        <time>2011-09-01T10:35:31Z</time>
      </trkpt>
      <trkpt lat="45.6842" lon="3.15277">
        <ele>478.277191</ele>
        <time>2011-09-01T10:35:38Z</time>
      </trkpt>
      <trkpt lat="45.68431" lon="3.15274">
        <ele>477.153748</ele>
        <time>2011-09-01T10:35:46Z</time>
      </trkpt>
      <trkpt lat="45.6844" lon="3.15272">
        <ele>475.873749</ele>
        <time>2011-09-01T10:35:53Z</time>
      </trkpt>
      <trkpt lat="45.6845" lon="3.15269">
        <ele>474.493744</ele>
        <time>2011-09-01T10:36:00Z</time>
      </trkpt>
      <trkpt lat="45.6846" lon="3.15268">
        <ele>473.181244</ele>
        <time>2011-09-01T10:36:07Z</time>
      </trkpt>
      <trkpt lat="45.6847" lon="3.15267">
        <ele>471.79126</ele>
        <time>2011-09-01T10:36:15Z</time>
      </trkpt>
      <trkpt lat="45.6848" lon="3.15266">
        <ele>470.432495</ele>
        <time>2011-09-01T10:36:24Z</time>
      </trkpt>
      <trkpt lat="45.68494" lon="3.15265">
        <ele>468.608734</ele>
        <time>2011-09-01T10:36:35Z</time>
      </trkpt>
      <trkpt lat="45.68504" lon="3.15263">
        <ele>467.132507</ele>
        <time>2011-09-01T10:36:46Z</time>
      </trkpt>
      <trkpt lat="45.68515" lon="3.15264">
        <ele>465.734985</ele>
        <time>2011-09-01T10:36:54Z</time>
      </trkpt>
      <trkpt lat="45.68525" lon="3.15266">
        <ele>464.334991</ele>
        <time>2011-09-01T10:37:00Z</time>
      </trkpt>
      <trkpt lat="45.68533" lon="3.15271">
        <ele>463.076233</ele>
        <time>2011-09-01T10:37:07Z</time>
      </trkpt>
      <trkpt lat="45.68533" lon="3.15281">
        <ele>463.258759</ele>
        <time>2011-09-01T10:37:31Z</time>
      </trkpt>
      <trkpt lat="45.68536" lon="3.15294">
        <ele>463.032501</ele>
        <time>2011-09-01T10:38:43Z</time>
      </trkpt>
      <trkpt lat="45.68538" lon="3.15309">
        <ele>462.94751</ele>
        <time>2011-09-01T10:38:51Z</time>
      </trkpt>
      <trkpt lat="45.6854" lon="3.15323">
        <ele>462.83374</ele>
        <time>2011-09-01T10:38:58Z</time>
      </trkpt>
      <trkpt lat="45.68542" lon="3.15337">
        <ele>462.954987</ele>
        <time>2011-09-01T10:39:05Z</time>
      </trkpt>
      <trkpt lat="45.68543" lon="3.15352">
        <ele>463.122498</ele>
        <time>2011-09-01T10:39:12Z</time>
      </trkpt>
      <trkpt lat="45.68545" lon="3.15365">
        <ele>463.252502</ele>
        <time>2011-09-01T10:39:19Z</time>
      </trkpt>
      <trkpt lat="45.68547" lon="3.15379">
        <ele>463.307495</ele>
        <time>2011-09-01T10:39:26Z</time>
      </trkpt>
      <trkpt lat="45.68549" lon="3.15392">
        <ele>463.346222</ele>
        <time>2011-09-01T10:39:33Z</time>
      </trkpt>
      <trkpt lat="45.68551" lon="3.15406">
        <ele>463.29599</ele>
        <time>2011-09-01T10:39:40Z</time>
      </trkpt>
      <trkpt lat="45.68554" lon="3.15419">
        <ele>463.122559</ele>
        <time>2011-09-01T10:39:47Z</time>
      </trkpt>
      <trkpt lat="45.68556" lon="3.15433">
        <ele>462.957397</ele>
        <time>2011-09-01T10:39:54Z</time>
      </trkpt>
      <trkpt lat="45.68559" lon="3.15446">
        <ele>462.745087</ele>
        <time>2011-09-01T10:40:01Z</time>
      </trkpt>
      <trkpt lat="45.68565" lon="3.15458">
        <ele>462.076965</ele>
        <time>2011-09-01T10:40:08Z</time>
      </trkpt>
      <trkpt lat="45.68573" lon="3.15463">
        <ele>460.848724</ele>
        <time>2011-09-01T10:40:14Z</time>
      </trkpt>
      <trkpt lat="45.68583" lon="3.15462">
        <ele>459.286652</ele>
        <time>2011-09-01T10:40:20Z</time>
      </trkpt>
      <trkpt lat="45.68593" lon="3.15465">
        <ele>457.765289</ele>
        <time>2011-09-01T10:40:26Z</time>
      </trkpt>
      <trkpt lat="45.686" lon="3.15476">
        <ele>457.085541</ele>
        <time>2011-09-01T10:40:32Z</time>
      </trkpt>
      <trkpt lat="45.68604" lon="3.15488">
        <ele>456.874756</ele>
        <time>2011-09-01T10:40:38Z</time>
      </trkpt>
      <trkpt lat="45.68607" lon="3.155">
        <ele>456.632996</ele>
        <time>2011-09-01T10:40:44Z</time>
      </trkpt>
      <trkpt lat="45.6861" lon="3.15514">
        <ele>456.577515</ele>
        <time>2011-09-01T10:40:51Z</time>
      </trkpt>
      <trkpt lat="45.68613" lon="3.15528">
        <ele>456.436249</ele>
        <time>2011-09-01T10:40:58Z</time>
      </trkpt>
      <trkpt lat="45.68615" lon="3.15542">
        <ele>456.198761</ele>
        <time>2011-09-01T10:41:05Z</time>
      </trkpt>
      <trkpt lat="45.68618" lon="3.15557">
        <ele>455.947479</ele>
        <time>2011-09-01T10:41:13Z</time>
      </trkpt>
      <trkpt lat="45.68621" lon="3.15573">
        <ele>455.693756</ele>
        <time>2011-09-01T10:41:20Z</time>
      </trkpt>
      <trkpt lat="45.68625" lon="3.15587">
        <ele>455.372498</ele>
        <time>2011-09-01T10:41:27Z</time>
      </trkpt>
      <trkpt lat="45.68627" lon="3.15601">
        <ele>455.244995</ele>
        <time>2011-09-01T10:41:34Z</time>
      </trkpt>
      <trkpt lat="45.6863" lon="3.15616">
        <ele>455.024994</ele>
        <time>2011-09-01T10:41:41Z</time>
      </trkpt>
      <trkpt lat="45.68632" lon="3.15631">
        <ele>454.893738</ele>
        <time>2011-09-01T10:41:48Z</time>
      </trkpt>
      <trkpt lat="45.68635" lon="3.15647">
        <ele>454.658752</ele>
        <time>2011-09-01T10:41:55Z</time>
      </trkpt>
      <trkpt lat="45.68637" lon="3.1566">
        <ele>454.292511</ele>
        <time>2011-09-01T10:42:01Z</time>
      </trkpt>
      <trkpt lat="45.6864" lon="3.15673">
        <ele>453.907501</ele>
        <time>2011-09-01T10:42:08Z</time>
      </trkpt>
      <trkpt lat="45.68642" lon="3.15688">
        <ele>453.522491</ele>
        <time>2011-09-01T10:42:15Z</time>
      </trkpt>
      <trkpt lat="45.68645" lon="3.15702">
        <ele>453.067505</ele>
        <time>2011-09-01T10:42:23Z</time>
      </trkpt>
      <trkpt lat="45.68647" lon="3.15723">
        <ele>452.52124</ele>
        <time>2011-09-01T10:42:34Z</time>
      </trkpt>
      <trkpt lat="45.68648" lon="3.15743">
        <ele>452.076263</ele>
        <time>2011-09-01T10:42:45Z</time>
      </trkpt>
      <trkpt lat="45.68645" lon="3.15763">
        <ele>452.106262</ele>
        <time>2011-09-01T10:42:57Z</time>
      </trkpt>
      <trkpt lat="45.68641" lon="3.15783">
        <ele>452.19751</ele>
        <time>2011-09-01T10:43:06Z</time>
      </trkpt>
      <trkpt lat="45.68638" lon="3.15802">
        <ele>451.806244</ele>
        <time>2011-09-01T10:43:14Z</time>
      </trkpt>
      <trkpt lat="45.68636" lon="3.15819">
        <ele>451.282501</ele>
        <time>2011-09-01T10:43:22Z</time>
      </trkpt>
      <trkpt lat="45.68634" lon="3.15837">
        <ele>450.704987</ele>
        <time>2011-09-01T10:43:30Z</time>
      </trkpt>
      <trkpt lat="45.68633" lon="3.15854">
        <ele>449.862488</ele>
        <time>2011-09-01T10:43:37Z</time>
      </trkpt>
      <trkpt lat="45.68632" lon="3.15871">
        <ele>448.894989</ele>
        <time>2011-09-01T10:43:44Z</time>
      </trkpt>
      <trkpt lat="45.68631" lon="3.15888">
        <ele>447.924988</ele>
        <time>2011-09-01T10:43:52Z</time>
      </trkpt>
      <trkpt lat="45.68632" lon="3.15903">
        <ele>446.787506</ele>
        <time>2011-09-01T10:43:59Z</time>
      </trkpt>
      <trkpt lat="45.68641" lon="3.15913">
        <ele>445.032501</ele>
        <time>2011-09-01T10:44:06Z</time>
      </trkpt>
      <trkpt lat="45.68651" lon="3.15917">
        <ele>443.336243</ele>
        <time>2011-09-01T10:44:13Z</time>
      </trkpt>
      <trkpt lat="45.68662" lon="3.1592">
        <ele>441.70874</ele>
        <time>2011-09-01T10:44:21Z</time>
      </trkpt>
      <trkpt lat="45.68674" lon="3.15922">
        <ele>440.002502</ele>
        <time>2011-09-01T10:44:28Z</time>
      </trkpt>
      <trkpt lat="45.68686" lon="3.15925">
        <ele>438.236237</ele>
        <time>2011-09-01T10:44:36Z</time>
      </trkpt>
      <trkpt lat="45.68697" lon="3.15927">
        <ele>436.634949</ele>
        <time>2011-09-01T10:44:43Z</time>
      </trkpt>
      <trkpt lat="45.68709" lon="3.1593">
        <ele>435.057281</ele>
        <time>2011-09-01T10:44:51Z</time>
      </trkpt>
      <trkpt lat="45.6872" lon="3.15934">
        <ele>433.600555</ele>
        <time>2011-09-01T10:45:00Z</time>
      </trkpt>
      <trkpt lat="45.68735" lon="3.15933">
        <ele>431.701172</ele>
        <time>2011-09-01T10:45:10Z</time>
      </trkpt>
      <trkpt lat="45.68748" lon="3.1594">
        <ele>429.699677</ele>
        <time>2011-09-01T10:45:51Z</time>
      </trkpt>
      <trkpt lat="45.68751" lon="3.15955">
        <ele>428.913696</ele>
        <time>2011-09-01T10:45:59Z</time>
      </trkpt>
      <trkpt lat="45.68751" lon="3.15971">
        <ele>428.41687</ele>
        <time>2011-09-01T10:46:09Z</time>
      </trkpt>
      <trkpt lat="45.68751" lon="3.15988">
        <ele>428.237823</ele>
        <time>2011-09-01T10:46:17Z</time>
      </trkpt>
      <trkpt lat="45.68753" lon="3.16001">
        <ele>427.858765</ele>
        <time>2011-09-01T10:46:30Z</time>
      </trkpt>
      <trkpt lat="45.68751" lon="3.16021">
        <ele>427.844299</ele>
        <time>2011-09-01T10:46:40Z</time>
      </trkpt>
      <trkpt lat="45.6875" lon="3.16035">
        <ele>427.799988</ele>
        <time>2011-09-01T10:46:42Z</time>
      </trkpt>
      <trkpt lat="45.68749" lon="3.1605">
        <ele>427.950012</ele>
        <time>2011-09-01T10:46:44Z</time>
      </trkpt>
      <trkpt lat="45.68747" lon="3.16065">
        <ele>428.149994</ele>
        <time>2011-09-01T10:46:46Z</time>
      </trkpt>
      <trkpt lat="45.68745" lon="3.1608">
        <ele>428.375</ele>
        <time>2011-09-01T10:46:49Z</time>
      </trkpt>
      <trkpt lat="45.68745" lon="3.16094">
        <ele>428.274994</ele>
        <time>2011-09-01T10:46:53Z</time>
      </trkpt>
      <trkpt lat="45.68745" lon="3.1611">
        <ele>428.037262</ele>
        <time>2011-09-01T10:46:59Z</time>
      </trkpt>
      <trkpt lat="45.68745" lon="3.16125">
        <ele>427.754059</ele>
        <time>2011-09-01T10:47:06Z</time>
      </trkpt>
      <trkpt lat="45.68744" lon="3.1614">
        <ele>427.588623</ele>
        <time>2011-09-01T10:47:12Z</time>
      </trkpt>
      <trkpt lat="45.68744" lon="3.16156">
        <ele>427.305511</ele>
        <time>2011-09-01T10:47:19Z</time>
      </trkpt>
      <trkpt lat="45.68745" lon="3.16172">
        <ele>426.502777</ele>
        <time>2011-09-01T10:47:27Z</time>
      </trkpt>
      <trkpt lat="45.68743" lon="3.16187">
        <ele>425.784424</ele>
        <time>2011-09-01T10:47:34Z</time>
      </trkpt>
      <trkpt lat="45.68743" lon="3.16207">
        <ele>424.456512</ele>
        <time>2011-09-01T10:47:43Z</time>
      </trkpt>
      <trkpt lat="45.68741" lon="3.16234">
        <ele>422.818604</ele>
        <time>2011-09-01T10:47:58Z</time>
      </trkpt>
      <trkpt lat="45.68728" lon="3.16252">
        <ele>422.912506</ele>
        <time>2011-09-01T10:48:12Z</time>
      </trkpt>
      <trkpt lat="45.68716" lon="3.1626">
        <ele>423.640015</ele>
        <time>2011-09-01T10:48:21Z</time>
      </trkpt>
      <trkpt lat="45.68705" lon="3.16272">
        <ele>424.075012</ele>
        <time>2011-09-01T10:48:30Z</time>
      </trkpt>
      <trkpt lat="45.68693" lon="3.16281">
        <ele>424.61499</ele>
        <time>2011-09-01T10:48:38Z</time>
      </trkpt>
      <trkpt lat="45.68682" lon="3.16292">
        <ele>425.035004</ele>
        <time>2011-09-01T10:48:47Z</time>
      </trkpt>
      <trkpt lat="45.6867" lon="3.163">
        <ele>425.942505</ele>
        <time>2011-09-01T10:48:55Z</time>
      </trkpt>
      <trkpt lat="45.68669" lon="3.16284">
        <ele>427.034363</ele>
        <time>2011-09-01T10:49:04Z</time>
      </trkpt>
      <trkpt lat="45.68672" lon="3.16269">
        <ele>428.077576</ele>
        <time>2011-09-01T10:49:13Z</time>
      </trkpt>
      <trkpt lat="45.6867" lon="3.16257">
        <ele>429.245636</ele>
        <time>2011-09-01T10:49:22Z</time>
      </trkpt>
    </trkseg>
  </trk>
</gpx>